[[{"header":{"parameterUnit":"m.s-1","parameterCategory":1,"la1":31.0,"la2":29.5877,"lo1":-88.7671,"lo2":-86.6584,"dy":0.0162,"dx":0.0185,"nx":115,"ny":88,"refTime":"2023-07-17T12:00:00:Z","depth":0,"parameterNumber":2,"parameterNumberName":"U-component_of_WINDS"},"data":[0.0,0.0,0.0,0.0,0.0,0.0,0.0,0.0,0.0,0.0,0.0,0.0,0.0,0.0,0.0,0.0,0.0,0.0,0.0,0.0,0.0,0.0,0.0,0.0,0.0,0.0,0.0,0.0,0.0,0.0,0.0,0.0,0.0,0.0,0.0,0.0,0.0,0.0,0.0,0.0,0.0,0.0,0.0,0.0,0.0,0.0,0.0,0.0,0.0,0.0,0.0,0.0,0.0,0.0,0.0,0.0,0.0,0.0,0.0,0.0,0.0,0.0,0.0,0.0,0.0,0.0,0.0,0.0,0.0,0.0,0.0,0.0,0.0,0.0,0.0,0.0,0.0,0.0,0.0,0.0,0.0,0.0,0.0,0.0,0.0,0.0,0.0,0.0,0.0,0.0,0.0,0.0,0.0,0.0,0.0,0.0,0.0,0.0,0.0,0.0,0.0,0.0,0.0,0.0,0.0,0.0,0.0,0.0,0.0,0.0,0.0,0.0,0.0,0.0,0.0,0.0,0.0,0.0,0.0,0.0,0.0,0.0,0.0,0.0,0.0,0.0,0.0,0.0,0.0,0.0,0.0,0.0,0.0,0.0,0.0,0.0,0.0,0.0,0.0,0.0,0.0,0.0,0.0,0.0,0.0,0.0,0.0,0.0,0.0,0.0,0.0,0.0,0.0,0.0,0.0,0.0,0.0,0.0,0.0,0.0,0.0,0.0,0.0,0.0,0.0,0.0,0.0,0.0,0.0,0.0,0.0,0.0,0.0,0.0,0.0,0.0,0.0,0.0,0.0,0.0,0.0,0.0,0.0,0.0,0.0,0.0,0.0,0.0,0.0,0.0,0.0,0.0,0.0,0.0,0.0,0.0,0.0,0.0,0.0,0.0,0.0,0.0,0.0,0.0,0.0,0.0,0.0,0.0,0.0,0.0,0.0,0.0,0.0,0.0,0.0,0.0,0.0,0.0,0.0,0.0,0.0,0.0,0.0,0.0,0.0,0.0,0.0,0.0,0.0,0.0,0.0,0.0,0.0,0.0,0.0,0.0,0.0,0.0,0.0,0.0,0.0,0.0,0.0,0.0,0.0,0.0,0.0,0.0,0.0,0.0,0.0,0.0,0.0,0.0,0.0,0.0,0.0,0.0,0.0,0.0,0.0,0.0,0.0,0.0,0.0,0.0,0.0,0.0,0.0,0.0,0.0,0.0,0.0,0.0,0.0,0.0,0.0,0.0,0.0,0.0,0.0,0.0,0.0,0.0,0.0,0.0,0.0,0.0,0.0,0.0,0.0,0.0,0.0,0.0,0.0,0.0,0.0,0.0,0.0,0.0,0.0,0.0,0.0,0.0,0.0,0.0,0.0,0.0,0.0,0.0,0.0,0.0,0.0,0.0,0.0,0.0,0.0,0.0,0.0,0.0,0.0,0.0,0.0,0.0,0.0,0.0,0.0,0.0,0.0,0.0,0.0,0.0,0.0,0.0,0.0,0.0,0.0,0.0,0.0,0.0,0.0,0.0,0.0,0.0,0.0,0.0,0.0,0.0,0.0,0.0,0.0,0.0,0.0,0.0,0.0,0.0,0.0,0.0,0.0,0.0,0.0,0.0,0.0,0.0,0.0,0.0,0.0,0.0,0.0,0.0,0.0,0.0,0.0,0.0,0.0,0.0,0.0,0.0,0.0,0.0,0.0,0.0,0.0,0.0,0.0,0.0,0.0,0.0,0.0,0.0,0.0,0.0,0.0,0.0,0.0,0.0,0.0,0.0,0.0,0.0,0.0,0.0,0.0,0.0,0.0,0.0,0.0,0.0,0.0,0.0,0.0,0.0,0.0,0.0,0.0,0.0,0.0,0.0,0.0,0.0,0.0,0.0,0.0,0.0,0.0,0.0,0.0,0.0,0.0,0.0,0.0,0.0,0.0,0.0,0.0,0.0,0.0,0.0,0.0,0.0,0.0,0.0,0.0,0.0,0.0,0.0,0.0,0.0,0.0,0.0,0.0,0.0,0.0,0.0,0.0,0.0,0.0,0.0,0.0,0.0,0.0,0.0,0.0,0.0,0.0,0.0,0.0,0.0,0.0,0.0,0.0,0.0,0.0,0.0,0.0,0.0,0.0,0.0,0.0,0.0,0.0,0.0,0.0,0.0,0.0,0.0,0.0,0.0,0.0,0.0,0.0,0.0,0.0,0.0,0.0,0.0,0.0,0.0,0.0,0.0,0.0,0.0,0.0,0.0,0.0,0.0,0.0,0.0,0.0,0.0,0.0,0.0,0.0,0.0,0.0,0.0,0.0,0.0,0.0,0.0,0.0,0.0,0.0,0.0,0.0,0.0,0.0,0.0,0.0,0.0,0.0,0.0,0.0,0.0,0.0,0.0,0.0,0.0,0.0,0.0,0.0,0.0,0.0,0.0,0.0,0.0,0.0,0.0,0.0,0.0,0.0,0.0,0.0,0.0,0.0,0.0,0.0,0.0,0.0,0.0,0.0,0.0,0.0,0.0,0.0,0.0,0.0,0.0,0.0,0.0,0.0,0.0,0.0,0.0,0.0,0.0,0.0,0.0,0.0,0.0,0.0,0.0,0.0,0.0,0.0,0.0,0.0,0.0,0.0,0.0,0.0,0.0,0.0,0.0,0.0,0.0,0.0,0.0,0.0,0.0,0.0,0.0,0.0,0.0,0.0,0.0,0.0,0.0,0.0,0.0,0.0,0.0,0.0,0.0,0.0,0.0,0.0,0.0,0.0,0.0,0.0,0.0,0.0,0.0,0.0,0.0,0.0,0.0,0.0,0.0,0.0,0.0,0.0,0.0,0.0,0.0,0.0,0.0,0.0,0.0,0.0,0.0,0.0,0.0,0.0,0.0,0.0,0.0,0.0,0.0,0.0,0.0,0.0,0.0,0.0,0.0,0.0,0.0,0.0,0.0,0.0,0.0,0.0,0.0,0.0,0.0,0.0,0.0,0.0,0.0,0.0,0.0,0.0,0.0,0.0,0.0,0.0,0.0,0.0,0.0,0.0,0.0,0.0,0.0,0.0,0.0,0.0,0.0,0.0,0.0,0.0,0.0,0.0,0.0,0.0,0.0,0.0,0.0,0.0,0.0,0.0,0.0,0.0,0.0,0.0,0.0,0.0,0.0,0.0,0.0,0.0,0.0,0.0,0.0,0.0,0.0,0.0,0.0,0.0,0.0,0.0,0.0,0.0,0.0,0.0,0.0,0.0,0.0,0.0,0.0,0.0,0.0,0.0,0.0,0.0,0.0,0.0,0.0,0.0,0.0,0.0,0.0,0.0,0.0,0.0,0.0,0.0,0.0,0.0,0.0,0.0,0.0,0.0,0.0,0.0,0.0,0.0,0.0,0.0,0.0,0.0,0.0,0.0,0.0,0.0,0.0,0.0,0.0,0.0,0.0,0.0,0.0,0.0,0.0,0.0,0.0,0.0,0.0,0.0,0.0,0.0,0.0,0.0,0.0,0.0,0.0,0.0,0.0,0.0,0.0,0.0,0.0,0.0,0.0,0.0,0.0,0.0,0.0,0.0,0.0,0.0,0.0,0.0,0.0,0.0,0.0,0.0,0.0,0.0,0.0,0.0,0.0,0.0,0.0,0.0,0.0,0.0,0.0,0.0,0.0,0.0,0.0,0.0,0.0,0.0,0.0,0.0,0.0,0.0,0.0,0.0,0.0,0.0,0.0,0.0,0.0,0.0,0.0,0.0,0.0,0.0,0.0,0.0,0.0,0.0,0.0,0.0,0.0,0.0,0.0,0.0,0.0,0.0,0.0,0.0,0.0,0.0,0.0,0.0,0.0,0.0,0.0,0.0,0.0,0.0,0.0,0.0,0.0,0.0,0.0,0.0,0.0,0.0,0.0,0.0,0.0,0.0,0.0,0.0,0.0,0.0,0.0,0.0,0.0,0.0,0.0,0.0,0.0,0.0,0.0,0.0,0.0,0.0,0.0,0.0,0.0,0.0,0.0,0.0,0.0,0.0,0.0,0.0,0.0,0.0,0.0,0.0,0.0,0.0,0.0,0.0,0.0,0.0,0.0,0.0,0.0,0.0,0.0,0.0,0.0,0.0,0.0,0.0,0.0,0.0,0.0,0.0,0.0,0.0,0.0,0.0,0.0,0.0,0.0,0.0,0.0,0.0,0.0,0.0,0.0,0.0,0.0,0.0,0.0,0.0,0.0,0.0,0.0,0.0,0.0,0.0,0.0,0.0,0.0,0.0,0.0,0.0,0.0,0.0,0.0,0.0,0.0,0.0,0.0,0.0,0.0,-1.7327,0.0,0.0,0.0,0.0,0.0,0.0,0.0,0.0,0.0,0.0,0.0,0.0,0.0,0.0,0.0,0.0,0.0,0.0,0.0,0.0,0.0,0.0,0.0,0.0,0.0,0.0,0.0,0.0,0.0,0.0,0.0,0.0,0.0,0.0,0.0,0.0,0.0,0.0,0.0,0.0,0.0,0.0,0.0,0.0,0.0,0.0,0.0,0.0,0.0,0.0,0.0,0.0,0.0,0.0,0.0,0.0,0.0,0.0,0.0,0.0,0.0,0.0,0.0,0.0,0.0,0.0,0.0,0.0,0.0,0.0,0.0,0.0,0.0,0.0,0.0,0.0,0.0,0.0,0.0,0.0,0.0,0.0,0.0,0.0,0.0,0.0,0.0,0.0,0.0,0.0,0.0,0.0,0.0,0.0,0.0,0.0,0.0,0.0,0.0,0.0,0.0,0.0,0.0,0.0,0.0,0.0,0.0,0.0,0.0,0.0,-1.7969,-1.7625,-1.7955,-1.7972,-1.7614,0.0,0.0,0.0,0.0,0.0,0.0,0.0,0.0,0.0,0.0,0.0,0.0,0.0,0.0,0.0,0.0,0.0,0.0,0.0,0.0,0.0,0.0,0.0,0.0,0.0,0.0,0.0,0.0,0.0,0.0,0.0,0.0,0.0,0.0,0.0,0.0,0.0,0.0,0.0,0.0,0.0,0.0,0.0,0.0,0.0,0.0,0.0,0.0,0.0,0.0,0.0,0.0,0.0,0.0,0.0,0.0,0.0,0.0,0.0,0.0,0.0,0.0,0.0,0.0,0.0,0.0,0.0,0.0,0.0,0.0,0.0,0.0,0.0,0.0,0.0,0.0,0.0,0.0,0.0,0.0,0.0,0.0,0.0,0.0,0.0,0.0,0.0,0.0,0.0,0.0,0.0,0.0,0.0,0.0,0.0,0.0,0.0,0.0,0.0,0.0,0.0,0.0,0.0,0.0,0.0,0.0,0.0,0.0,0.0,0.0,0.0,0.0,-1.7926,-1.7909,-1.7727,0.0,0.0,0.0,0.0,0.0,0.0,0.0,0.0,0.0,0.0,0.0,0.0,0.0,0.0,0.0,0.0,0.0,0.0,0.0,0.0,0.0,0.0,0.0,0.0,0.0,0.0,0.0,0.0,0.0,0.0,0.0,0.0,0.0,0.0,0.0,0.0,0.0,0.0,0.0,0.0,0.0,0.0,0.0,0.0,0.0,0.0,0.0,0.0,0.0,0.0,0.0,0.0,0.0,0.0,0.0,0.0,0.0,0.0,0.0,0.0,0.0,0.0,0.0,0.0,0.0,0.0,0.0,0.0,0.0,0.0,0.0,0.0,0.0,0.0,0.0,0.0,0.0,0.0,0.0,0.0,0.0,0.0,0.0,0.0,0.0,0.0,0.0,0.0,0.0,0.0,0.0,0.0,0.0,0.0,0.0,0.0,0.0,0.0,0.0,0.0,0.0,0.0,0.0,0.0,0.0,0.0,0.0,0.0,0.0,0.0,-1.7687,-1.7038,-1.7652,0.0,-1.6969,0.0,0.0,0.0,0.0,0.0,0.0,0.0,0.0,0.0,0.0,0.0,0.0,0.0,0.0,0.0,0.0,0.0,0.0,0.0,0.0,0.0,0.0,0.0,0.0,0.0,0.0,0.0,0.0,0.0,0.0,0.0,0.0,0.0,0.0,0.0,0.0,0.0,0.0,0.0,0.0,0.0,0.0,0.0,0.0,0.0,0.0,0.0,0.0,0.0,0.0,0.0,0.0,0.0,0.0,0.0,0.0,0.0,0.0,0.0,0.0,0.0,0.0,0.0,0.0,0.0,0.0,0.0,0.0,0.0,0.0,0.0,0.0,0.0,0.0,0.0,0.0,0.0,0.0,0.0,0.0,0.0,0.0,0.0,0.0,0.0,0.0,0.0,0.0,0.0,0.0,0.0,0.0,0.0,0.0,0.0,0.0,0.0,0.0,0.0,0.0,0.0,0.0,0.0,0.0,0.0,0.0,0.0,0.0,0.0,0.0,-1.7731,-1.7443,-1.7714,-1.7731,0.0,0.0,0.0,0.0,0.0,0.0,0.0,0.0,0.0,0.0,0.0,0.0,0.0,0.0,0.0,0.0,0.0,0.0,0.0,0.0,0.0,0.0,0.0,0.0,0.0,0.0,0.0,0.0,0.0,0.0,0.0,0.0,0.0,0.0,0.0,0.0,0.0,0.0,0.0,0.0,0.0,0.0,0.0,0.0,0.0,0.0,0.0,0.0,0.0,0.0,0.0,0.0,0.0,0.0,0.0,0.0,0.0,0.0,0.0,0.0,0.0,0.0,0.0,0.0,0.0,0.0,0.0,0.0,0.0,0.0,0.0,0.0,0.0,0.0,0.0,0.0,0.0,0.0,0.0,0.0,0.0,0.0,0.0,0.0,0.0,0.0,0.0,0.0,0.0,0.0,0.0,0.0,0.0,0.0,0.0,0.0,0.0,0.0,0.0,0.0,0.0,0.0,0.0,0.0,0.0,0.0,0.0,0.0,0.0,0.0,-1.7833,-1.7789,-1.7789,-1.7789,-1.7597,-1.7202,0.0,0.0,0.0,0.0,0.0,0.0,0.0,0.0,0.0,0.0,0.0,0.0,0.0,0.0,0.0,0.0,0.0,0.0,0.0,0.0,0.0,0.0,0.0,0.0,0.0,0.0,0.0,0.0,0.0,0.0,0.0,0.0,0.0,0.0,0.0,0.0,0.0,0.0,0.0,0.0,0.0,0.0,0.0,0.0,0.0,0.0,0.0,0.0,0.0,0.0,0.0,0.0,0.0,0.0,0.0,0.0,0.0,0.0,0.0,0.0,0.0,0.0,0.0,0.0,0.0,0.0,0.0,0.0,0.0,0.0,0.0,0.0,0.0,0.0,0.0,0.0,0.0,0.0,0.0,0.0,0.0,0.0,0.0,0.0,0.0,0.0,0.0,0.0,0.0,0.0,0.0,0.0,0.0,0.0,0.0,0.0,0.0,0.0,0.0,0.0,0.0,0.0,0.0,0.0,0.0,0.0,0.0,0.0,-1.78,-1.78,-1.7789,-1.7789,-1.7789,-1.7141,0.0,0.0,0.0,0.0,0.0,0.0,0.0,0.0,0.0,0.0,0.0,0.0,0.0,0.0,0.0,0.0,0.0,0.0,0.0,0.0,0.0,0.0,0.0,0.0,0.0,0.0,0.0,0.0,0.0,0.0,0.0,0.0,0.0,0.0,0.0,0.0,0.0,0.0,0.0,0.0,0.0,0.0,0.0,0.0,0.0,0.0,0.0,0.0,0.0,0.0,0.0,0.0,0.0,0.0,0.0,0.0,0.0,0.0,0.0,0.0,0.0,0.0,0.0,0.0,0.0,0.0,0.0,0.0,0.0,0.0,0.0,0.0,0.0,0.0,0.0,0.0,0.0,0.0,0.0,0.0,0.0,0.0,0.0,0.0,0.0,0.0,0.0,0.0,0.0,0.0,0.0,0.0,0.0,0.0,0.0,0.0,0.0,0.0,0.0,0.0,0.0,0.0,0.0,0.0,0.0,0.0,0.0,0.0,0.0,-1.7783,-1.7789,-1.7789,-1.7789,-1.7789,-1.7535,0.0,0.0,0.0,0.0,0.0,0.0,0.0,0.0,0.0,0.0,0.0,0.0,0.0,0.0,0.0,0.0,0.0,0.0,0.0,0.0,0.0,0.0,0.0,0.0,0.0,0.0,0.0,0.0,0.0,0.0,0.0,0.0,0.0,0.0,0.0,0.0,0.0,0.0,0.0,0.0,0.0,0.0,0.0,0.0,0.0,0.0,0.0,0.0,0.0,0.0,0.0,0.0,0.0,0.0,0.0,0.0,0.0,0.0,0.0,0.0,0.0,0.0,0.0,0.0,0.0,0.0,0.0,0.0,0.0,0.0,0.0,0.0,0.0,0.0,0.0,0.0,0.0,0.0,0.0,0.0,0.0,0.0,0.0,0.0,0.0,0.0,0.0,0.0,0.0,0.0,0.0,0.0,0.0,0.0,0.0,0.0,0.0,0.0,0.0,0.0,0.0,0.0,0.0,0.0,0.0,0.0,0.0,0.0,0.0,-1.7727,0.0,-1.7772,-1.7789,-1.7772,-1.7631,0.0,0.0,0.0,0.0,0.0,0.0,0.0,0.0,0.0,0.0,0.0,0.0,0.0,0.0,0.0,0.0,0.0,0.0,0.0,0.0,0.0,0.0,0.0,0.0,0.0,0.0,0.0,0.0,0.0,0.0,0.0,0.0,0.0,0.0,0.0,0.0,0.0,0.0,0.0,0.0,0.0,0.0,0.0,0.0,0.0,0.0,0.0,0.0,0.0,0.0,0.0,0.0,0.0,0.0,0.0,0.0,0.0,0.0,0.0,0.0,0.0,0.0,0.0,0.0,0.0,0.0,0.0,0.0,0.0,0.0,0.0,0.0,0.0,0.0,0.0,0.0,0.0,0.0,0.0,0.0,0.0,0.0,0.0,0.0,0.0,0.0,0.0,0.0,0.0,0.0,0.0,0.0,0.0,0.0,0.0,0.0,0.0,0.0,0.0,0.0,0.0,0.0,0.0,0.0,0.0,0.0,0.0,0.0,-1.7635,-1.7715,-1.7732,-1.7788,-1.7805,-1.7777,-1.7384,0.0,0.0,0.0,0.0,0.0,0.0,0.0,0.0,0.0,0.0,0.0,0.0,0.0,0.0,0.0,0.0,0.0,0.0,0.0,0.0,0.0,0.0,0.0,0.0,0.0,0.0,0.0,0.0,0.0,0.0,0.0,0.0,0.0,0.0,0.0,0.0,0.0,0.0,0.0,0.0,0.0,0.0,0.0,0.0,0.0,0.0,0.0,0.0,0.0,0.0,0.0,0.0,0.0,0.0,0.0,0.0,0.0,0.0,0.0,0.0,0.0,0.0,0.0,0.0,0.0,0.0,0.0,0.0,0.0,0.0,0.0,0.0,0.0,0.0,0.0,0.0,0.0,0.0,0.0,0.0,0.0,0.0,0.0,0.0,0.0,0.0,0.0,0.0,0.0,0.0,0.0,0.0,0.0,0.0,0.0,0.0,0.0,0.0,0.0,0.0,0.0,0.0,0.0,0.0,0.0,0.0,0.0,0.0,0.0,-1.8365,-1.8394,-1.8389,-1.8418,-1.8406,-1.8019,0.0,0.0,0.0,0.0,0.0,0.0,0.0,0.0,0.0,0.0,0.0,0.0,0.0,0.0,0.0,0.0,0.0,0.0,0.0,0.0,0.0,0.0,0.0,0.0,0.0,0.0,0.0,0.0,0.0,0.0,0.0,0.0,0.0,0.0,0.0,0.0,0.0,0.0,0.0,0.0,0.0,0.0,0.0,0.0,0.0,0.0,0.0,0.0,0.0,0.0,0.0,0.0,0.0,0.0,0.0,0.0,0.0,0.0,0.0,0.0,0.0,0.0,0.0,0.0,0.0,0.0,0.0,0.0,0.0,0.0,0.0,0.0,0.0,0.0,0.0,0.0,0.0,0.0,0.0,0.0,0.0,0.0,0.0,0.0,0.0,0.0,0.0,0.0,0.0,0.0,0.0,0.0,0.0,0.0,0.0,0.0,0.0,0.0,0.0,0.0,0.0,0.0,0.0,0.0,0.0,0.0,0.0,0.0,0.0,-2.0317,-1.994,-1.9717,-1.973,-1.9452,-1.8866,-1.7945,0.0,0.0,0.0,0.0,0.0,0.0,0.0,0.0,0.0,0.0,0.0,0.0,0.0,0.0,0.0,0.0,0.0,0.0,0.0,0.0,0.0,0.0,0.0,0.0,0.0,0.0,0.0,0.0,0.0,0.0,0.0,0.0,0.0,0.0,0.0,0.0,0.0,0.0,0.0,0.0,0.0,0.0,0.0,0.0,0.0,0.0,0.0,0.0,0.0,0.0,0.0,0.0,0.0,0.0,0.0,0.0,0.0,0.0,0.0,0.0,0.0,0.0,0.0,0.0,0.0,0.0,0.0,0.0,0.0,0.0,0.0,0.0,0.0,0.0,0.0,0.0,0.0,0.0,0.0,0.0,0.0,0.0,0.0,0.0,0.0,0.0,0.0,0.0,0.0,0.0,0.0,0.0,0.0,0.0,0.0,0.0,0.0,0.0,0.0,0.0,0.0,0.0,0.0,0.0,0.0,0.0,0.0,0.0,-2.3298,-2.2312,-2.1761,-2.1677,-2.0916,-1.9909,0.0,0.0,0.0,0.0,0.0,0.0,0.0,0.0,0.0,0.0,0.0,0.0,0.0,0.0,0.0,0.0,0.0,0.0,0.0,0.0,0.0,0.0,0.0,0.0,0.0,0.0,0.0,0.0,0.0,0.0,0.0,0.0,0.0,0.0,0.0,0.0,0.0,0.0,0.0,0.0,0.0,0.0,0.0,0.0,0.0,0.0,0.0,0.0,0.0,0.0,0.0,0.0,0.0,0.0,0.0,0.0,0.0,0.0,0.0,0.0,0.0,0.0,0.0,0.0,0.0,0.0,0.0,0.0,0.0,0.0,0.0,0.0,0.0,0.0,0.0,0.0,0.0,0.0,0.0,0.0,0.0,0.0,0.0,0.0,0.0,0.0,0.0,0.0,0.0,0.0,0.0,0.0,0.0,0.0,0.0,0.0,0.0,0.0,0.0,0.0,0.0,0.0,0.0,0.0,0.0,0.0,0.0,0.0,0.0,-2.5069,-2.5746,-2.5433,-2.4119,-2.3114,-2.1486,0.0,0.0,0.0,0.0,0.0,0.0,0.0,0.0,0.0,0.0,0.0,0.0,0.0,0.0,0.0,0.0,0.0,0.0,0.0,0.0,0.0,0.0,0.0,0.0,0.0,0.0,0.0,0.0,0.0,0.0,0.0,0.0,0.0,0.0,0.0,0.0,0.0,0.0,0.0,0.0,0.0,0.0,0.0,0.0,0.0,0.0,0.0,0.0,0.0,0.0,0.0,0.0,0.0,0.0,0.0,0.0,0.0,0.0,0.0,0.0,0.0,0.0,0.0,0.0,0.0,0.0,0.0,0.0,0.0,0.0,0.0,0.0,0.0,0.0,0.0,0.0,0.0,0.0,0.0,0.0,0.0,0.0,0.0,0.0,0.0,0.0,0.0,0.0,0.0,0.0,0.0,0.0,0.0,0.0,0.0,0.0,0.0,0.0,0.0,0.0,0.0,0.0,0.0,0.0,0.0,0.0,0.0,0.0,-2.2984,-2.6215,-2.7976,-2.8466,-2.7724,-2.5314,-2.2771,0.0,0.0,0.0,0.0,0.0,0.0,0.0,0.0,0.0,0.0,0.0,0.0,0.0,0.0,0.0,0.0,0.0,0.0,0.0,0.0,0.0,0.0,0.0,0.0,0.0,0.0,0.0,0.0,0.0,0.0,0.0,0.0,0.0,0.0,0.0,0.0,0.0,0.0,0.0,0.0,0.0,0.0,0.0,0.0,0.0,0.0,0.0,0.0,0.0,0.0,0.0,0.0,0.0,0.0,0.0,0.0,0.0,0.0,0.0,0.0,0.0,0.0,0.0,0.0,0.0,0.0,0.0,0.0,0.0,0.0,0.0,0.0,0.0,0.0,0.0,0.0,0.0,0.0,0.0,0.0,0.0,0.0,0.0,0.0,0.0,0.0,0.0,0.0,0.0,0.0,0.0,0.0,0.0,0.0,0.0,0.0,0.0,0.0,0.0,0.0,0.0,0.0,0.0,0.0,0.0,0.0,0.0,0.0,-2.3547,-2.6923,-2.9283,-3.0797,-3.1255,-2.7389,-2.403,0.0,0.0,0.0,0.0,0.0,0.0,0.0,0.0,0.0,0.0,0.0,0.0,0.0,0.0,0.0,0.0,0.0,0.0,0.0,0.0,0.0,0.0,0.0,0.0,0.0,0.0,0.0,0.0,0.0,0.0,0.0,0.0,0.0,0.0,0.0,0.0,0.0,0.0,0.0,0.0,0.0,0.0,0.0,0.0,0.0,0.0,0.0,0.0,0.0,0.0,0.0,0.0,0.0,0.0,0.0,0.0,0.0,0.0,0.0,0.0,0.0,0.0,0.0,0.0,0.0,0.0,0.0,0.0,0.0,0.0,0.0,0.0,0.0,0.0,0.0,0.0,0.0,0.0,0.0,0.0,0.0,0.0,0.0,0.0,0.0,0.0,0.0,0.0,0.0,0.0,0.0,0.0,0.0,0.0,0.0,0.0,0.0,0.0,0.0,0.0,0.0,0.0,0.0,0.0,0.0,0.0,0.0,0.0,-2.4883,-2.8132,-3.0145,-3.1259,-3.1393,-2.8826,-2.5871,0.0,0.0,0.0,0.0,0.0,0.0,0.0,0.0,0.0,0.0,0.0,0.0,0.0,0.0,0.0,0.0,0.0,0.0,0.0,0.0,0.0,0.0,0.0,0.0,0.0,0.0,0.0,0.0,0.0,0.0,0.0,0.0,0.0,0.0,0.0,0.0,0.0,0.0,0.0,0.0,0.0,0.0,0.0,0.0,0.0,0.0,0.0,0.0,-1.3235,0.0,0.0,0.0,0.0,0.0,0.0,0.0,0.0,0.0,0.0,0.0,0.0,0.0,0.0,0.0,0.0,0.0,0.0,0.0,0.0,0.0,0.0,0.0,0.0,0.0,0.0,0.0,0.0,0.0,0.0,0.0,0.0,0.0,0.0,0.0,0.0,0.0,0.0,0.0,0.0,0.0,0.0,0.0,0.0,0.0,0.0,0.0,0.0,0.0,0.0,0.0,0.0,0.0,0.0,0.0,0.0,0.0,0.0,0.0,-2.5034,-2.7611,-2.9496,-3.0612,-3.0839,-2.8677,-2.5953,0.0,0.0,0.0,0.0,0.0,0.0,0.0,0.0,0.0,0.0,0.0,0.0,0.0,0.0,0.0,0.0,0.0,0.0,0.0,0.0,0.0,0.0,0.0,0.0,0.0,0.0,0.0,0.0,0.0,0.0,0.0,0.0,0.0,0.0,0.0,0.0,0.0,0.0,0.0,0.0,0.0,0.0,0.0,0.0,0.0,0.0,0.0,0.0,0.0,0.0,0.0,0.0,0.0,0.0,0.0,0.0,0.0,0.0,0.0,0.0,0.0,0.0,0.0,0.0,0.0,0.0,0.0,0.0,0.0,0.0,0.0,0.0,0.0,0.0,0.0,0.0,0.0,0.0,0.0,0.0,0.0,0.0,0.0,0.0,0.0,0.0,0.0,0.0,0.0,0.0,0.0,0.0,0.0,0.0,0.0,0.0,0.0,0.0,0.0,0.0,0.0,0.0,0.0,0.0,0.0,0.0,0.0,-2.2605,-2.4851,-2.6703,-2.8576,-2.9725,-3.0033,-2.7852,-2.5331,-2.2521,0.0,0.0,0.0,0.0,0.0,0.0,0.0,0.0,0.0,0.0,0.0,0.0,0.0,0.0,0.0,0.0,0.0,0.0,0.0,0.0,0.0,0.0,0.0,0.0,0.0,0.0,0.0,0.0,0.0,0.0,0.0,0.0,0.0,0.0,0.0,0.0,0.0,0.0,-1.3504,-1.2968,0.0,0.0,0.0,0.0,0.0,0.0,0.0,0.0,-1.2075,0.0,0.0,0.0,0.0,0.0,0.0,0.0,0.0,0.0,0.0,0.0,0.0,0.0,0.0,0.0,0.0,0.0,0.0,0.0,0.0,0.0,0.0,0.0,0.0,0.0,0.0,0.0,0.0,0.0,0.0,0.0,0.0,0.0,0.0,0.0,0.0,0.0,0.0,0.0,0.0,0.0,0.0,0.0,0.0,0.0,0.0,0.0,0.0,0.0,0.0,0.0,0.0,0.0,0.0,0.0,0.0,-2.0571,-2.3258,-2.5493,-2.7226,-2.9212,-2.9756,-2.875,-2.7242,-2.491,-2.1786,0.0,0.0,0.0,0.0,0.0,0.0,0.0,0.0,0.0,0.0,0.0,0.0,0.0,0.0,0.0,0.0,0.0,0.0,0.0,0.0,0.0,0.0,0.0,0.0,0.0,0.0,0.0,0.0,0.0,0.0,0.0,0.0,0.0,0.0,0.0,0.0,0.0,0.0,0.0,-1.2143,-1.1802,0.0,0.0,0.0,0.0,0.0,0.0,0.0,0.0,-1.1871,0.0,0.0,0.0,0.0,0.0,0.0,0.0,0.0,0.0,0.0,0.0,0.0,0.0,0.0,0.0,0.0,0.0,0.0,0.0,0.0,0.0,0.0,0.0,0.0,0.0,0.0,0.0,0.0,0.0,0.0,0.0,0.0,0.0,0.0,0.0,0.0,0.0,0.0,0.0,0.0,0.0,0.0,0.0,0.0,0.0,0.0,0.0,0.0,0.0,0.0,0.0,0.0,0.0,0.0,0.0,-2.0708,-2.3318,-2.5222,-2.6303,-2.7965,-2.8365,-2.738,-2.5716,-2.3752,0.0,0.0,0.0,0.0,0.0,0.0,0.0,0.0,0.0,0.0,0.0,0.0,0.0,0.0,0.0,0.0,0.0,0.0,0.0,0.0,0.0,0.0,0.0,0.0,0.0,0.0,0.0,0.0,0.0,0.0,0.0,0.0,0.0,0.0,0.0,0.0,0.0,0.0,0.0,0.0,-1.1776,-1.1482,-1.1442,0.0,0.0,0.0,0.0,0.0,0.0,-1.2364,-1.253,0.0,0.0,0.0,0.0,0.0,0.0,0.0,0.0,0.0,0.0,0.0,0.0,0.0,0.0,0.0,0.0,0.0,0.0,0.0,0.0,0.0,0.0,0.0,0.0,0.0,0.0,0.0,0.0,0.0,0.0,0.0,0.0,0.0,0.0,0.0,0.0,0.0,0.0,0.0,0.0,0.0,0.0,0.0,0.0,0.0,0.0,0.0,0.0,0.0,0.0,0.0,0.0,0.0,0.0,0.0,-2.0845,-2.316,-2.4653,-2.5318,-2.6534,-2.6795,-2.598,-2.4153,-2.2473,0.0,0.0,0.0,0.0,0.0,0.0,0.0,0.0,0.0,0.0,0.0,0.0,0.0,0.0,0.0,0.0,0.0,0.0,0.0,0.0,0.0,0.0,0.0,0.0,0.0,0.0,0.0,0.0,0.0,0.0,0.0,0.0,0.0,0.0,0.0,0.0,0.0,0.0,0.0,0.0,0.0,-1.1428,-1.1612,-1.2387,0.0,0.0,0.0,0.0,-1.3122,-1.304,0.0,0.0,0.0,0.0,0.0,0.0,0.0,0.0,0.0,0.0,0.0,0.0,0.0,0.0,0.0,0.0,0.0,0.0,0.0,0.0,0.0,0.0,0.0,0.0,0.0,0.0,0.0,0.0,0.0,0.0,0.0,0.0,0.0,0.0,0.0,0.0,0.0,0.0,0.0,0.0,0.0,0.0,0.0,0.0,0.0,0.0,0.0,0.0,0.0,0.0,0.0,0.0,0.0,0.0,0.0,0.0,-2.1436,-2.2835,-2.4112,-2.5272,-2.6087,-2.5887,-2.4579,-2.3167,-2.1538,0.0,0.0,0.0,0.0,0.0,0.0,0.0,0.0,0.0,0.0,0.0,0.0,0.0,0.0,0.0,0.0,0.0,0.0,0.0,0.0,0.0,0.0,0.0,0.0,0.0,0.0,0.0,0.0,0.0,0.0,0.0,0.0,0.0,0.0,0.0,0.0,0.0,0.0,0.0,0.0,0.0,-1.1595,-1.2577,-1.2839,-1.2891,0.0,0.0,0.0,-1.3608,-1.3591,0.0,0.0,0.0,0.0,0.0,0.0,0.0,0.0,0.0,0.0,0.0,0.0,0.0,0.0,0.0,0.0,0.0,0.0,0.0,0.0,0.0,0.0,0.0,0.0,0.0,0.0,0.0,0.0,0.0,0.0,0.0,0.0,0.0,0.0,0.0,0.0,0.0,0.0,0.0,0.0,0.0,0.0,0.0,0.0,0.0,0.0,0.0,0.0,0.0,0.0,0.0,0.0,0.0,0.0,0.0,-1.9578,-2.1492,-2.267,-2.3759,-2.4702,-2.5056,-2.4733,-2.3763,-2.2108,-2.0615,0.0,0.0,0.0,0.0,0.0,0.0,0.0,0.0,0.0,0.0,0.0,0.0,0.0,0.0,0.0,0.0,0.0,0.0,0.0,0.0,0.0,0.0,0.0,0.0,0.0,0.0,0.0,0.0,0.0,0.0,0.0,0.0,0.0,0.0,0.0,0.0,0.0,0.0,0.0,0.0,0.0,0.0,-1.3278,-1.3363,0.0,0.0,0.0,-1.3788,-1.4094,0.0,0.0,0.0,0.0,0.0,0.0,0.0,0.0,0.0,0.0,0.0,0.0,0.0,0.0,0.0,0.0,0.0,0.0,0.0,0.0,0.0,0.0,0.0,0.0,0.0,0.0,0.0,0.0,0.0,0.0,0.0,0.0,0.0,0.0,0.0,0.0,0.0,0.0,0.0,0.0,0.0,0.0,0.0,0.0,0.0,0.0,0.0,0.0,0.0,0.0,0.0,0.0,0.0,0.0,0.0,0.0,0.0,-2.1667,-2.249,-2.333,-2.423,-2.4128,-2.3733,-2.3025,-2.1173,0.0,0.0,0.0,0.0,0.0,0.0,0.0,0.0,0.0,0.0,0.0,0.0,0.0,0.0,0.0,0.0,0.0,0.0,0.0,0.0,0.0,0.0,0.0,0.0,0.0,0.0,0.0,-1.1649,0.0,0.0,0.0,0.0,0.0,0.0,0.0,0.0,0.0,0.0,0.0,0.0,0.0,0.0,-1.3094,-1.4003,-1.3839,-1.3581,0.0,0.0,-1.4159,-1.4356,-1.5057,-1.561,0.0,0.0,0.0,0.0,0.0,0.0,0.0,0.0,0.0,0.0,0.0,0.0,0.0,0.0,0.0,0.0,0.0,0.0,0.0,0.0,0.0,0.0,0.0,0.0,0.0,0.0,0.0,0.0,0.0,0.0,0.0,0.0,0.0,0.0,0.0,0.0,0.0,0.0,0.0,0.0,0.0,0.0,0.0,0.0,0.0,0.0,0.0,0.0,0.0,0.0,0.0,0.0,0.0,0.0,0.0,-2.2166,-2.2144,-2.2787,-2.4126,-2.3661,-2.304,-2.2347,-2.0428,-1.9039,0.0,0.0,0.0,0.0,0.0,0.0,0.0,0.0,0.0,0.0,0.0,0.0,0.0,0.0,0.0,0.0,0.0,0.0,0.0,0.0,0.0,0.0,0.0,0.0,0.0,0.0,0.0,0.0,0.0,0.0,0.0,0.0,0.0,0.0,0.0,0.0,0.0,0.0,0.0,0.0,0.0,-1.3233,-1.4882,-1.4202,-1.3497,0.0,0.0,-1.3711,-1.4218,-1.4726,-1.511,-1.5286,0.0,0.0,0.0,0.0,0.0,0.0,0.0,0.0,0.0,0.0,0.0,0.0,0.0,0.0,0.0,0.0,0.0,0.0,0.0,0.0,0.0,0.0,0.0,0.0,0.0,0.0,0.0,0.0,0.0,0.0,0.0,0.0,0.0,0.0,0.0,0.0,0.0,0.0,0.0,0.0,0.0,0.0,0.0,0.0,0.0,0.0,0.0,0.0,0.0,0.0,0.0,0.0,0.0,-2.0275,-2.2274,-2.2017,-2.2394,-2.3396,-2.2822,-2.2194,-2.1562,-1.9582,-1.8388,0.0,0.0,0.0,0.0,0.0,0.0,0.0,0.0,0.0,0.0,0.0,0.0,0.0,0.0,0.0,0.0,0.0,0.0,0.0,0.0,0.0,0.0,0.0,0.0,0.0,0.0,0.0,0.0,-1.2184,-1.2278,-1.2615,0.0,0.0,0.0,0.0,0.0,0.0,0.0,0.0,0.0,0.0,-1.4139,-1.4628,-1.4264,0.0,0.0,-1.3683,-1.3808,-1.3594,-1.45,-1.5081,-1.457,-1.5045,0.0,0.0,0.0,0.0,0.0,0.0,0.0,0.0,0.0,0.0,0.0,0.0,0.0,0.0,0.0,0.0,0.0,0.0,0.0,0.0,0.0,0.0,0.0,0.0,0.0,0.0,0.0,0.0,0.0,0.0,0.0,0.0,0.0,0.0,0.0,0.0,0.0,0.0,0.0,0.0,0.0,0.0,0.0,0.0,0.0,0.0,0.0,0.0,0.0,0.0,0.0,0.0,-2.0422,-2.2137,-2.1905,-2.2284,-2.3212,-2.2414,-2.1805,-2.1328,-1.9372,-1.823,0.0,0.0,0.0,0.0,0.0,0.0,0.0,0.0,0.0,0.0,0.0,0.0,0.0,0.0,0.0,0.0,0.0,0.0,0.0,0.0,0.0,0.0,0.0,0.0,0.0,0.0,0.0,0.0,-1.2651,-1.2786,-1.3142,0.0,0.0,0.0,0.0,0.0,0.0,0.0,0.0,0.0,0.0,-1.4613,-1.4714,-1.4348,-1.3991,-1.3729,-1.3939,-1.402,-1.3729,-1.454,-1.5033,-1.4431,0.0,0.0,0.0,0.0,0.0,0.0,0.0,0.0,0.0,0.0,0.0,0.0,0.0,0.0,0.0,0.0,0.0,0.0,0.0,0.0,0.0,0.0,0.0,0.0,0.0,0.0,0.0,0.0,0.0,0.0,0.0,0.0,0.0,0.0,0.0,0.0,0.0,0.0,0.0,0.0,0.0,0.0,0.0,0.0,0.0,0.0,0.0,0.0,0.0,0.0,0.0,0.0,0.0,0.0,-2.1792,-2.1807,-2.242,-2.3682,-2.2601,-2.1963,-2.1903,-2.0003,-1.8668,-1.8001,0.0,0.0,0.0,0.0,0.0,0.0,0.0,0.0,0.0,0.0,0.0,0.0,0.0,0.0,0.0,0.0,0.0,0.0,0.0,0.0,0.0,0.0,0.0,0.0,0.0,0.0,-1.3352,-1.3118,-1.2982,0.0,0.0,0.0,0.0,0.0,0.0,0.0,0.0,0.0,0.0,-1.4694,-1.4475,-1.531,-1.4469,-1.3907,-1.4279,-1.4245,-1.4365,-1.4809,-1.4857,-1.4867,0.0,0.0,0.0,0.0,0.0,0.0,0.0,0.0,0.0,0.0,0.0,0.0,0.0,0.0,0.0,0.0,0.0,0.0,0.0,0.0,0.0,0.0,0.0,0.0,0.0,0.0,0.0,0.0,-2.2252,0.0,0.0,0.0,0.0,0.0,0.0,0.0,0.0,0.0,0.0,0.0,-2.126,-2.1381,0.0,0.0,0.0,0.0,0.0,0.0,0.0,0.0,0.0,0.0,0.0,0.0,-2.0625,-2.1747,-2.1759,-2.2159,-2.302,-2.2229,-2.1607,-2.1212,-1.965,-1.8487,-1.7824,0.0,0.0,0.0,0.0,0.0,0.0,0.0,0.0,0.0,0.0,0.0,0.0,0.0,0.0,0.0,0.0,0.0,0.0,0.0,0.0,0.0,0.0,0.0,0.0,0.0,-1.4154,0.0,0.0,0.0,0.0,0.0,0.0,0.0,0.0,0.0,0.0,0.0,-1.4955,-1.4955,-1.5204,-1.5221,-1.4829,-1.4728,-1.4542,0.0,0.0,0.0,0.0,0.0,0.0,0.0,0.0,0.0,0.0,0.0,0.0,0.0,0.0,-1.3488,-1.3306,-1.2992,-1.2754,-1.2699,0.0,0.0,0.0,0.0,0.0,0.0,0.0,0.0,0.0,0.0,0.0,0.0,0.0,0.0,0.0,0.0,-2.368,0.0,0.0,0.0,0.0,0.0,0.0,0.0,0.0,-2.2645,-2.3364,-2.3682,-2.3585,-2.3363,0.0,-2.212,-2.1388,0.0,0.0,0.0,0.0,0.0,0.0,0.0,0.0,-2.0737,-2.1718,-2.1959,-2.2373,-2.2957,-2.2158,-2.1524,-2.1083,-1.9543,-1.8508,-1.8041,-1.735,-1.693,0.0,0.0,0.0,0.0,0.0,0.0,0.0,0.0,0.0,0.0,0.0,0.0,0.0,0.0,0.0,0.0,0.0,0.0,0.0,0.0,0.0,0.0,0.0,-1.4396,0.0,0.0,0.0,0.0,0.0,0.0,0.0,0.0,0.0,-1.494,-1.5208,-1.5327,-1.5176,-1.551,-1.556,-1.494,0.0,0.0,0.0,0.0,0.0,0.0,0.0,-1.4819,-1.4832,-1.4731,-1.4717,-1.4838,-1.4588,-1.4233,-1.3905,0.0,0.0,-1.3507,-1.3199,-1.2935,-1.2945,-1.3027,-1.2994,-1.2759,-1.2918,-1.3094,0.0,0.0,0.0,0.0,0.0,0.0,0.0,0.0,-2.4968,-2.531,0.0,-2.5227,0.0,0.0,0.0,0.0,0.0,0.0,0.0,0.0,-2.5783,-2.7161,-2.728,-2.6074,-2.5702,-2.6085,-2.4884,-2.4254,-2.403,-2.1024,0.0,0.0,0.0,0.0,0.0,0.0,-2.1051,-2.1739,-2.2358,-2.2972,-2.349,-2.2338,-2.1665,-2.1545,-1.972,-1.8702,-1.8717,-1.8021,-1.763,-1.763,-1.6906,0.0,0.0,0.0,0.0,0.0,0.0,0.0,0.0,0.0,0.0,0.0,0.0,0.0,0.0,0.0,0.0,0.0,0.0,0.0,0.0,-1.4954,0.0,0.0,0.0,0.0,0.0,0.0,0.0,0.0,0.0,0.0,-1.5434,-1.5426,-1.5556,-1.5937,0.0,0.0,0.0,0.0,-1.518,-1.5681,-1.571,-1.5772,-1.607,-1.592,-1.5712,-1.562,0.0,0.0,-1.519,-1.5065,-1.4977,-1.5122,-1.4246,-1.3412,-1.3016,-1.307,-1.3148,-1.3134,-1.3016,-1.2886,-1.2876,-1.288,-1.2905,-3.2615,0.0,0.0,0.0,0.0,-2.8472,-2.887,-2.9279,-2.9976,-2.9702,-2.8715,-2.822,0.0,0.0,0.0,0.0,0.0,0.0,-2.5183,-2.6246,-2.7449,-2.811,-2.8324,-2.846,-2.8293,-2.7836,-2.7028,-2.6133,-2.5161,-2.376,-2.2591,-2.162,0.0,0.0,0.0,0.0,-2.1256,-2.2343,-2.2598,-2.2778,-2.2957,-2.2128,-2.125,-2.0307,-1.9256,-1.8909,-1.9393,-1.8745,-1.8367,-1.8302,-1.8087,0.0,0.0,0.0,0.0,0.0,0.0,0.0,0.0,0.0,0.0,0.0,0.0,0.0,0.0,0.0,0.0,0.0,0.0,0.0,-1.4379,-1.4519,-1.4646,0.0,0.0,0.0,0.0,0.0,0.0,0.0,0.0,0.0,-1.5979,-1.5877,-1.5862,0.0,0.0,-1.5602,-1.5568,-1.5194,-1.5017,-1.5283,0.0,0.0,0.0,-1.5502,-1.5604,-1.5791,-1.54,-1.5049,-1.5049,-1.4754,-1.45,-1.4561,-1.4293,-1.3913,-1.347,-1.2949,-1.2672,-1.2626,-1.2756,-1.2788,-1.25,-1.2646,-1.2915,-3.6732,-3.4755,-3.225,-3.1207,-3.1203,-3.1555,-3.1884,-3.2227,-3.2625,-3.215,-3.1087,-3.0936,-2.9521,-2.7163,-2.59,0.0,0.0,0.0,-2.7252,-2.8205,-2.911,-2.9663,-2.9919,-3.0084,-2.9895,-2.934,-2.8697,-2.7974,-2.7171,-2.6243,-2.5152,-2.3846,0.0,0.0,-2.1154,-2.1331,-2.1814,-2.2673,-2.2942,-2.2942,-2.2703,-2.1769,-2.0782,-1.9735,-1.9301,-1.9286,-1.9678,-1.9301,-1.9074,-1.9039,-1.8768,-1.8174,0.0,0.0,0.0,0.0,0.0,0.0,0.0,0.0,0.0,0.0,0.0,-1.5424,0.0,0.0,0.0,0.0,-1.5339,-1.51,-1.4875,-1.5082,0.0,0.0,0.0,0.0,0.0,0.0,0.0,-1.573,-1.5991,-1.62,-1.62,-1.6144,-1.6088,-1.6066,-1.5969,-1.577,-1.5401,0.0,-1.5119,-1.5053,-1.4947,-1.4996,-1.5251,-1.5284,-1.5363,-1.553,-1.5236,-1.5023,-1.4987,-1.4759,-1.4593,-1.4562,-1.4438,-1.4221,-1.3941,-1.328,-1.2769,-1.2732,-1.2819,-1.2798,-1.2515,-1.2695,-1.2915,-4.0024,-3.9741,-3.5977,-3.4252,-3.4031,-3.3977,-3.3876,-3.3778,-3.3846,-3.3431,-3.2781,-3.3309,-3.2415,-3.0353,-2.9412,0.0,0.0,-2.9243,-2.9745,-2.97,-3.08,-3.1521,-3.1829,-3.1166,-3.0764,-3.0567,-3.0041,-2.9699,-2.9592,-2.8408,-2.745,-2.6617,-2.4164,-2.2584,-2.1974,-2.2369,-2.2667,-2.2868,-2.334,-2.3266,-2.2613,-2.1306,-2.0333,-1.9723,-1.9723,-1.9708,-1.9723,-1.9708,-1.9723,-1.9693,-1.9054,-1.8661,-1.8554,0.0,0.0,0.0,0.0,0.0,0.0,0.0,0.0,0.0,0.0,0.0,0.0,0.0,0.0,0.0,-1.6287,0.0,-1.6158,-1.6138,0.0,0.0,0.0,-1.5976,-1.6437,-1.6457,-1.6362,-1.6222,0.0,0.0,0.0,0.0,-1.6222,-1.621,-1.6178,-1.5869,-1.5198,-1.5244,-1.5257,-1.492,-1.4873,-1.496,-1.5256,-1.5263,-1.5143,-1.5054,-1.4966,-1.4935,-1.4976,-1.4925,-1.4925,-1.4883,-1.4593,-1.4273,-1.4252,-1.3727,-1.3362,-1.3222,-1.3069,-1.2895,-1.2886,-1.2895,-1.2915,-4.1953,-4.1483,-4.0629,-3.8977,-3.6937,-3.7479,-3.7371,-3.6891,-3.7432,-3.6948,-3.5751,-3.5267,-3.3999,-3.2143,-3.1556,-3.1707,-3.2474,-3.2819,-3.319,-3.3476,-3.2701,-3.2415,-3.2537,-3.1701,-3.1314,-3.1241,-3.1107,-3.0806,-3.0298,-2.9953,-2.8966,-2.7405,-2.6707,-2.5546,-2.3947,-2.3543,-2.3596,-2.4126,-2.3789,-2.3056,-2.1949,-2.0617,-1.9872,-1.9723,-1.9723,-1.9723,-1.9723,-1.9723,-1.9723,-1.9708,-1.9525,-1.9176,-1.8614,-1.7739,0.0,0.0,0.0,0.0,0.0,0.0,0.0,0.0,0.0,-1.5843,-1.5431,0.0,-1.638,0.0,-1.6402,-1.6061,-1.5576,-1.546,0.0,0.0,-1.5835,-1.5989,-1.6459,-1.6479,-1.6436,-1.6349,-1.634,-1.634,-1.6349,-1.6349,-1.6383,-1.6414,-1.5901,-1.5445,-1.5243,-1.4709,-1.4464,-1.4654,-1.4542,-1.4595,-1.4966,-1.5065,-1.5018,-1.5023,-1.4697,-1.4583,-1.4925,-1.4697,-1.448,-1.4459,-1.4397,-1.4155,-1.3834,-1.3553,-1.3406,-1.3348,-1.32,-1.3027,-1.2929,-1.2905,-1.2915,-4.2126,-4.1486,-4.1362,-4.0358,-3.892,-3.9665,-3.9563,-3.892,-3.9292,-3.886,-3.7743,-3.6975,-3.6049,-3.5046,-3.4805,-3.4928,-3.538,-3.5344,-3.5171,-3.4739,-3.3681,-3.2974,-3.2585,-3.1849,-3.1496,-3.1496,-3.1496,-3.1301,-3.0928,-3.0657,-2.9804,-2.8498,-2.8199,-2.7335,-2.5944,-2.4687,-2.4231,-2.459,-2.3364,-2.2413,-2.168,-2.0397,-1.9723,-1.9723,-1.9723,-1.9723,-1.9723,-1.9723,-1.969,-1.9654,-1.965,-1.9435,-1.8972,-1.8246,-1.7578,0.0,0.0,0.0,0.0,0.0,0.0,0.0,0.0,0.0,0.0,0.0,-1.6605,0.0,-1.6564,0.0,-1.5959,-1.5873,-1.5927,-1.6094,-1.6099,-1.6204,-1.6484,-1.6513,-1.6479,-1.6457,-1.6436,-1.6457,-1.6436,-1.6457,-1.6457,-1.65,-1.5932,-1.5433,-1.5232,-1.4777,-1.4435,-1.4264,-1.4077,-1.4051,-1.433,-1.4386,-1.4386,-1.4341,-1.4169,-1.4086,-1.4335,-1.4169,-1.3969,-1.4003,-1.3993,-1.3921,-1.3638,-1.3539,-1.3457,-1.3396,-1.331,-1.3176,-1.3069,-1.3045,-1.3021,-4.1529,-4.0946,-4.0569,-4.0333,-4.0299,-4.0933,-4.0764,-4.0113,-4.0113,-3.974,-3.9089,-3.8362,-3.8091,-3.8176,-3.8091,-3.7833,-3.7435,-3.7257,-3.6417,-3.5101,-3.44,-3.3553,-3.2548,-3.2031,-3.1686,-3.1496,-3.1496,-3.1496,-3.1481,-3.0926,-3.0283,-2.9606,-2.9037,-2.8338,-2.7555,-2.5779,-2.4724,-2.4455,-2.2727,-2.1769,-2.1699,-2.0486,-1.9798,-1.9723,-1.9723,-1.9723,-1.9723,-1.9723,-1.9672,-1.9593,-1.9593,-1.9538,-1.9417,-1.8629,-1.8104,0.0,-1.7263,0.0,0.0,0.0,0.0,0.0,0.0,0.0,0.0,-1.6424,-1.6613,-1.6434,-1.6767,-1.6918,-1.6774,-1.6697,-1.6654,-1.6543,-1.6509,-1.6513,-1.6513,-1.6513,-1.6513,-1.6513,-1.6513,-1.6513,-1.65,-1.6513,-1.6513,-1.6479,-1.6173,-1.5712,-1.521,-1.4983,-1.4616,-1.3705,-1.361,-1.3683,-1.3693,-1.3662,-1.3662,-1.3641,-1.3662,-1.361,-1.3662,-1.3652,-1.3631,-1.3631,-1.3652,-1.3631,-1.361,-1.361,-1.3563,-1.3467,-1.342,-1.3372,-1.3242,-1.3194,-1.3218,-4.2048,-4.1987,-4.1931,-4.1525,-4.1018,-4.1153,-4.0781,-4.0113,-4.0113,-4.0028,-3.9842,-3.9123,-3.9148,-3.9622,-3.9056,-3.9007,-3.9336,-3.8785,-3.8054,-3.7281,-3.6559,-3.5264,-3.3578,-3.3364,-3.2652,-3.1539,-3.1496,-3.1496,-3.1496,-3.1376,-3.0746,-2.9636,-2.9487,-2.8813,-2.7615,0.0,0.0,0.0,-2.2957,-2.2254,-2.168,-2.0932,-2.0243,-1.9738,-1.9723,0.0,-1.9723,-1.9723,-1.9672,-1.9611,-1.9593,0.0,0.0,0.0,0.0,0.0,0.0,0.0,0.0,0.0,0.0,0.0,-1.6224,-1.6477,-1.6471,-1.695,-1.7179,-1.7042,-1.7021,-1.6981,-1.6939,-1.6803,-1.6697,-1.6675,-1.6556,-1.6513,-1.6513,-1.6513,-1.6513,-1.6513,-1.6513,-1.6513,-1.6513,-1.6513,-1.6513,-1.6513,-1.6436,-1.6032,-1.5187,-1.4789,-1.4326,-1.3716,-1.361,-1.361,-1.361,-1.361,-1.361,-1.361,-1.361,-1.361,-1.361,-1.361,-1.361,-1.361,-1.361,-1.361,-1.361,-1.361,-1.3586,-1.3563,-1.3563,-1.3491,-1.3266,-1.3218,-1.3218,-4.1721,0.0,-4.1178,-4.101,0.0,-4.0646,-4.0451,-4.0113,-4.0113,-4.0113,-4.0079,-3.9723,-3.9757,-4.0096,-3.9723,-3.9707,-3.9986,-3.9575,-3.9035,-3.8301,-3.7572,-3.6529,-3.5209,-3.418,-3.3481,-3.3067,-3.1998,-3.1675,-3.1959,-3.166,-3.0987,-3.0028,-2.9771,-2.9071,-2.8109,-2.7106,-2.5764,-2.4096,-2.3161,-2.2373,-2.171,-2.1066,-2.0393,-1.9738,0.0,0.0,0.0,0.0,0.0,0.0,0.0,0.0,0.0,0.0,0.0,-1.8223,-1.7777,-1.7279,-1.6755,-1.6976,-1.6957,-1.6547,-1.6731,-1.6929,-1.6996,-1.7179,-1.7253,-1.7115,-1.7031,-1.696,-1.6854,-1.6761,-1.6675,-1.6599,-1.6556,-1.6513,-1.6513,-1.6513,-1.6513,-1.6513,-1.6513,-1.6513,-1.6513,-1.6513,-1.6513,-1.6513,-1.6513,-1.6163,-1.53,-1.4903,-1.4478,-1.3752,-1.361,-1.361,-1.361,-1.361,-1.361,-1.361,-1.361,-1.361,-1.361,-1.361,-1.361,-1.361,-1.361,-1.361,-1.361,-1.361,-1.361,-1.361,-1.361,-1.3563,-1.342,-1.3396,-1.3386,-4.1047,-3.9969,-4.0045,-4.0113,-4.0113,-4.0113,-4.0113,-4.0113,0.0,0.0,0.0,-4.0113,-4.0113,-4.0113,-4.0113,-4.0113,-4.0096,-3.9986,-3.9531,-3.8815,-3.8341,-3.7616,-3.6664,-3.5176,-3.4535,-3.4656,-3.2918,-3.2239,-3.2512,-3.1958,-3.13,-3.0522,-2.9998,-2.9355,-2.8562,-2.7285,-2.6063,-2.4948,-2.3684,-2.2673,-2.1909,-2.1231,-2.0557,-1.9884,-1.9753,-1.9723,-1.9723,-1.9723,-1.9669,-1.9593,-1.9593,-1.9571,-1.9446,-1.8936,-1.8635,-1.8572,-1.8155,-1.7767,-1.7488,-1.7455,-1.7372,-1.7199,-1.7212,-1.7253,-1.735,-1.7274,-1.7157,-1.7031,-1.7044,-1.696,-1.6791,-1.6761,-1.6705,-1.6586,-1.6543,-1.6543,-1.6522,-1.6513,-1.6513,-1.6513,-1.6513,-1.6513,-1.6513,-1.6513,-1.6513,-1.6513,-1.6513,-1.6175,-1.5322,-1.488,-1.4432,-1.3763,-1.361,-1.361,-1.361,-1.361,-1.361,-1.361,-1.361,-1.361,-1.361,-1.361,-1.361,-1.361,-1.361,-1.361,-1.361,-1.361,-1.361,-1.361,-1.361,-1.361,-1.361,-1.361,-1.3597,-4.0273,-4.007,-4.0113,-4.0113,-4.0113,-4.0113,-4.0113,-4.0113,-4.0113,-4.0113,-4.0113,-4.0113,-4.0113,-4.0113,-4.0113,-4.0113,-4.0113,-4.007,-3.9673,0.0,-3.9514,-3.8698,-3.6851,-3.7206,-3.6491,-3.4945,-3.4444,-3.3732,-3.2839,-3.2481,-3.172,-3.067,-3.0417,-2.9774,-2.8592,-2.726,-2.6522,-2.6288,-2.4993,-2.3759,-2.2583,-2.1889,-2.1246,-2.0587,-1.9989,-1.9723,-1.9723,-1.9723,-1.9672,-1.9593,-1.9593,-1.9593,-1.9556,-1.9124,-1.8755,-1.8533,-1.8082,-1.7639,-1.7269,-1.724,-1.7227,-1.7212,-1.7212,-1.7212,-1.722,-1.722,-1.7178,-1.7157,-1.717,-1.7157,-1.7115,-1.7023,-1.6918,-1.6833,-1.6761,-1.6654,-1.6522,-1.65,-1.6513,-1.6513,-1.6513,-1.6513,-1.6513,-1.6513,-1.6513,-1.6513,-1.6457,-1.6154,-1.5277,-1.4362,-1.3823,-1.3644,-1.361,-1.361,-1.361,-1.361,-1.361,-1.361,-1.361,-1.361,-1.361,-1.361,-1.361,-1.361,-1.361,-1.361,-1.361,-1.361,-1.361,-1.361,-1.361,-1.361,-1.361,-1.361,-1.3539,-4.084,-4.013,-4.0113,-4.0113,-4.0113,-4.0113,-4.0113,-4.0113,-4.0113,-4.0113,-4.0113,-4.0113,-4.0113,-4.0113,-4.0113,-4.0113,-4.0113,-4.0113,-3.9926,-3.9639,-3.9943,-3.9573,-3.8614,-3.8181,-3.7514,-3.6568,-3.5628,-3.4906,-3.4327,-3.3479,-3.2848,-3.248,-3.1518,-3.0189,-2.8663,-2.7993,-2.732,-2.6587,-2.5277,-2.4126,-2.3212,-2.2583,-2.1774,-2.0733,-2.0393,-2.0064,-1.9723,-1.9723,-1.969,-1.965,-1.965,-1.9669,-1.965,-1.9591,-1.9243,-1.8576,-1.8952,-1.8631,-1.728,-1.7212,-1.7212,-1.7212,-1.7212,-1.7212,-1.7212,-1.7212,-1.7212,-1.7212,-1.7212,-1.7178,-1.7107,-1.7044,-1.6968,-1.691,-1.6795,-1.6675,-1.6633,-1.6543,-1.6513,-1.6513,-1.6513,-1.6513,-1.6513,-1.6513,-1.6513,-1.65,-1.6303,-1.5932,-1.5512,-1.4651,-1.3918,-1.3668,-1.361,-1.361,-1.361,-1.361,-1.361,-1.361,-1.361,-1.361,-1.361,-1.361,-1.361,-1.361,-1.361,-1.361,-1.361,-1.361,-1.361,-1.361,-1.361,-1.361,-1.3586,-1.3539,-1.3433,-4.139,-4.035,-4.0163,-4.0113,-4.0113,-4.0113,-4.0113,-4.0113,-4.0113,-4.0113,-4.0113,-4.0113,-4.0113,-4.0113,-4.0113,-4.0113,-4.0113,-4.0113,-4.0113,-4.0113,-4.0113,-4.0113,-3.9995,-3.8964,-3.8387,-3.8096,-3.6904,-3.6186,-3.5792,-3.4545,-3.3951,-3.3871,-3.2275,-3.0674,-2.9252,-2.8779,-2.8083,-2.7021,-2.5734,-2.4649,-2.3849,-2.3227,-2.2323,-2.1241,-2.0838,-2.0543,-2.0172,-1.9989,-1.9989,-2.0124,-2.0157,-2.0157,-2.0154,-2.0203,-1.9826,-1.9101,-1.9644,-1.9308,-1.7553,-1.7261,-1.7212,-1.7212,-1.7212,-1.7212,-1.7212,-1.7212,-1.7212,-1.7212,-1.7212,-1.7157,-1.7073,-1.7065,-1.701,-1.6952,-1.6846,-1.6761,-1.6697,-1.662,-1.6522,-1.65,-1.6513,-1.6513,-1.6513,-1.6513,-1.6513,-1.6457,-1.6173,-1.5942,-1.5744,-1.5119,-1.4513,-1.3941,-1.3692,-1.361,-1.361,-1.361,-1.361,-1.361,-1.361,-1.361,-1.361,-1.361,-1.361,-1.361,-1.361,-1.361,-1.361,-1.361,-1.361,-1.361,-1.361,-1.361,-1.361,-1.3529,-1.3386,-4.1221,-4.1018,-4.0341,-4.0113,-4.0113,-4.0113,-4.0113,-4.0113,-4.0113,-4.0113,-4.0113,-4.0113,-4.0113,-4.0113,-4.0113,-4.0113,-4.0113,-4.0113,-4.0113,-4.0113,-4.0113,-4.0113,-4.0113,-3.9935,-3.956,-3.8914,-3.8494,-3.7647,-3.6508,-3.5577,-3.4498,-3.3287,-3.2016,-3.1336,-3.0952,-2.9441,-2.8547,-2.8382,-2.7096,-2.5794,-2.456,-2.3864,-2.3191,-2.2538,-2.135,-2.0957,-2.14,-2.0946,-2.0868,-2.1455,-2.147,-2.1505,-2.1425,-2.0968,-2.0475,-2.0077,-1.9546,-1.8768,-1.7848,-1.7413,-1.7212,-1.7212,-1.7212,-1.7212,-1.7212,-1.7212,-1.7212,-1.7238,-1.7225,-1.7199,-1.7178,-1.7191,-1.7128,-1.7023,-1.6947,-1.691,-1.674,-1.6697,-1.662,-1.6509,-1.6534,-1.6513,-1.65,-1.6513,-1.6513,-1.6513,-1.6436,-1.625,-1.5932,-1.5678,-1.5243,-1.4478,-1.3952,-1.3644,-1.3621,-1.361,-1.361,-1.361,-1.361,-1.361,-1.361,-1.361,-1.361,-1.361,-1.361,-1.361,-1.361,-1.361,-1.361,-1.361,-1.361,-1.361,-1.361,-1.3586,-1.3515,-4.1339,-4.0553,-4.0231,-4.0113,-4.0113,-4.0113,-4.0113,-4.0113,-4.0113,-4.0113,-4.0113,-4.0113,-4.0113,-4.0113,-4.0113,-4.0113,-4.0113,-4.0113,-4.0113,-4.0113,-4.0113,-4.0113,-4.0113,-4.0113,-3.9722,-3.9098,-3.9189,-3.8525,-3.7215,-3.6161,-3.4884,-3.333,-3.2677,-3.21,-3.1366,-3.0283,-2.9549,-2.916,-2.8263,-2.732,-2.6378,-2.533,-2.4283,-2.3295,-2.2697,-2.2143,-2.1724,-2.1425,-2.1425,-2.1665,-2.1695,-2.15,-2.1141,-2.1231,-2.0666,-1.9377,-1.8457,-1.8262,-1.888,-1.7866,-1.7212,-1.7212,-1.7212,-1.7212,-1.7212,-1.7212,-1.7329,-1.763,-1.7408,-1.7212,-1.7225,-1.7212,-1.7178,-1.7115,-1.7065,-1.6973,-1.6897,-1.6833,-1.6748,-1.6641,-1.6633,-1.6577,-1.6534,-1.6513,-1.6513,-1.6513,-1.6513,-1.6402,-1.6228,-1.5998,-1.5522,-1.4937,-1.4385,-1.3965,-1.3705,-1.361,-1.361,-1.361,-1.361,-1.361,-1.3644,-1.361,-1.361,-1.361,-1.361,-1.361,-1.361,-1.361,-1.361,-1.361,-1.361,-1.361,-1.361,-1.361,-1.3573,-4.1704,-4.0722,-4.0282,-4.0113,-4.0113,-4.0113,-4.0113,-4.0113,-4.0113,-4.0113,-4.0113,-4.0113,-4.0113,-4.0113,-4.0113,-4.0113,-4.0113,-4.0113,-4.0113,-4.0113,-4.0113,-4.0113,-4.0113,-4.0113,-3.979,-3.9329,-3.9513,-3.9006,-3.7695,-3.6528,-3.5283,-3.4121,-3.3607,-3.2935,-3.1916,-3.1165,-3.0448,-2.9816,-2.9041,-2.8353,-2.7779,-2.6737,-2.551,-2.4268,-2.3774,-2.3236,-2.2547,-2.2143,-2.2054,-2.2203,-2.2218,-2.2009,-2.156,-2.1814,-2.1074,-1.9162,-1.8145,-1.8094,-1.9109,-1.7946,-1.7212,-1.7212,-1.7212,-1.7264,-1.7382,-1.729,-1.7552,-1.8179,-1.7787,-1.7512,-1.7656,-1.7669,-1.7669,-1.7669,-1.7471,-1.7312,-1.7256,-1.7076,-1.6867,-1.674,-1.674,-1.6718,-1.6577,-1.6522,-1.6513,-1.6513,-1.6513,-1.6513,-1.6479,-1.6207,-1.5822,-1.5367,-1.4983,-1.449,-1.38,-1.361,-1.361,-1.38,-1.3847,-1.3871,-1.3834,-1.3834,-1.3692,-1.3716,-1.3668,-1.361,-1.361,-1.361,-1.361,-1.361,-1.361,-1.361,-1.361,-1.361,-1.361,-4.2236,-4.1948,-4.0705,-4.0113,-4.0113,-4.0113,-4.0113,-4.0113,-4.0113,-4.0113,-4.0113,-4.0113,-4.0113,-4.0113,-4.0113,-4.0113,-4.0113,-4.0113,-4.0113,-4.0113,-4.0113,-4.0113,-4.0113,-4.0096,-3.9918,-3.9635,-3.9651,-3.9154,-3.8093,-3.6713,-3.5968,-3.577,-3.4559,-3.3681,-3.2946,-3.1866,-3.1058,-3.0428,-2.928,-2.8607,-2.8457,-2.7854,-2.6806,-2.554,-2.4313,-2.3924,-2.4156,-2.3266,-2.2912,-2.3475,-2.343,-2.343,-2.3355,-2.2882,-2.1747,-2.0154,-1.9222,-1.8508,-1.8002,-1.7493,-1.7212,-1.7212,-1.7212,-1.7447,-1.7878,-1.7565,-1.7774,-1.8767,-1.8427,-1.831,-1.8741,-1.8689,-1.8675,-1.8675,-1.8323,-1.8009,-1.7869,-1.7385,-1.6948,-1.682,-1.685,-1.6842,-1.6701,-1.6577,-1.6584,-1.6584,-1.6538,-1.6525,-1.6513,-1.6457,-1.6228,-1.5888,-1.5589,-1.5242,-1.3978,-1.3847,-1.3999,-1.4152,-1.4339,-1.435,-1.4373,-1.4326,-1.4046,-1.381,-1.3668,-1.361,-1.361,-1.361,-1.361,-1.361,-1.361,-1.361,-1.361,-1.361,-1.361,-4.1754,-4.0874,-4.0333,-4.0113,-4.0113,-4.0113,-4.0113,-4.0113,-4.0113,-4.0113,-4.0113,-4.0113,-4.0113,-4.0113,-4.0113,-4.0113,-4.0113,-4.0113,-4.0113,-4.0113,-4.0113,-4.0113,-4.0113,-4.0113,-3.9961,-3.9729,-3.9703,-3.918,-3.8112,-3.6721,-3.6009,-3.5712,-3.4332,-3.3381,-3.3003,-3.2041,-3.1336,-3.1031,-2.9879,-2.922,-2.9101,-2.8169,-2.7345,-2.6866,-2.5585,-2.4784,-2.4605,-2.3744,-2.337,-2.3595,-2.3595,-2.3437,-2.3011,-2.2177,-2.1266,-2.0293,-1.9367,-1.858,-1.8023,-1.7513,-1.7212,-1.7212,-1.7212,-1.7473,-1.7952,-1.7931,-1.8244,-1.9133,-1.9329,-1.9447,-1.9745,-1.9381,-1.8898,-1.8872,-1.8741,-1.8588,-1.8461,-1.8048,-1.7644,-1.7449,-1.7175,-1.694,-1.7115,-1.715,-1.7137,-1.7084,-1.7074,-1.6898,-1.6588,-1.6513,-1.6337,-1.5954,-1.58,-1.5534,-1.4777,-1.457,-1.4651,-1.4743,-1.4834,-1.4846,-1.4846,-1.4558,-1.428,-1.4163,-1.3941,-1.361,-1.361,-1.361,-1.361,-1.361,-1.361,-1.361,-1.361,-1.361,-1.361,-4.1602,-4.0519,-4.0197,-4.0248,-4.0434,-4.0197,-4.0248,-4.0392,-4.0214,-4.0113,-4.0113,-4.0113,-4.0113,-4.0113,-4.0113,-4.0113,-4.0113,-4.0113,-4.0113,-4.0113,-4.0113,-4.0113,-4.007,-4.0045,-3.9935,-3.9653,-3.9349,-3.8942,-3.8404,-3.682,-3.6042,-3.5941,-3.4317,-3.3277,-3.2895,-3.216,-3.171,-3.1314,-3.0238,-2.9606,-2.9457,-2.8289,-2.7585,-2.7435,-2.6497,-2.5615,-2.4948,-2.4276,-2.3804,-2.3625,-2.3595,-2.3415,-2.296,-2.2157,-2.1362,-2.0648,-1.983,-1.9059,-1.8398,-1.7813,-1.7486,-1.7473,-1.7329,-1.7512,-1.8218,-1.8205,-1.8754,-1.9669,-1.9878,-2.0035,-2.0386,-1.9954,-1.9509,-1.947,-1.9303,-1.9198,-1.9146,-1.8545,-1.7991,-1.7631,-1.7372,-1.7319,-1.7486,-1.7549,-1.7619,-1.7693,-1.7478,-1.7005,-1.6848,-1.66,-1.6414,-1.612,-1.6064,-1.6076,-1.5885,-1.5924,-1.5461,-1.5426,-1.5415,-1.5369,-1.5232,-1.4869,-1.4628,-1.4501,-1.4199,-1.38,-1.361,-1.361,-1.361,-1.361,-1.361,-1.361,-1.361,-1.361,-1.361,-4.183,-4.1035,-4.0434,-4.0527,-4.1001,-4.0527,-4.0603,-4.095,-4.0451,-4.018,-4.0113,-4.0113,-4.0113,-4.0113,-4.0113,-4.0113,-4.0113,-4.0113,-4.0113,-4.0113,-4.0113,-4.0113,-4.0096,-3.9986,-3.9858,-3.967,-3.875,-3.8652,-3.9093,-3.7293,-3.6289,-3.5991,-3.4843,-3.3625,-3.2471,-3.2394,-3.2068,-3.1384,-3.0253,-2.9636,-2.9457,-2.8289,-2.7585,-2.754,-2.6941,-2.6258,-2.56,-2.4889,-2.4231,-2.3684,-2.3595,-2.3595,-2.347,-2.3054,-2.2408,-2.1399,-2.0785,-2.0011,-1.9044,-1.8464,-1.8188,-1.8135,-1.7612,-1.7826,-1.8662,-1.8545,-1.8924,-2.0177,-2.0229,-2.0111,-2.0581,-2.0594,-2.0504,-2.062,-2.0098,-1.9812,-1.9616,-1.8819,-1.7904,-1.7509,-1.7519,-1.7762,-1.7832,-1.7933,-1.806,-1.8083,-1.7584,-1.7058,-1.7204,-1.6857,-1.6538,-1.6479,-1.6392,-1.6349,-1.6866,-1.7303,-1.6638,-1.6112,-1.6023,-1.5945,-1.5726,-1.5423,-1.5164,-1.4971,-1.4316,-1.3918,-1.361,-1.361,-1.361,-1.361,-1.361,-1.361,-1.361,-1.361,-1.361,-4.1559,-4.0553,-4.0747,-4.0984,-4.1238,-4.1474,-4.1508,-4.1204,-4.0933,-4.0561,-4.0163,-4.0113,-4.0113,-4.0113,-4.0113,-4.0113,-4.0113,-4.0113,-4.0113,-4.0113,-4.0113,-4.0113,-4.0096,-4.0062,-3.9961,-3.979,-3.9363,-3.9189,-3.9139,-3.8175,-3.7418,-3.6729,-3.5561,-3.4305,-3.3075,-3.2663,-3.2164,-3.1435,-3.0253,-2.9621,-2.9487,-2.8304,-2.76,-2.757,-2.7375,-2.6791,-2.5659,-2.4948,-2.4291,-2.364,-2.3595,-2.3595,-2.3551,-2.3465,-2.2885,-2.1946,-2.1635,-2.1058,-2.0075,-1.9483,-1.919,-1.9092,-1.8676,-1.8764,-1.9381,-1.9342,-1.9666,-2.0581,-2.0504,-2.053,-2.066,-2.0699,-2.0699,-2.0699,-2.0517,-2.036,-2.0242,-1.9706,-1.8813,-1.7961,-1.8172,-1.8274,-1.808,-1.8302,-1.8727,-1.8569,-1.8081,-1.7758,-1.7482,-1.6951,-1.6525,-1.6513,-1.6525,-1.6575,-1.6936,-1.7137,-1.6816,-1.6488,-1.6456,-1.6301,-1.6103,-1.5822,-1.5579,-1.5175,-1.4524,-1.4069,-1.3776,-1.361,-1.361,-1.361,-1.361,-1.361,-1.361,-1.361,-1.361,-4.1999,-4.101,-4.1407,-4.1779,-4.1999,-4.2252,-4.2033,-4.1593,-4.1305,-4.0781,-4.0214,-4.0113,-4.0113,-4.0113,-4.0113,-4.0113,-4.0113,-4.0113,-4.0113,-4.0113,-4.0113,-4.0113,-4.0113,-4.002,-3.991,-3.9763,-3.9563,-3.9475,-3.9355,-3.8421,-3.7584,-3.6781,-3.5587,-3.4273,-3.3159,-3.2674,-3.2153,-3.1451,-3.0477,-2.9819,-2.9442,-2.8517,-2.7854,-2.7645,-2.7585,-2.7046,-2.6019,-2.5322,-2.4545,-2.3789,-2.3595,-2.3595,-2.3595,-2.3558,-2.3206,-2.2578,-2.228,-2.1945,-2.1107,-2.0364,-2.0003,-1.9899,-1.9326,-1.9172,-1.9643,-1.9812,-2.0061,-2.0581,-2.0686,-2.0699,-2.0699,-2.0699,-2.0699,-2.0699,-2.0686,-2.0594,-2.0386,-2.0035,-1.941,-1.8634,-1.8608,-1.8689,-1.8802,-1.8533,-1.9128,-1.8866,-1.8336,-1.7903,-1.7473,-1.6995,-1.6737,-1.6534,-1.6513,-1.6626,-1.6814,-1.6911,-1.6898,-1.6842,-1.6845,-1.6614,-1.6374,-1.5954,-1.5634,-1.5153,-1.4581,-1.4222,-1.3918,-1.3681,-1.361,-1.361,-1.361,-1.361,-1.361,-1.361,-1.361,-4.299,-4.2337,-4.2388,-4.2844,-4.3335,-4.2878,-4.2591,-4.2236,-4.1627,-4.0865,-4.0248,-4.0113,-4.0113,-4.0113,-4.0113,-4.0113,-4.0113,-4.0113,-4.0113,-4.0113,-4.0113,-4.0113,-4.0087,-3.9986,-3.9824,-3.9633,-3.9554,-3.9475,-3.9292,-3.8128,-3.7002,-3.6521,-3.5365,-3.3845,-3.3005,-3.2587,-3.2302,-3.1568,-3.0849,-3.022,-2.9696,-2.9037,-2.8397,-2.7854,-2.775,-2.739,-2.6677,-2.5809,-2.4829,-2.3789,-2.3595,-2.3595,-2.3595,-2.3595,-2.337,-2.2958,-2.2942,-2.2682,-2.2098,-2.1356,-2.0749,-2.063,-1.9877,-1.9224,-1.9863,-1.9995,-2.0177,-2.0633,-2.0699,-2.0699,-2.0699,-2.0699,-2.0699,-2.0699,-2.0699,-2.0478,-1.9982,-1.9904,-1.9616,-1.9159,-1.8989,-1.912,-1.9514,-1.8875,-1.9037,-1.9048,-1.8306,-1.7779,-1.754,-1.7298,-1.6793,-1.6662,-1.6681,-1.6914,-1.7165,-1.6814,-1.6848,-1.7036,-1.6974,-1.6676,-1.6525,-1.6163,-1.5788,-1.5266,-1.48,-1.4455,-1.4082,-1.3847,-1.3658,-1.361,-1.361,-1.361,-1.361,-1.361,-1.361,-4.3346,-4.2448,-4.3504,-4.4124,-4.4333,-4.4604,-4.413,-4.3098,-4.232,-4.1339,-4.035,-4.0113,-4.0146,-4.0113,-4.0113,-4.0113,-4.0113,-4.0113,-4.0113,-4.0113,-4.0113,-4.0113,-4.007,-3.9961,-3.9875,-3.9772,-3.9651,-3.959,-3.9405,-3.8499,-3.7746,-3.7114,-3.618,-3.4927,-3.3638,-3.3367,-3.278,-3.1787,-3.105,-3.0616,-3.022,-2.9654,-2.9292,-2.9097,-2.8562,-2.7979,-2.724,-2.5719,-2.45,-2.3714,-2.3595,-2.3595,-2.3595,-2.3595,-2.353,-2.3421,-2.3377,-2.3355,-2.3113,-2.2581,-2.2096,-2.1681,-2.0945,-2.0671,-2.045,-2.0451,-2.0555,-2.0699,-2.0699,-2.0699,-2.0699,-2.0699,-2.0699,-2.0699,-2.0699,-2.0646,-2.0465,-2.0438,-2.0242,-1.9734,-1.9928,-1.981,-1.9499,-1.9551,-1.9734,-1.9558,-1.8903,-1.8148,-1.7958,-1.7364,-1.6735,-1.6945,-1.7065,-1.7335,-1.74,-1.6951,-1.6873,-1.7124,-1.6999,-1.6588,-1.6513,-1.6392,-1.6054,-1.569,-1.5255,-1.4858,-1.4362,-1.3965,-1.3823,-1.3668,-1.361,-1.361,-1.361,-1.361,-1.361,-4.4194,-4.3386,-4.4902,-4.5546,-4.5568,-4.5974,-4.5314,-4.4012,-4.3436,-4.2431,-4.1213,-4.0688,-4.0561,-4.0553,-4.0265,-4.0113,-4.0113,-4.0113,-4.0113,-4.0113,-4.0113,-4.0062,-4.0011,-3.991,-3.9875,-3.9807,-3.9738,-3.9651,-3.9415,-3.8657,-3.7994,-3.7456,-3.6662,-3.5415,-3.394,-3.3789,-3.3155,-3.1994,-3.139,-3.102,-3.0492,-3.0178,-2.9624,-2.9295,-2.8742,-2.8188,-2.7151,-2.6033,-2.5031,-2.4201,-2.3752,-2.3595,-2.3595,-2.3595,-2.3595,-2.3595,-2.3595,-2.3573,-2.3508,-2.3172,-2.2672,-2.2128,-2.166,-2.1204,-2.081,-2.0699,-2.0699,-2.0699,-2.0699,-2.0699,-2.0699,-2.0699,-2.0699,-2.0699,-2.0699,-2.0699,-2.0699,-2.0673,-2.0568,-2.0334,-2.0191,-2.0255,-1.964,-1.9928,-1.9865,-1.9645,-1.8982,-1.8523,-1.8222,-1.7401,-1.6952,-1.7238,-1.7301,-1.7448,-1.7576,-1.7275,-1.6923,-1.7137,-1.6936,-1.6538,-1.6513,-1.6513,-1.6228,-1.591,-1.5613,-1.521,-1.4617,-1.4163,-1.3952,-1.381,-1.3692,-1.3634,-1.3634,-1.361,-1.361,-4.5473,-4.497,-4.6329,-4.6904,-4.687,-4.6887,-4.6058,-4.4869,-4.4513,-4.3616,-4.2252,-4.1474,-4.1119,-4.1153,-4.0392,-4.0113,-4.0113,-4.0265,-4.0282,-4.0265,-4.0172,-4.002,-3.9926,-3.9935,-3.9858,-3.9781,-3.9729,-3.9687,-3.9382,-3.8435,-3.7879,-3.7501,-3.66,-3.5399,-3.444,-3.4152,-3.3304,-3.2235,-3.1935,-3.1458,-3.0894,-3.0642,-3.0223,-2.9505,-2.8966,-2.8158,-2.721,-2.6507,-2.5989,-2.4874,-2.4118,-2.3759,-2.367,-2.3595,-2.3595,-2.3595,-2.3595,-2.3595,-2.3551,-2.3224,-2.2785,-2.2291,-2.1803,-2.1277,-2.0947,-2.0774,-2.0699,-2.0699,-2.0699,-2.0699,-2.0699,-2.0699,-2.0699,-2.0699,-2.0699,-2.0699,-2.0699,-2.0699,-2.0699,-2.0673,-2.0203,-2.0255,-2.0229,-1.9915,-1.9329,-2.0061,-1.9384,-1.8959,-1.8513,-1.7788,-1.7571,-1.7721,-1.766,-1.7486,-1.7586,-1.7612,-1.7297,-1.7112,-1.6798,-1.6513,-1.6513,-1.6457,-1.6272,-1.602,-1.5635,-1.5232,-1.4743,-1.4396,-1.4093,-1.3928,-1.38,-1.3729,-1.3681,-1.3634,-1.361,-4.6846,-4.6397,-4.7293,-4.7665,-4.7682,-4.7648,-4.6836,-4.5449,-4.484,-4.3887,-4.2422,-4.1559,-4.1288,-4.1238,-4.0578,-4.0113,-4.0316,-4.0696,-4.095,-4.0882,-4.0333,-4.0045,-4.0002,-4.0104,-4.002,-3.9875,-3.9849,-3.9807,-3.9435,-3.853,-3.7822,-3.7648,-3.6646,-3.561,-3.4896,-3.4699,-3.4031,-3.2778,-3.2493,-3.2044,-3.1404,-3.1212,-3.1047,-3.0569,-2.9774,-2.8693,-2.757,-2.6896,-2.6492,-2.5959,-2.5091,-2.4268,-2.3804,-2.3625,-2.3595,-2.3595,-2.3595,-2.3595,-2.3573,-2.3465,-2.3246,-2.2694,-2.2235,-2.1756,-2.1302,-2.0934,-2.0749,-2.0699,-2.0699,-2.0749,-2.0699,-2.0699,-2.0699,-2.0699,-2.0699,-2.0699,-2.0699,-2.0699,-2.0699,-2.066,-2.0581,-2.0543,-2.0661,-2.0542,-2.0255,-2.036,-1.9982,-1.9488,-1.8848,-1.8164,-1.8058,-1.808,-1.7651,-1.7465,-1.7829,-1.7718,-1.7244,-1.6996,-1.6697,-1.6513,-1.6513,-1.6513,-1.6371,-1.6054,-1.5657,-1.5266,-1.5017,-1.435,-1.3988,-1.3941,-1.3894,-1.3834,-1.3763,-1.3692,-1.3621,-4.7588,-4.7394,-4.8122,-4.8426,-4.8426,-4.8409,-4.7597,-4.6329,-4.5805,-4.4801,-4.3436,-4.2574,-4.2252,-4.2185,-4.1491,-4.1119,-4.1213,-4.1491,-4.1711,-4.1644,-4.1288,-4.1127,-4.1058,-4.0966,-4.0797,-4.0078,-3.9884,-3.9858,-3.9566,-3.8723,-3.8051,-3.7937,-3.683,-3.5921,-3.5324,-3.5202,-3.4378,-3.3196,-3.2865,-3.2461,-3.1775,-3.1539,-3.1271,-3.0853,-2.9834,-2.8712,-2.8094,-2.7435,-2.6956,-2.6497,-2.5899,-2.5076,-2.4171,-2.3774,-2.3625,-2.3595,-2.3595,-2.3595,-2.3595,-2.3573,-2.3399,-2.2957,-2.264,-2.2109,-2.1698,-2.1313,-2.1118,-2.086,-2.0873,-2.0972,-2.0724,-2.0699,-2.0699,-2.0699,-2.0699,-2.0699,-2.0699,-2.0699,-2.0699,-2.0699,-2.0673,-2.0673,-2.0699,-2.0699,-2.0673,-2.0517,-2.0111,-1.9606,-1.9269,-1.8669,-1.8355,-1.8148,-1.7591,-1.7489,-1.7959,-1.7809,-1.7147,-1.6863,-1.6653,-1.6522,-1.6513,-1.6513,-1.6513,-1.6175,-1.5901,-1.5768,-1.5445,-1.4709,-1.4106,-1.4106,-1.4069,-1.3952,-1.3844,-1.3723,-1.3631,-4.8088,-4.8108,-4.8748,-4.8934,-4.8849,-4.8781,-4.7902,-4.6667,-4.6616,-4.5618,-4.4604,-4.3758,-4.3172,-4.3183,-4.2523,-4.232,-4.2388,-4.2219,-4.2168,-4.2134,-4.21,-4.1779,-4.1677,-4.1559,-4.1195,-4.007,-4.0154,-4.0189,-3.9798,-3.8957,-3.8278,-3.808,-3.7088,-3.6199,-3.5738,-3.5553,-3.4957,-3.371,-3.3288,-3.2776,-3.2013,-3.1673,-3.121,-3.0563,-2.9843,-2.9015,-2.8621,-2.8081,-2.753,-2.6846,-2.6686,-2.6027,-2.5083,-2.4171,-2.3759,-2.3759,-2.3714,-2.3595,-2.3595,-2.3573,-2.3421,-2.3024,-2.2912,-2.2535,-2.1969,-2.1851,-2.1599,-2.1372,-2.1264,-2.1313,-2.0885,-2.0873,-2.0799,-2.0724,-2.0699,-2.0699,-2.0699,-2.0699,-2.0699,-2.0699,-2.0699,-2.0699,-2.0699,-2.0699,-2.0699,-2.0633,-2.019,-1.9839,-1.954,-1.9207,-1.8903,-1.8613,-1.8177,-1.7568,-1.7913,-1.7664,-1.7014,-1.6856,-1.6624,-1.6543,-1.6513,-1.6513,-1.65,-1.6445,-1.625,-1.602,-1.5623,-1.4915,-1.4478,-1.4396,-1.4116,-1.3871,-1.376,-1.3696,-1.3734,-4.8832,-4.8832,-4.8951,-4.8663,-4.8125,-4.8091,-4.728,-4.6024,-4.5974,-4.5415,-4.4581,-4.3775,-4.347,-4.3284,-4.2642,-4.2658,-4.3031,-4.2743,-4.2388,-4.2371,-4.2286,-4.189,-4.1162,-4.1441,-4.1018,-4.051,-4.0527,-4.062,-3.9874,-3.8957,-3.8322,-3.8039,-3.7088,-3.6307,-3.6152,-3.6028,-3.5492,-3.441,-3.3864,-3.3185,-3.2465,-3.1822,-3.1356,-3.0867,-3.0413,-2.9822,-2.9115,-2.8823,-2.842,-2.767,-2.7088,-2.6639,-2.6096,-2.5106,-2.4552,-2.4261,-2.3939,-2.3714,-2.361,-2.3573,-2.3551,-2.3399,-2.3157,-2.2934,-2.2581,-2.2351,-2.2128,-2.1978,-2.1837,-2.1779,-2.135,-2.1277,-2.1057,-2.086,-2.0785,-2.0736,-2.0724,-2.0749,-2.0724,-2.0699,-2.0699,-2.0699,-2.0699,-2.0699,-2.0699,-2.0699,-2.0491,-2.0334,-2.0203,-1.9817,-1.9445,-1.919,-1.8923,-1.828,-1.7865,-1.7355,-1.6836,-1.6853,-1.6708,-1.6534,-1.6513,-1.6513,-1.6479,-1.6457,-1.625,-1.5923,-1.5479,-1.504,-1.4821,-1.4691,-1.4251,-1.3773,-1.399,-1.4209,-1.4194,-4.9018,-4.9018,-4.9018,-4.8798,-4.8413,-4.8071,-4.731,-4.6295,-4.5872,-4.528,-4.4682,-4.4181,-4.4012,-4.3927,-4.369,-4.3752,-4.3707,-4.3217,-4.2895,-4.2844,-4.2439,-4.1999,-4.1213,-4.161,-4.1271,-4.095,-4.1018,-4.0634,-3.9642,-3.8783,-3.8197,-3.7663,-3.6922,-3.646,-3.6383,-3.6352,-3.5844,-3.5018,-3.4273,-3.3532,-3.2764,-3.2116,-3.163,-3.1445,-3.1033,-3.0425,-2.9693,-2.9087,-2.8611,-2.7931,-2.7554,-2.7378,-2.6982,-2.6371,-2.5454,-2.4784,-2.4291,-2.3939,-2.3684,-2.3595,-2.3573,-2.3573,-2.3355,-2.3135,-2.2987,-2.2852,-2.274,-2.2535,-2.2175,-2.2011,-2.1766,-2.1742,-2.1516,-2.1215,-2.124,-2.1142,-2.0885,-2.0972,-2.0873,-2.0762,-2.0699,-2.0699,-2.0699,-2.0699,-2.0699,-2.0699,-2.0699,-2.0699,-2.0699,-2.0309,-1.9832,-1.9573,-1.9277,-1.8802,-1.8209,-1.7721,-1.7148,-1.7041,-1.6853,-1.669,-1.6534,-1.6534,-1.6513,-1.65,-1.6219,-1.5966,-1.5768,-1.5501,-1.5234,-1.4941,-1.451,-1.4254,-1.4528,-1.4677,-1.468,-4.9018,-4.9018,-4.9018,-4.8917,-4.868,-4.8003,-4.7242,-4.6532,-4.5771,-4.5128,-4.4666,-4.4581,-4.4564,-4.453,-4.4384,-4.4333,-4.4462,-4.3606,-4.3098,-4.2997,-4.276,-4.2439,-4.2117,-4.2337,-4.2134,-4.1525,-4.1474,-4.063,-3.9392,-3.8629,-3.8026,-3.746,-3.6831,-3.6492,-3.6492,-3.646,-3.5984,-3.5431,-3.4623,-3.3893,-3.3058,-3.2376,-3.2025,-3.2038,-3.1506,-3.0897,-3.0083,-2.9642,-2.8875,-2.8238,-2.7934,-2.7949,-2.7775,-2.7425,-2.6553,-2.5356,-2.4875,-2.4395,-2.4064,-2.3653,-2.3638,-2.3638,-2.3616,-2.3399,-2.3268,-2.329,-2.3377,-2.3046,-2.274,-2.2406,-2.2328,-2.2282,-2.2025,-2.1732,-2.1789,-2.1837,-2.1264,-2.1071,-2.1046,-2.0898,-2.0774,-2.0699,-2.0699,-2.0699,-2.0699,-2.0699,-2.0699,-2.0699,-2.0673,-2.0438,-2.0087,-1.9852,-1.9554,-1.9188,-1.8744,-1.8396,-1.7878,-1.7525,-1.7228,-1.6945,-1.6716,-1.6522,-1.6534,-1.6513,-1.6491,-1.6262,-1.612,-1.5856,-1.5471,-1.5106,-1.4774,-1.4662,-1.4811,-1.5037,-1.5127,-4.9018,-4.9018,-4.9018,-4.8629,-4.802,-4.731,-4.6532,-4.5855,-4.5128,-4.4688,-4.4598,-4.4598,-4.4598,-4.4496,-4.3927,-4.4028,-4.3995,-4.3301,-4.2709,-4.276,-4.2895,-4.2422,-4.1728,-4.2794,-4.2388,-4.1847,-4.1914,-4.099,-3.9549,-3.866,-3.8017,-3.7436,-3.6862,-3.6492,-3.6492,-3.6492,-3.6352,-3.5997,-3.5339,-3.4333,-3.3148,-3.2389,-3.2216,-3.212,-3.2114,-3.1637,-3.0711,-3.0267,-2.9628,-2.8452,-2.8207,-2.8103,-2.7989,-2.7949,-2.7504,-2.6615,-2.575,-2.4932,-2.4736,-2.4225,-2.3859,-2.3838,-2.3704,-2.3588,-2.3508,-2.3486,-2.3551,-2.3566,-2.3377,-2.3165,-2.2852,-2.2822,-2.2498,-2.2267,-2.2175,-2.1931,-2.1458,-2.1361,-2.1313,-2.0898,-2.0724,-2.0699,-2.0699,-2.0699,-2.0699,-2.0699,-2.0699,-2.0699,-2.066,-2.0465,-2.0229,-1.998,-1.9891,-1.9577,-1.9139,-1.8812,-1.8432,-1.8022,-1.7459,-1.709,-1.6809,-1.6577,-1.6534,-1.6513,-1.6513,-1.6414,-1.6163,-1.5891,-1.5582,-1.5441,-1.5307,-1.5118,-1.4972,-1.5269,-1.5816,-4.9018,-4.9018,-4.9018,-4.8832,-4.8392,-4.731,-4.6616,-4.6126,-4.5122,-4.4598,-4.4598,-4.4598,-4.4598,-4.4496,-4.4181,-4.4265,-4.4299,-4.3386,-4.2946,-4.276,-4.2811,-4.2252,-4.1559,-4.1779,-4.1745,-4.1525,-4.1319,-4.0788,-3.9583,-3.8979,-3.8459,-3.7452,-3.6863,-3.6492,-3.6492,-3.6492,-3.6383,-3.5967,-3.5187,-3.4133,-3.331,-3.2909,-3.2629,-3.2391,-3.3082,-3.265,-3.177,-3.1089,-3.0499,-2.9368,-2.8786,-2.825,-2.8177,-2.8162,-2.8027,-2.7806,-2.6933,-2.6176,-2.5591,-2.4842,-2.4443,-2.4204,-2.3936,-2.3595,-2.3595,-2.3595,-2.3595,-2.3595,-2.3595,-2.3465,-2.3319,-2.3312,-2.3024,-2.2762,-2.2634,-2.2095,-2.1756,-2.1789,-2.1623,-2.1142,-2.0699,-2.0699,-2.0699,-2.0699,-2.0699,-2.0699,-2.0699,-2.0699,-2.0699,-2.0646,-2.0347,-2.0022,-2.0022,-2.0009,-1.9543,-1.9121,-1.8815,-1.8293,-1.7344,-1.701,-1.6802,-1.6633,-1.6556,-1.6513,-1.6513,-1.6371,-1.6185,-1.6013,-1.5806,-1.5834,-1.5934,-1.5877,-1.5944,-1.667,-1.7108,-4.9018,-4.9018,-4.9018,-4.8917,-4.8612,-4.7327,-4.665,-4.6329,-4.5156,-4.4598,-4.4598,-4.4598,-4.4598,-4.4513,-4.435,-4.4248,-4.453,-4.3589,-4.3352,-4.3132,-4.2828,-4.2252,-4.1897,-4.1677,-4.1559,-4.0612,-4.1187,-4.0713,-3.9911,-3.9165,-3.847,-3.7493,-3.6815,-3.6538,-3.6492,-3.6492,-3.6414,-3.6213,-3.5247,-3.4451,-3.3945,-3.3741,-3.34,-3.3413,-3.3706,-3.3935,-3.2752,-3.1751,-3.0975,-3.014,-2.8983,-2.8339,-2.8275,-2.8323,-2.8332,-2.8203,-2.7711,-2.7317,-2.6512,-2.5712,-2.5054,-2.4602,-2.4176,-2.3684,-2.3872,-2.3752,-2.3759,-2.3909,-2.3655,-2.3625,-2.3595,-2.3573,-2.3399,-2.3224,-2.3143,-2.2489,-2.1921,-2.1803,-2.1565,-2.1019,-2.0699,-2.0699,-2.0699,-2.0699,-2.0699,-2.0699,-2.0699,-2.0699,-2.0673,-2.066,-2.0451,-2.0137,-2.0022,-2.0164,-2.0074,-1.9597,-1.9238,-1.8652,-1.7699,-1.7028,-1.6858,-1.667,-1.6534,-1.6513,-1.655,-1.6457,-1.6349,-1.6178,-1.6064,-1.6187,-1.6373,-1.6806,-1.7132,-1.7823,-1.8112,-4.9018,-4.9018,-4.8984,-4.8629,-4.7973,-4.7141,-4.6413,-4.5923,-4.5004,-4.4598,-4.4598,-4.4598,-4.4598,-4.4479,-4.4096,-4.4062,-4.453,-4.3047,-4.3115,-4.3325,-4.3257,-4.2777,-4.2405,-4.2388,-4.2486,-4.1789,-4.1402,-4.0798,-4.0154,-3.9026,-3.8292,-3.748,-3.6799,-3.6584,-3.6492,-3.6492,-3.6492,-3.6245,-3.5507,-3.5153,-3.4846,-3.4599,-3.4227,-3.4243,-3.432,-3.4135,-3.3336,-3.2259,-3.1443,-3.0714,-2.9325,-2.8581,-2.8572,-2.8433,-2.8427,-2.835,-2.8304,-2.8033,-2.7563,-2.6382,-2.5307,-2.4795,-2.4324,-2.3916,-2.414,-2.3834,-2.3924,-2.4208,-2.3819,-2.3625,-2.3595,-2.3573,-2.353,-2.3421,-2.3253,-2.2778,-2.2161,-2.164,-2.135,-2.086,-2.0712,-2.0751,-2.0791,-2.0804,-2.0712,-2.0699,-2.0699,-2.0699,-2.0581,-2.0517,-2.0451,-2.0255,-2.0048,-2.0177,-2.0504,-2.0178,-1.966,-1.9136,-1.8412,-1.7597,-1.7002,-1.6827,-1.6766,-1.6697,-1.6769,-1.6635,-1.6563,-1.656,-1.6571,-1.6618,-1.6878,-1.7388,-1.7814,-1.832,-1.8419,-4.8054,-4.7682,-4.8122,-4.8413,-4.8494,-4.731,-4.6616,-4.6194,-4.5139,-4.4598,-4.4598,-4.4598,-4.4598,-4.4496,-4.4367,-4.4265,-4.453,-4.4107,-4.391,-4.3826,-4.3656,-4.2997,-4.2591,-4.2028,-4.1627,-4.1136,-4.0757,-4.041,-3.9668,-3.8757,-3.8169,-3.7498,-3.6815,-3.6584,-3.6492,-3.6492,-3.6492,-3.6199,-3.5537,-3.4936,-3.4828,-3.4674,-3.4289,-3.3844,-3.5414,-3.529,-3.4614,-3.3336,-3.2644,-3.1751,-3.0104,-2.9319,-2.8889,-2.8658,-2.8473,-2.8411,-2.8411,-2.8411,-2.8264,-2.7118,-2.61,-2.5052,-2.4572,-2.4297,-2.4319,-2.3853,-2.3779,-2.3848,-2.3849,-2.3714,-2.3625,-2.361,-2.3551,-2.3465,-2.3216,-2.2798,-2.2315,-2.1684,-2.1446,-2.1089,-2.0922,-2.0831,-2.087,-2.0909,-2.0804,-2.0699,-2.0699,-2.0673,-2.0594,-2.0491,-2.0438,-2.0412,-2.0242,-2.0098,-2.0399,-2.0229,-1.9982,-1.9495,-1.9009,-1.8274,-1.7536,-1.7333,-1.728,-1.7159,-1.7081,-1.7074,-1.7087,-1.7074,-1.7064,-1.7023,-1.7476,-1.814,-1.8535,-1.8797,-1.8849,-4.7276,-4.687,-4.7378,-4.7733,-4.7868,-4.6904,-4.6346,-4.5974,-4.5055,-4.4598,-4.4598,-4.4598,-4.4598,-4.4598,-4.4581,-4.4361,-4.4361,-4.4327,-4.4299,-4.4063,-4.3581,-4.2869,-4.2131,-4.1493,-4.1,-4.0142,-3.9695,-3.9406,-3.9075,-3.8306,-3.7639,-3.711,-3.6769,-3.6553,-3.6492,-3.6492,-3.6492,-3.6199,-3.5737,-3.5106,-3.5152,-3.5152,-3.5059,-3.4645,-3.5799,-3.6091,-3.5337,-3.4198,-3.3321,-3.2475,-3.1228,-2.9787,-2.931,-2.9012,-2.8658,-2.8488,-2.8411,-2.8411,-2.8218,-2.7585,-2.6543,-2.5316,-2.4925,-2.4571,-2.4284,-2.4012,-2.3924,-2.4101,-2.4013,-2.3931,-2.3931,-2.3962,-2.3844,-2.3755,-2.2888,-2.2413,-2.2003,-2.151,-2.1511,-2.138,-2.1236,-2.1106,-2.1119,-2.1145,-2.0909,-2.0791,-2.0699,-2.0699,-2.0673,-2.0607,-2.0555,-2.0504,-2.0465,-2.0321,-2.0216,-2.0255,-2.0218,-1.969,-1.9216,-1.8807,-1.8277,-1.8022,-1.7842,-1.7774,-1.7705,-1.7637,-1.7626,-1.7626,-1.7501,-1.7385,-1.7894,-1.8421,-1.8747,-1.8993,-1.9331,-4.6786,-4.6802,-4.6786,-4.6447,-4.5974,-4.5771,-4.5415,-4.501,-4.4716,-4.4598,-4.4598,-4.4598,-4.4598,-4.4564,-4.4513,-4.4181,-4.3961,-4.4248,-4.4181,-4.3647,-4.337,-4.2596,-4.1791,-4.1103,-4.057,-3.9457,-3.8985,-3.875,-3.8527,-3.7437,-3.6801,-3.6661,-3.6569,-3.6492,-3.6492,-3.6492,-3.6492,-3.6461,-3.6322,-3.6122,-3.5922,-3.5907,-3.5845,-3.5568,-3.6122,-3.6353,-3.5737,-3.4506,-3.3706,-3.3244,-3.1567,-3.0233,-2.9587,-2.9387,-2.8996,-2.8473,-2.8427,-2.8411,-2.835,-2.7616,-2.6688,-2.5588,-2.5278,-2.4991,-2.4809,-2.4483,-2.4221,-2.4468,-2.4687,-2.4687,-2.462,-2.4492,-2.4229,-2.3704,-2.2853,-2.2222,-2.1856,-2.1314,-2.1269,-2.1642,-2.1603,-2.1459,-2.1433,-2.1355,-2.1093,-2.0883,-2.0751,-2.0699,-2.0699,-2.0673,-2.062,-2.0607,-2.0594,-2.0555,-2.0438,-2.0581,-2.0427,-1.9911,-1.9551,-1.9268,-1.8915,-1.8582,-1.8461,-1.8391,-1.8297,-1.8179,-1.8191,-1.8191,-1.799,-1.7827,-1.8041,-1.8481,-1.8832,-1.9196,-1.9497,-4.5771,-4.5393,-4.5872,-4.5635,-4.5077,-4.5517,-4.5551,-4.5263,-4.484,-4.4598,-4.4598,-4.4598,-4.4598,-4.4479,-4.4096,-4.3927,-4.4147,-4.3639,-4.3494,-4.3394,-4.2986,-4.1908,-4.1082,-4.0648,-4.0246,-3.943,-3.8761,-3.8451,-3.8476,-3.7201,-3.663,-3.6492,-3.6492,-3.6492,-3.6492,-3.6492,-3.6492,-3.6384,-3.6045,-3.5645,-3.5337,-3.5614,-3.5522,-3.4814,-3.583,-3.6276,-3.5907,-3.4568,-3.4152,-3.3858,-3.2121,-3.0843,-3.0063,-2.9781,-2.9135,-2.8596,-2.8411,-2.8411,-2.8396,-2.7994,-2.738,-2.6412,-2.5824,-2.5406,-2.4643,-2.478,-2.4793,-2.4957,-2.5311,-2.5333,-2.5309,-2.4799,-2.4408,-2.3766,-2.3026,-2.2411,-2.1901,-2.1219,-2.1,-2.176,-2.2034,-2.1433,-2.1197,-2.1263,-2.1106,-2.0883,-2.0725,-2.0699,-2.0699,-2.0699,-2.0673,-2.0673,-2.0673,-2.0686,-2.0699,-2.0699,-2.0699,-2.0337,-2.0131,-2.0002,-1.9646,-1.9217,-1.9046,-1.8974,-1.8865,-1.8719,-1.8694,-1.8656,-1.8417,-1.8329,-1.848,-1.8581,-1.8882,-1.9271,-1.9673,-4.4874,-4.4248,-4.4705,-4.4468,-4.4012,-4.4874,-4.5314,-4.5229,-4.4818,-4.4598,-4.4598,-4.4598,-4.4598,-4.4333,-4.3876,-4.3572,-4.4079,-4.3403,-4.3043,-4.2959,-4.2365,-4.1429,-4.0702,-4.0312,-4.0071,-3.9454,-3.906,-3.8757,-3.845,-3.7401,-3.6784,-3.6553,-3.6492,-3.6492,-3.6492,-3.6492,-3.6492,-3.6399,-3.6153,-3.5814,-3.5614,-3.5537,-3.5383,-3.506,-3.5476,-3.6215,-3.5614,-3.5106,-3.4705,-3.4089,-3.3026,-3.1505,-3.0674,-2.9956,-2.9289,-2.8735,-2.8411,-2.8411,-2.8396,-2.8396,-2.7695,-2.6834,-2.6665,-2.6075,-2.5262,-2.5461,-2.5458,-2.5583,-2.5886,-2.5846,-2.5678,-2.5137,-2.486,-2.4285,-2.3583,-2.2968,-2.2326,-2.1672,-2.1171,-2.193,-2.2192,-2.1538,-2.1066,-2.104,-2.1054,-2.087,-2.0699,-2.0699,-2.0699,-2.0699,-2.0699,-2.0699,-2.0699,-2.0699,-2.0699,-2.0699,-2.0699,-2.0699,-2.0557,-2.0428,-2.0313,-1.9904,-1.9744,-1.9558,-1.9446,-1.9321,-1.9221,-1.9108,-1.8782,-1.8682,-1.8757,-1.8882,-1.8995,-1.9284,-1.966,-4.4062,-4.3409,-4.3358,-4.3014,-4.2658,-4.3904,-4.4479,-4.4513,-4.4479,-4.4445,-4.4547,-4.4462,-4.4496,-4.4412,-4.3724,-4.3392,-4.3274,-4.2658,-4.2389,-4.222,-4.1779,-4.101,-4.061,-4.0386,-4.0029,-3.9689,-3.9329,-3.8965,-3.8492,-3.7492,-3.6861,-3.6599,-3.6492,-3.6492,-3.6492,-3.6492,-3.6492,-3.643,-3.6368,-3.6107,-3.5922,-3.6061,-3.5675,-3.5429,-3.5722,-3.583,-3.5521,-3.529,-3.4921,-3.4351,-3.3581,-3.2136,-3.1105,-3.0402,-2.951,-2.8827,-2.8427,-2.8411,-2.8411,-2.8411,-2.8165,-2.7503,-2.7426,-2.7011,-2.6534,-2.6188,-2.6175,-2.6222,-2.6397,-2.6228,-2.599,-2.5908,-2.5821,-2.5126,-2.439,-2.3727,-2.3045,-2.2442,-2.1812,-2.1904,-2.21,-2.1838,-2.1577,-2.142,-2.0962,-2.0831,-2.0699,-2.0699,-2.0699,-2.0699,-2.0699,-2.0699,-2.0699,-2.0699,-2.0699,-2.0699,-2.0699,-2.0699,-2.0699,-2.0584,-2.0546,-2.0445,-2.0166,-1.9977,-1.9991,-1.9851,-1.9585,-1.9371,-1.9121,-1.9096,-1.9171,-1.902,-1.9096,-1.9208,-1.951,-4.2811,-4.2625,-4.2625,-4.2472,-4.2371,-4.277,-4.299,-4.2946,-4.299,-4.32,-4.3758,-4.3758,-4.3995,-4.4462,-4.3217,-4.3047,-4.2733,-4.2274,-4.172,-4.1489,-4.139,-4.0635,-4.026,-4.0168,-3.9958,-3.9674,-3.94,-3.9093,-3.8338,-3.743,-3.6753,-3.6507,-3.6338,-3.6384,-3.6461,-3.6492,-3.6461,-3.6492,-3.6492,-3.623,-3.5953,-3.5861,-3.5429,-3.5183,-3.546,-3.5352,-3.5013,-3.526,-3.4844,-3.3844,-3.309,-3.189,-3.0632,-2.9956,-2.9187,-2.8581,-2.8411,-2.8411,-2.8411,-2.8411,-2.8288,-2.8104,-2.8057,-2.7396,-2.6934,-2.678,-2.6857,-2.6872,-2.694,-2.6807,-2.6514,-2.6354,-2.6227,-2.5702,-2.5052,-2.4538,-2.3887,-2.3319,-2.2708,-2.2128,-2.2286,-2.1799,-2.1616,-2.1237,-2.0792,-2.0738,-2.0699,-2.0699,-2.0699,-2.0699,-2.0699,-2.0699,-2.0699,-2.0699,-2.0699,-2.0699,-2.0699,-2.0699,-2.0699,-2.0662,-2.0573,-2.0459,-2.0385,-2.0296,-2.0156,-1.9991,-1.9799,-1.9661,-1.9747,-1.9598,-1.9623,-1.9346,-1.9196,-1.9384,-1.9484,-4.2117,-4.188,-4.1863,-4.1694,-4.1467,-4.1433,-4.145,-4.1491,-4.2033,-4.2591,-4.2946,-4.2963,-4.3234,-4.3396,-4.2455,-4.2202,-4.276,-4.149,-4.094,-4.1377,-4.107,-4.0339,-3.9939,-3.9789,-3.9573,-3.9354,-3.9031,-3.8692,-3.7938,-3.6907,-3.6122,-3.643,-3.6122,-3.6107,-3.6245,-3.623,-3.6276,-3.6384,-3.6399,-3.6061,-3.5737,-3.5414,-3.4951,-3.4489,-3.4844,-3.469,-3.4337,-3.4859,-3.4429,-3.3583,-3.2906,-3.2182,-3.0878,-2.9971,-2.911,-2.855,-2.8411,-2.8411,-2.8411,-2.8411,-2.8411,-2.8411,-2.8396,-2.8011,-2.7719,-2.7596,-2.7511,-2.744,-2.7476,-2.7435,-2.704,-2.6705,-2.6454,-2.6199,-2.5777,-2.5365,-2.4798,-2.4269,-2.3535,-2.2724,-2.2181,-2.159,-2.1197,-2.0895,-2.0791,-2.0936,-2.087,-2.0699,-2.0699,-2.0699,-2.0699,-2.0699,-2.0699,-2.0699,-2.0724,-2.081,-2.081,-2.0785,-2.0699,-2.0649,-2.0574,-2.0549,-2.0549,-2.041,-2.0245,-2.0182,-2.0194,-2.0434,-2.0517,-2.0358,-2.0283,-2.0277,-2.0036,-1.98,-1.9838,-4.1711,-4.1119,-4.1119,-4.0764,-4.0163,-4.0214,-4.0197,-4.0248,-4.1484,-4.2134,-4.2168,-4.2202,-4.2303,-4.2439,-4.1745,-4.1677,-4.1728,-4.089,-4.0575,-4.1239,-4.0515,-3.9876,-3.9622,-3.9419,-3.9154,-3.8739,-3.8446,-3.8277,-3.7277,-3.6338,-3.5876,-3.6261,-3.5275,-3.5152,-3.5845,-3.5629,-3.5691,-3.6138,-3.6184,-3.5984,-3.5568,-3.5245,-3.4829,-3.406,-3.4152,-3.4306,-3.406,-3.4091,-3.4274,-3.3721,-3.3321,-3.2798,-3.1259,-3.0258,-2.931,-2.8642,-2.8427,-2.8411,-2.8411,-2.8411,-2.8411,-2.8411,-2.8396,-2.8304,-2.815,-2.8088,-2.7972,-2.768,-2.7624,-2.7461,-2.712,-2.7022,-2.6864,-2.6817,-2.6602,-2.6247,-2.5842,-2.5055,-2.4038,-2.3224,-2.2387,-2.1872,-2.1986,-2.1768,-2.1209,-2.1298,-2.1305,-2.1023,-2.1015,-2.104,-2.0974,-2.0974,-2.1044,-2.1142,-2.1118,-2.1166,-2.1033,-2.0934,-2.0909,-2.0983,-2.1142,-2.097,-2.0724,-2.0761,-2.0809,-2.0709,-2.0746,-2.093,-2.1053,-2.1077,-2.1064,-2.1248,-2.1015,-2.0521,-2.0232,-4.0536,-4.0341,-4.0341,-4.0248,-4.0113,-4.0113,-4.0113,-4.0113,-4.0434,-4.0967,-4.139,-4.1508,-4.1745,-4.1948,-4.1407,-4.1305,-4.1119,-4.0637,-4.0344,-4.0334,-3.9939,-3.9658,-3.9297,-3.897,-3.8635,-3.8585,-3.8338,-3.7692,-3.663,-3.5845,-3.5244,-3.5028,-3.4412,-3.4674,-3.5229,-3.4951,-3.5198,-3.5907,-3.5845,-3.5814,-3.5537,-3.4645,-3.3952,-3.4321,-3.4814,-3.4736,-3.4752,-3.5399,-3.4722,-3.386,-3.4075,-3.289,-3.0786,-3.0356,-2.9556,-2.8704,-2.8442,-2.8411,-2.8411,-2.8411,-2.8411,-2.8411,-2.8411,-2.8411,-2.8396,-2.8411,-2.8242,-2.7904,-2.7649,-2.7462,-2.7337,-2.733,-2.7346,-2.7385,-2.7405,-2.7093,-2.6774,-2.5704,-2.4568,-2.3717,-2.2784,-2.2569,-2.2684,-2.239,-2.1866,-2.1711,-2.1849,-2.1797,-2.1903,-2.1923,-2.1745,-2.1715,-2.1722,-2.1766,-2.1701,-2.1551,-2.1444,-2.1527,-2.1575,-2.1647,-2.1708,-2.1492,-2.1288,-2.141,-2.1444,-2.1334,-2.1248,-2.1286,-2.1393,-2.1585,-2.1633,-2.1728,-2.1633,-2.1234,-2.0832,-4.0113,-4.0113,-4.0113,-4.0113,-4.0113,-4.0113,-4.0113,-4.0113,-4.0113,-4.0333,-4.0646,-4.073,-4.095,-4.1331,-4.0865,-4.0713,-4.0646,-4.0333,-4.0213,-4.0034,-3.9743,-3.9369,-3.9024,-3.8544,-3.7979,-3.782,-3.7247,-3.6507,-3.5768,-3.4937,-3.4291,-3.4335,-3.4181,-3.4089,-3.4597,-3.4782,-3.4998,-3.5907,-3.5645,-3.5537,-3.5521,-3.4845,-3.4352,-3.4922,-3.4844,-3.4828,-3.4936,-3.543,-3.4876,-3.406,-3.4014,-3.2952,-3.1336,-3.0582,-2.9879,-2.9119,-2.8642,-2.8411,-2.8411,-2.8411,-2.8411,-2.8411,-2.8411,-2.8411,-2.8411,-2.8411,-2.8381,-2.8088,-2.8088,-2.7924,-2.7837,-2.7823,-2.7771,-2.776,-2.7655,-2.7444,-2.696,-2.6174,-2.5459,-2.5008,-2.4005,-2.3053,-2.3017,-2.2537,-2.2242,-2.2818,-2.2842,-2.2587,-2.2702,-2.3005,-2.2766,-2.2611,-2.2687,-2.2564,-2.2462,-2.2219,-2.1917,-2.2035,-2.2292,-2.2095,-2.2016,-2.1945,-2.1898,-2.1921,-2.1921,-2.1894,-2.1823,-2.1837,-2.2016,-2.2273,-2.2226,-2.218,-2.2025,-2.1908,-2.1599,-4.0113,-4.0113,-4.0113,-4.0113,-4.0113,-4.0113,-4.0113,-4.0113,-4.0113,-4.0113,-4.0163,-4.0163,-4.0113,-4.0113,-4.0096,-4.0028,-4.0011,-4.0096,-4.0132,-3.9914,-3.9792,-3.9178,-3.8597,-3.8118,-3.7468,-3.6755,-3.6168,-3.5614,-3.5013,-3.4352,-3.4121,-3.4166,-3.3904,-3.3552,-3.4645,-3.5013,-3.5028,-3.5691,-3.5768,-3.5629,-3.5568,-3.5475,-3.5059,-3.4736,-3.4628,-3.4659,-3.4736,-3.4797,-3.4813,-3.4428,-3.4029,-3.2936,-3.189,-3.0997,-3.0151,-2.9427,-2.8688,-2.8488,-2.8411,-2.8411,-2.8411,-2.8411,-2.8411,-2.8411,-2.8411,-2.8396,-2.8381,-2.8365,-2.8365,-2.8326,-2.8238,-2.814,-2.8073,-2.7989,-2.7865,-2.7725,-2.7165,-2.6602,-2.6285,-2.5973,-2.5095,-2.3982,-2.3623,-2.3107,-2.318,-2.3773,-2.3851,-2.3579,-2.3516,-2.3961,-2.4138,-2.3936,-2.3864,-2.3684,-2.3502,-2.3222,-2.2964,-2.2904,-2.3092,-2.266,-2.2342,-2.2457,-2.2457,-2.2282,-2.2305,-2.2305,-2.2411,-2.2449,-2.2669,-2.276,-2.2669,-2.2518,-2.254,-2.2426,-2.2333,-4.0113,-4.0113,-4.0113,-4.0113,-4.0113,-4.0113,-4.0113,-4.0113,-4.0113,-4.0113,-4.0113,-4.0113,-4.0113,-4.0113,-4.0113,-3.996,-3.9656,-3.9876,-3.9622,-3.9286,-3.9311,-3.8791,-3.8226,-3.7736,-3.6894,-3.6292,-3.5799,-3.5475,-3.489,-3.4474,-3.4305,-3.4382,-3.4397,-3.4243,-3.4428,-3.4705,-3.4998,-3.5614,-3.5876,-3.5768,-3.583,-3.5614,-3.5136,-3.5075,-3.5291,-3.5675,-3.5953,-3.6076,-3.5768,-3.5306,-3.4536,-3.3398,-3.2398,-3.1413,-3.0582,-2.9704,-2.895,-2.855,-2.8473,-2.8427,-2.8411,-2.8411,-2.8411,-2.8411,-2.8411,-2.8411,-2.8396,-2.8396,-2.8396,-2.8396,-2.8308,-2.822,-2.8162,-2.7989,-2.784,-2.7725,-2.7415,-2.7026,-2.6698,-2.6465,-2.6052,-2.5618,-2.556,-2.5048,-2.4568,-2.4964,-2.5063,-2.48,-2.4592,-2.5007,-2.5405,-2.5222,-2.5023,-2.5156,-2.5109,-2.4664,-2.4378,-2.4204,-2.3857,-2.3338,-2.3089,-2.3127,-2.3061,-2.2822,-2.2723,-2.27,-2.2843,-2.282,-2.282,-2.2843,-2.2865,-2.2828,-2.2888,-2.2797,-2.2578]},{"header":{"parameterUnit":"m.s-1","parameterCategory":1,"la1":31.0,"la2":29.5877,"lo1":-88.7671,"lo2":-86.6584,"dy":0.0162,"dx":0.0185,"nx":115,"ny":88,"refTime":"2023-07-17T12:00:00:Z","depth":0,"parameterNumber":3,"parameterNumberName":"V-component_of_WINDS"},"data":[0.0,0.0,0.0,0.0,0.0,0.0,0.0,0.0,0.0,0.0,0.0,0.0,0.0,0.0,0.0,0.0,0.0,0.0,0.0,0.0,0.0,0.0,0.0,0.0,0.0,0.0,0.0,0.0,0.0,0.0,0.0,0.0,0.0,0.0,0.0,0.0,0.0,0.0,0.0,0.0,0.0,0.0,0.0,0.0,0.0,0.0,0.0,0.0,0.0,0.0,0.0,0.0,0.0,0.0,0.0,0.0,0.0,0.0,0.0,0.0,0.0,0.0,0.0,0.0,0.0,0.0,0.0,0.0,0.0,0.0,0.0,0.0,0.0,0.0,0.0,0.0,0.0,0.0,0.0,0.0,0.0,0.0,0.0,0.0,0.0,0.0,0.0,0.0,0.0,0.0,0.0,0.0,0.0,0.0,0.0,0.0,0.0,0.0,0.0,0.0,0.0,0.0,0.0,0.0,0.0,0.0,0.0,0.0,0.0,0.0,0.0,0.0,0.0,0.0,0.0,0.0,0.0,0.0,0.0,0.0,0.0,0.0,0.0,0.0,0.0,0.0,0.0,0.0,0.0,0.0,0.0,0.0,0.0,0.0,0.0,0.0,0.0,0.0,0.0,0.0,0.0,0.0,0.0,0.0,0.0,0.0,0.0,0.0,0.0,0.0,0.0,0.0,0.0,0.0,0.0,0.0,0.0,0.0,0.0,0.0,0.0,0.0,0.0,0.0,0.0,0.0,0.0,0.0,0.0,0.0,0.0,0.0,0.0,0.0,0.0,0.0,0.0,0.0,0.0,0.0,0.0,0.0,0.0,0.0,0.0,0.0,0.0,0.0,0.0,0.0,0.0,0.0,0.0,0.0,0.0,0.0,0.0,0.0,0.0,0.0,0.0,0.0,0.0,0.0,0.0,0.0,0.0,0.0,0.0,0.0,0.0,0.0,0.0,0.0,0.0,0.0,0.0,0.0,0.0,0.0,0.0,0.0,0.0,0.0,0.0,0.0,0.0,0.0,0.0,0.0,0.0,0.0,0.0,0.0,0.0,0.0,0.0,0.0,0.0,0.0,0.0,0.0,0.0,0.0,0.0,0.0,0.0,0.0,0.0,0.0,0.0,0.0,0.0,0.0,0.0,0.0,0.0,0.0,0.0,0.0,0.0,0.0,0.0,0.0,0.0,0.0,0.0,0.0,0.0,0.0,0.0,0.0,0.0,0.0,0.0,0.0,0.0,0.0,0.0,0.0,0.0,0.0,0.0,0.0,0.0,0.0,0.0,0.0,0.0,0.0,0.0,0.0,0.0,0.0,0.0,0.0,0.0,0.0,0.0,0.0,0.0,0.0,0.0,0.0,0.0,0.0,0.0,0.0,0.0,0.0,0.0,0.0,0.0,0.0,0.0,0.0,0.0,0.0,0.0,0.0,0.0,0.0,0.0,0.0,0.0,0.0,0.0,0.0,0.0,0.0,0.0,0.0,0.0,0.0,0.0,0.0,0.0,0.0,0.0,0.0,0.0,0.0,0.0,0.0,0.0,0.0,0.0,0.0,0.0,0.0,0.0,0.0,0.0,0.0,0.0,0.0,0.0,0.0,0.0,0.0,0.0,0.0,0.0,0.0,0.0,0.0,0.0,0.0,0.0,0.0,0.0,0.0,0.0,0.0,0.0,0.0,0.0,0.0,0.0,0.0,0.0,0.0,0.0,0.0,0.0,0.0,0.0,0.0,0.0,0.0,0.0,0.0,0.0,0.0,0.0,0.0,0.0,0.0,0.0,0.0,0.0,0.0,0.0,0.0,0.0,0.0,0.0,0.0,0.0,0.0,0.0,0.0,0.0,0.0,0.0,0.0,0.0,0.0,0.0,0.0,0.0,0.0,0.0,0.0,0.0,0.0,0.0,0.0,0.0,0.0,0.0,0.0,0.0,0.0,0.0,0.0,0.0,0.0,0.0,0.0,0.0,0.0,0.0,0.0,0.0,0.0,0.0,0.0,0.0,0.0,0.0,0.0,0.0,0.0,0.0,0.0,0.0,0.0,0.0,0.0,0.0,0.0,0.0,0.0,0.0,0.0,0.0,0.0,0.0,0.0,0.0,0.0,0.0,0.0,0.0,0.0,0.0,0.0,0.0,0.0,0.0,0.0,0.0,0.0,0.0,0.0,0.0,0.0,0.0,0.0,0.0,0.0,0.0,0.0,0.0,0.0,0.0,0.0,0.0,0.0,0.0,0.0,0.0,0.0,0.0,0.0,0.0,0.0,0.0,0.0,0.0,0.0,0.0,0.0,0.0,0.0,0.0,0.0,0.0,0.0,0.0,0.0,0.0,0.0,0.0,0.0,0.0,0.0,0.0,0.0,0.0,0.0,0.0,0.0,0.0,0.0,0.0,0.0,0.0,0.0,0.0,0.0,0.0,0.0,0.0,0.0,0.0,0.0,0.0,0.0,0.0,0.0,0.0,0.0,0.0,0.0,0.0,0.0,0.0,0.0,0.0,0.0,0.0,0.0,0.0,0.0,0.0,0.0,0.0,0.0,0.0,0.0,0.0,0.0,0.0,0.0,0.0,0.0,0.0,0.0,0.0,0.0,0.0,0.0,0.0,0.0,0.0,0.0,0.0,0.0,0.0,0.0,0.0,0.0,0.0,0.0,0.0,0.0,0.0,0.0,0.0,0.0,0.0,0.0,0.0,0.0,0.0,0.0,0.0,0.0,0.0,0.0,0.0,0.0,0.0,0.0,0.0,0.0,0.0,0.0,0.0,0.0,0.0,0.0,0.0,0.0,0.0,0.0,0.0,0.0,0.0,0.0,0.0,0.0,0.0,0.0,0.0,0.0,0.0,0.0,0.0,0.0,0.0,0.0,0.0,0.0,0.0,0.0,0.0,0.0,0.0,0.0,0.0,0.0,0.0,0.0,0.0,0.0,0.0,0.0,0.0,0.0,0.0,0.0,0.0,0.0,0.0,0.0,0.0,0.0,0.0,0.0,0.0,0.0,0.0,0.0,0.0,0.0,0.0,0.0,0.0,0.0,0.0,0.0,0.0,0.0,0.0,0.0,0.0,0.0,0.0,0.0,0.0,0.0,0.0,0.0,0.0,0.0,0.0,0.0,0.0,0.0,0.0,0.0,0.0,0.0,0.0,0.0,0.0,0.0,0.0,0.0,0.0,0.0,0.0,0.0,0.0,0.0,0.0,0.0,0.0,0.0,0.0,0.0,0.0,0.0,0.0,0.0,0.0,0.0,0.0,0.0,0.0,0.0,0.0,0.0,0.0,0.0,0.0,0.0,0.0,0.0,0.0,0.0,0.0,0.0,0.0,0.0,0.0,0.0,0.0,0.0,0.0,0.0,0.0,0.0,0.0,0.0,0.0,0.0,0.0,0.0,0.0,0.0,0.0,0.0,0.0,0.0,0.0,0.0,0.0,0.0,0.0,0.0,0.0,0.0,0.0,0.0,0.0,0.0,0.0,0.0,0.0,0.0,0.0,0.0,0.0,0.0,0.0,0.0,0.0,0.0,0.0,0.0,0.0,0.0,0.0,0.0,0.0,0.0,0.0,0.0,0.0,0.0,0.0,0.0,0.0,0.0,0.0,0.0,0.0,0.0,0.0,0.0,0.0,0.0,0.0,0.0,0.0,0.0,0.0,0.0,0.0,0.0,0.0,0.0,0.0,0.0,0.0,0.0,0.0,0.0,0.0,0.0,0.0,0.0,0.0,0.0,0.0,0.0,0.0,0.0,0.0,0.0,0.0,0.0,0.0,0.0,0.0,0.0,0.0,0.0,0.0,0.0,0.0,0.0,0.0,0.0,0.0,0.0,0.0,0.0,0.0,0.0,0.0,0.0,0.0,0.0,0.0,0.0,0.0,0.0,0.0,0.0,0.0,0.0,0.0,0.0,0.0,0.0,0.0,0.0,0.0,0.0,0.0,0.0,0.0,0.0,0.0,0.0,0.0,0.0,0.0,0.0,0.0,0.0,0.0,0.0,0.0,0.0,0.0,0.0,0.0,0.0,0.0,0.0,0.0,0.0,0.0,0.0,0.0,0.0,0.0,0.0,0.0,0.0,0.0,0.0,0.0,0.0,0.0,0.0,0.0,0.0,0.0,0.0,0.0,0.0,0.0,0.0,0.0,0.0,0.0,0.0,0.0,0.0,0.0,0.0,0.0,0.0,0.0,0.0,0.0,0.0,0.0,0.0,0.0,0.0,0.0,0.0,0.0,0.0,0.0,0.0,0.0,0.0,0.0,0.0,0.0,0.0,0.0,0.0,0.0,0.0,0.0,0.0,-0.8972,0.0,0.0,0.0,0.0,0.0,0.0,0.0,0.0,0.0,0.0,0.0,0.0,0.0,0.0,0.0,0.0,0.0,0.0,0.0,0.0,0.0,0.0,0.0,0.0,0.0,0.0,0.0,0.0,0.0,0.0,0.0,0.0,0.0,0.0,0.0,0.0,0.0,0.0,0.0,0.0,0.0,0.0,0.0,0.0,0.0,0.0,0.0,0.0,0.0,0.0,0.0,0.0,0.0,0.0,0.0,0.0,0.0,0.0,0.0,0.0,0.0,0.0,0.0,0.0,0.0,0.0,0.0,0.0,0.0,0.0,0.0,0.0,0.0,0.0,0.0,0.0,0.0,0.0,0.0,0.0,0.0,0.0,0.0,0.0,0.0,0.0,0.0,0.0,0.0,0.0,0.0,0.0,0.0,0.0,0.0,0.0,0.0,0.0,0.0,0.0,0.0,0.0,0.0,0.0,0.0,0.0,0.0,0.0,0.0,0.0,-0.968,-0.9495,-0.9622,-0.9632,-0.9514,0.0,0.0,0.0,0.0,0.0,0.0,0.0,0.0,0.0,0.0,0.0,0.0,0.0,0.0,0.0,0.0,0.0,0.0,0.0,0.0,0.0,0.0,0.0,0.0,0.0,0.0,0.0,0.0,0.0,0.0,0.0,0.0,0.0,0.0,0.0,0.0,0.0,0.0,0.0,0.0,0.0,0.0,0.0,0.0,0.0,0.0,0.0,0.0,0.0,0.0,0.0,0.0,0.0,0.0,0.0,0.0,0.0,0.0,0.0,0.0,0.0,0.0,0.0,0.0,0.0,0.0,0.0,0.0,0.0,0.0,0.0,0.0,0.0,0.0,0.0,0.0,0.0,0.0,0.0,0.0,0.0,0.0,0.0,0.0,0.0,0.0,0.0,0.0,0.0,0.0,0.0,0.0,0.0,0.0,0.0,0.0,0.0,0.0,0.0,0.0,0.0,0.0,0.0,0.0,0.0,0.0,0.0,0.0,0.0,0.0,0.0,0.0,-0.9962,-0.9952,-0.9877,0.0,0.0,0.0,0.0,0.0,0.0,0.0,0.0,0.0,0.0,0.0,0.0,0.0,0.0,0.0,0.0,0.0,0.0,0.0,0.0,0.0,0.0,0.0,0.0,0.0,0.0,0.0,0.0,0.0,0.0,0.0,0.0,0.0,0.0,0.0,0.0,0.0,0.0,0.0,0.0,0.0,0.0,0.0,0.0,0.0,0.0,0.0,0.0,0.0,0.0,0.0,0.0,0.0,0.0,0.0,0.0,0.0,0.0,0.0,0.0,0.0,0.0,0.0,0.0,0.0,0.0,0.0,0.0,0.0,0.0,0.0,0.0,0.0,0.0,0.0,0.0,0.0,0.0,0.0,0.0,0.0,0.0,0.0,0.0,0.0,0.0,0.0,0.0,0.0,0.0,0.0,0.0,0.0,0.0,0.0,0.0,0.0,0.0,0.0,0.0,0.0,0.0,0.0,0.0,0.0,0.0,0.0,0.0,0.0,0.0,-0.9829,-0.9469,-0.981,0.0,-0.9552,0.0,0.0,0.0,0.0,0.0,0.0,0.0,0.0,0.0,0.0,0.0,0.0,0.0,0.0,0.0,0.0,0.0,0.0,0.0,0.0,0.0,0.0,0.0,0.0,0.0,0.0,0.0,0.0,0.0,0.0,0.0,0.0,0.0,0.0,0.0,0.0,0.0,0.0,0.0,0.0,0.0,0.0,0.0,0.0,0.0,0.0,0.0,0.0,0.0,0.0,0.0,0.0,0.0,0.0,0.0,0.0,0.0,0.0,0.0,0.0,0.0,0.0,0.0,0.0,0.0,0.0,0.0,0.0,0.0,0.0,0.0,0.0,0.0,0.0,0.0,0.0,0.0,0.0,0.0,0.0,0.0,0.0,0.0,0.0,0.0,0.0,0.0,0.0,0.0,0.0,0.0,0.0,0.0,0.0,0.0,0.0,0.0,0.0,0.0,0.0,0.0,0.0,0.0,0.0,0.0,0.0,0.0,0.0,0.0,0.0,-1.0108,-0.9944,-1.0099,-1.0108,0.0,0.0,0.0,0.0,0.0,0.0,0.0,0.0,0.0,0.0,0.0,0.0,0.0,0.0,0.0,0.0,0.0,0.0,0.0,0.0,0.0,0.0,0.0,0.0,0.0,0.0,0.0,0.0,0.0,0.0,0.0,0.0,0.0,0.0,0.0,0.0,0.0,0.0,0.0,0.0,0.0,0.0,0.0,0.0,0.0,0.0,0.0,0.0,0.0,0.0,0.0,0.0,0.0,0.0,0.0,0.0,0.0,0.0,0.0,0.0,0.0,0.0,0.0,0.0,0.0,0.0,0.0,0.0,0.0,0.0,0.0,0.0,0.0,0.0,0.0,0.0,0.0,0.0,0.0,0.0,0.0,0.0,0.0,0.0,0.0,0.0,0.0,0.0,0.0,0.0,0.0,0.0,0.0,0.0,0.0,0.0,0.0,0.0,0.0,0.0,0.0,0.0,0.0,0.0,0.0,0.0,0.0,0.0,0.0,0.0,-1.0244,-1.0322,-1.0322,-1.0322,-1.0185,-0.9932,0.0,0.0,0.0,0.0,0.0,0.0,0.0,0.0,0.0,0.0,0.0,0.0,0.0,0.0,0.0,0.0,0.0,0.0,0.0,0.0,0.0,0.0,0.0,0.0,0.0,0.0,0.0,0.0,0.0,0.0,0.0,0.0,0.0,0.0,0.0,0.0,0.0,0.0,0.0,0.0,0.0,0.0,0.0,0.0,0.0,0.0,0.0,0.0,0.0,0.0,0.0,0.0,0.0,0.0,0.0,0.0,0.0,0.0,0.0,0.0,0.0,0.0,0.0,0.0,0.0,0.0,0.0,0.0,0.0,0.0,0.0,0.0,0.0,0.0,0.0,0.0,0.0,0.0,0.0,0.0,0.0,0.0,0.0,0.0,0.0,0.0,0.0,0.0,0.0,0.0,0.0,0.0,0.0,0.0,0.0,0.0,0.0,0.0,0.0,0.0,0.0,0.0,0.0,0.0,0.0,0.0,0.0,0.0,-1.0303,-1.0303,-1.0322,-1.0322,-1.0322,-0.9921,0.0,0.0,0.0,0.0,0.0,0.0,0.0,0.0,0.0,0.0,0.0,0.0,0.0,0.0,0.0,0.0,0.0,0.0,0.0,0.0,0.0,0.0,0.0,0.0,0.0,0.0,0.0,0.0,0.0,0.0,0.0,0.0,0.0,0.0,0.0,0.0,0.0,0.0,0.0,0.0,0.0,0.0,0.0,0.0,0.0,0.0,0.0,0.0,0.0,0.0,0.0,0.0,0.0,0.0,0.0,0.0,0.0,0.0,0.0,0.0,0.0,0.0,0.0,0.0,0.0,0.0,0.0,0.0,0.0,0.0,0.0,0.0,0.0,0.0,0.0,0.0,0.0,0.0,0.0,0.0,0.0,0.0,0.0,0.0,0.0,0.0,0.0,0.0,0.0,0.0,0.0,0.0,0.0,0.0,0.0,0.0,0.0,0.0,0.0,0.0,0.0,0.0,0.0,0.0,0.0,0.0,0.0,0.0,0.0,-1.0293,-1.0322,-1.0322,-1.0322,-1.0322,-1.0175,0.0,0.0,0.0,0.0,0.0,0.0,0.0,0.0,0.0,0.0,0.0,0.0,0.0,0.0,0.0,0.0,0.0,0.0,0.0,0.0,0.0,0.0,0.0,0.0,0.0,0.0,0.0,0.0,0.0,0.0,0.0,0.0,0.0,0.0,0.0,0.0,0.0,0.0,0.0,0.0,0.0,0.0,0.0,0.0,0.0,0.0,0.0,0.0,0.0,0.0,0.0,0.0,0.0,0.0,0.0,0.0,0.0,0.0,0.0,0.0,0.0,0.0,0.0,0.0,0.0,0.0,0.0,0.0,0.0,0.0,0.0,0.0,0.0,0.0,0.0,0.0,0.0,0.0,0.0,0.0,0.0,0.0,0.0,0.0,0.0,0.0,0.0,0.0,0.0,0.0,0.0,0.0,0.0,0.0,0.0,0.0,0.0,0.0,0.0,0.0,0.0,0.0,0.0,0.0,0.0,0.0,0.0,0.0,0.0,-1.0312,0.0,-1.0312,-1.0322,-1.0312,-1.0282,0.0,0.0,0.0,0.0,0.0,0.0,0.0,0.0,0.0,0.0,0.0,0.0,0.0,0.0,0.0,0.0,0.0,0.0,0.0,0.0,0.0,0.0,0.0,0.0,0.0,0.0,0.0,0.0,0.0,0.0,0.0,0.0,0.0,0.0,0.0,0.0,0.0,0.0,0.0,0.0,0.0,0.0,0.0,0.0,0.0,0.0,0.0,0.0,0.0,0.0,0.0,0.0,0.0,0.0,0.0,0.0,0.0,0.0,0.0,0.0,0.0,0.0,0.0,0.0,0.0,0.0,0.0,0.0,0.0,0.0,0.0,0.0,0.0,0.0,0.0,0.0,0.0,0.0,0.0,0.0,0.0,0.0,0.0,0.0,0.0,0.0,0.0,0.0,0.0,0.0,0.0,0.0,0.0,0.0,0.0,0.0,0.0,0.0,0.0,0.0,0.0,0.0,0.0,0.0,0.0,0.0,0.0,0.0,-1.0544,-1.0409,-1.0419,-1.04,-1.0332,-1.0419,-1.024,0.0,0.0,0.0,0.0,0.0,0.0,0.0,0.0,0.0,0.0,0.0,0.0,0.0,0.0,0.0,0.0,0.0,0.0,0.0,0.0,0.0,0.0,0.0,0.0,0.0,0.0,0.0,0.0,0.0,0.0,0.0,0.0,0.0,0.0,0.0,0.0,0.0,0.0,0.0,0.0,0.0,0.0,0.0,0.0,0.0,0.0,0.0,0.0,0.0,0.0,0.0,0.0,0.0,0.0,0.0,0.0,0.0,0.0,0.0,0.0,0.0,0.0,0.0,0.0,0.0,0.0,0.0,0.0,0.0,0.0,0.0,0.0,0.0,0.0,0.0,0.0,0.0,0.0,0.0,0.0,0.0,0.0,0.0,0.0,0.0,0.0,0.0,0.0,0.0,0.0,0.0,0.0,0.0,0.0,0.0,0.0,0.0,0.0,0.0,0.0,0.0,0.0,0.0,0.0,0.0,0.0,0.0,0.0,0.0,-1.1035,-1.1025,-1.0995,-1.0985,-1.1005,-1.0854,0.0,0.0,0.0,0.0,0.0,0.0,0.0,0.0,0.0,0.0,0.0,0.0,0.0,0.0,0.0,0.0,0.0,0.0,0.0,0.0,0.0,0.0,0.0,0.0,0.0,0.0,0.0,0.0,0.0,0.0,0.0,0.0,0.0,0.0,0.0,0.0,0.0,0.0,0.0,0.0,0.0,0.0,0.0,0.0,0.0,0.0,0.0,0.0,0.0,0.0,0.0,0.0,0.0,0.0,0.0,0.0,0.0,0.0,0.0,0.0,0.0,0.0,0.0,0.0,0.0,0.0,0.0,0.0,0.0,0.0,0.0,0.0,0.0,0.0,0.0,0.0,0.0,0.0,0.0,0.0,0.0,0.0,0.0,0.0,0.0,0.0,0.0,0.0,0.0,0.0,0.0,0.0,0.0,0.0,0.0,0.0,0.0,0.0,0.0,0.0,0.0,0.0,0.0,0.0,0.0,0.0,0.0,0.0,0.0,-1.3037,-1.2612,-1.238,-1.2359,-1.2214,-1.1789,-1.105,0.0,0.0,0.0,0.0,0.0,0.0,0.0,0.0,0.0,0.0,0.0,0.0,0.0,0.0,0.0,0.0,0.0,0.0,0.0,0.0,0.0,0.0,0.0,0.0,0.0,0.0,0.0,0.0,0.0,0.0,0.0,0.0,0.0,0.0,0.0,0.0,0.0,0.0,0.0,0.0,0.0,0.0,0.0,0.0,0.0,0.0,0.0,0.0,0.0,0.0,0.0,0.0,0.0,0.0,0.0,0.0,0.0,0.0,0.0,0.0,0.0,0.0,0.0,0.0,0.0,0.0,0.0,0.0,0.0,0.0,0.0,0.0,0.0,0.0,0.0,0.0,0.0,0.0,0.0,0.0,0.0,0.0,0.0,0.0,0.0,0.0,0.0,0.0,0.0,0.0,0.0,0.0,0.0,0.0,0.0,0.0,0.0,0.0,0.0,0.0,0.0,0.0,0.0,0.0,0.0,0.0,0.0,0.0,-1.6238,-1.5156,-1.4506,-1.4314,-1.3942,-1.3022,0.0,0.0,0.0,0.0,0.0,0.0,0.0,0.0,0.0,0.0,0.0,0.0,0.0,0.0,0.0,0.0,0.0,0.0,0.0,0.0,0.0,0.0,0.0,0.0,0.0,0.0,0.0,0.0,0.0,0.0,0.0,0.0,0.0,0.0,0.0,0.0,0.0,0.0,0.0,0.0,0.0,0.0,0.0,0.0,0.0,0.0,0.0,0.0,0.0,0.0,0.0,0.0,0.0,0.0,0.0,0.0,0.0,0.0,0.0,0.0,0.0,0.0,0.0,0.0,0.0,0.0,0.0,0.0,0.0,0.0,0.0,0.0,0.0,0.0,0.0,0.0,0.0,0.0,0.0,0.0,0.0,0.0,0.0,0.0,0.0,0.0,0.0,0.0,0.0,0.0,0.0,0.0,0.0,0.0,0.0,0.0,0.0,0.0,0.0,0.0,0.0,0.0,0.0,0.0,0.0,0.0,0.0,0.0,0.0,-1.813,-1.8792,-1.8393,-1.7006,-1.5886,-1.4424,0.0,0.0,0.0,0.0,0.0,0.0,0.0,0.0,0.0,0.0,0.0,0.0,0.0,0.0,0.0,0.0,0.0,0.0,0.0,0.0,0.0,0.0,0.0,0.0,0.0,0.0,0.0,0.0,0.0,0.0,0.0,0.0,0.0,0.0,0.0,0.0,0.0,0.0,0.0,0.0,0.0,0.0,0.0,0.0,0.0,0.0,0.0,0.0,0.0,0.0,0.0,0.0,0.0,0.0,0.0,0.0,0.0,0.0,0.0,0.0,0.0,0.0,0.0,0.0,0.0,0.0,0.0,0.0,0.0,0.0,0.0,0.0,0.0,0.0,0.0,0.0,0.0,0.0,0.0,0.0,0.0,0.0,0.0,0.0,0.0,0.0,0.0,0.0,0.0,0.0,0.0,0.0,0.0,0.0,0.0,0.0,0.0,0.0,0.0,0.0,0.0,0.0,0.0,0.0,0.0,0.0,0.0,0.0,-1.6546,-1.9309,-2.1129,-2.1646,-2.075,-1.8224,-1.5833,0.0,0.0,0.0,0.0,0.0,0.0,0.0,0.0,0.0,0.0,0.0,0.0,0.0,0.0,0.0,0.0,0.0,0.0,0.0,0.0,0.0,0.0,0.0,0.0,0.0,0.0,0.0,0.0,0.0,0.0,0.0,0.0,0.0,0.0,0.0,0.0,0.0,0.0,0.0,0.0,0.0,0.0,0.0,0.0,0.0,0.0,0.0,0.0,0.0,0.0,0.0,0.0,0.0,0.0,0.0,0.0,0.0,0.0,0.0,0.0,0.0,0.0,0.0,0.0,0.0,0.0,0.0,0.0,0.0,0.0,0.0,0.0,0.0,0.0,0.0,0.0,0.0,0.0,0.0,0.0,0.0,0.0,0.0,0.0,0.0,0.0,0.0,0.0,0.0,0.0,0.0,0.0,0.0,0.0,0.0,0.0,0.0,0.0,0.0,0.0,0.0,0.0,0.0,0.0,0.0,0.0,0.0,0.0,-1.7464,-2.0059,-2.2571,-2.4061,-2.4364,-2.0545,-1.7299,0.0,0.0,0.0,0.0,0.0,0.0,0.0,0.0,0.0,0.0,0.0,0.0,0.0,0.0,0.0,0.0,0.0,0.0,0.0,0.0,0.0,0.0,0.0,0.0,0.0,0.0,0.0,0.0,0.0,0.0,0.0,0.0,0.0,0.0,0.0,0.0,0.0,0.0,0.0,0.0,0.0,0.0,0.0,0.0,0.0,0.0,0.0,0.0,0.0,0.0,0.0,0.0,0.0,0.0,0.0,0.0,0.0,0.0,0.0,0.0,0.0,0.0,0.0,0.0,0.0,0.0,0.0,0.0,0.0,0.0,0.0,0.0,0.0,0.0,0.0,0.0,0.0,0.0,0.0,0.0,0.0,0.0,0.0,0.0,0.0,0.0,0.0,0.0,0.0,0.0,0.0,0.0,0.0,0.0,0.0,0.0,0.0,0.0,0.0,0.0,0.0,0.0,0.0,0.0,0.0,0.0,0.0,0.0,-1.8581,-2.1344,-2.3341,-2.4422,-2.4472,-2.1526,-1.8753,0.0,0.0,0.0,0.0,0.0,0.0,0.0,0.0,0.0,0.0,0.0,0.0,0.0,0.0,0.0,0.0,0.0,0.0,0.0,0.0,0.0,0.0,0.0,0.0,0.0,0.0,0.0,0.0,0.0,0.0,0.0,0.0,0.0,0.0,0.0,0.0,0.0,0.0,0.0,0.0,0.0,0.0,0.0,0.0,0.0,0.0,0.0,0.0,-1.2781,0.0,0.0,0.0,0.0,0.0,0.0,0.0,0.0,0.0,0.0,0.0,0.0,0.0,0.0,0.0,0.0,0.0,0.0,0.0,0.0,0.0,0.0,0.0,0.0,0.0,0.0,0.0,0.0,0.0,0.0,0.0,0.0,0.0,0.0,0.0,0.0,0.0,0.0,0.0,0.0,0.0,0.0,0.0,0.0,0.0,0.0,0.0,0.0,0.0,0.0,0.0,0.0,0.0,0.0,0.0,0.0,0.0,0.0,0.0,-1.8737,-2.0996,-2.2839,-2.3917,-2.404,-2.1659,-1.9204,0.0,0.0,0.0,0.0,0.0,0.0,0.0,0.0,0.0,0.0,0.0,0.0,0.0,0.0,0.0,0.0,0.0,0.0,0.0,0.0,0.0,0.0,0.0,0.0,0.0,0.0,0.0,0.0,0.0,0.0,0.0,0.0,0.0,0.0,0.0,0.0,0.0,0.0,0.0,0.0,0.0,0.0,0.0,0.0,0.0,0.0,0.0,0.0,0.0,0.0,0.0,0.0,0.0,0.0,0.0,0.0,0.0,0.0,0.0,0.0,0.0,0.0,0.0,0.0,0.0,0.0,0.0,0.0,0.0,0.0,0.0,0.0,0.0,0.0,0.0,0.0,0.0,0.0,0.0,0.0,0.0,0.0,0.0,0.0,0.0,0.0,0.0,0.0,0.0,0.0,0.0,0.0,0.0,0.0,0.0,0.0,0.0,0.0,0.0,0.0,0.0,0.0,0.0,0.0,0.0,0.0,0.0,-1.6537,-1.8557,-2.0351,-2.2176,-2.3276,-2.3517,-2.142,-1.9219,-1.7009,0.0,0.0,0.0,0.0,0.0,0.0,0.0,0.0,0.0,0.0,0.0,0.0,0.0,0.0,0.0,0.0,0.0,0.0,0.0,0.0,0.0,0.0,0.0,0.0,0.0,0.0,0.0,0.0,0.0,0.0,0.0,0.0,0.0,0.0,0.0,0.0,0.0,0.0,-1.3593,-1.2968,0.0,0.0,0.0,0.0,0.0,0.0,0.0,0.0,-1.2341,0.0,0.0,0.0,0.0,0.0,0.0,0.0,0.0,0.0,0.0,0.0,0.0,0.0,0.0,0.0,0.0,0.0,0.0,0.0,0.0,0.0,0.0,0.0,0.0,0.0,0.0,0.0,0.0,0.0,0.0,0.0,0.0,0.0,0.0,0.0,0.0,0.0,0.0,0.0,0.0,0.0,0.0,0.0,0.0,0.0,0.0,0.0,0.0,0.0,0.0,0.0,0.0,0.0,0.0,0.0,0.0,-1.5083,-1.7132,-1.9167,-2.1176,-2.2823,-2.33,-2.2462,-2.1188,-1.9287,-1.6717,0.0,0.0,0.0,0.0,0.0,0.0,0.0,0.0,0.0,0.0,0.0,0.0,0.0,0.0,0.0,0.0,0.0,0.0,0.0,0.0,0.0,0.0,0.0,0.0,0.0,0.0,0.0,0.0,0.0,0.0,0.0,0.0,0.0,0.0,0.0,0.0,0.0,0.0,0.0,-1.2574,-1.2116,0.0,0.0,0.0,0.0,0.0,0.0,0.0,0.0,-1.2537,0.0,0.0,0.0,0.0,0.0,0.0,0.0,0.0,0.0,0.0,0.0,0.0,0.0,0.0,0.0,0.0,0.0,0.0,0.0,0.0,0.0,0.0,0.0,0.0,0.0,0.0,0.0,0.0,0.0,0.0,0.0,0.0,0.0,0.0,0.0,0.0,0.0,0.0,0.0,0.0,0.0,0.0,0.0,0.0,0.0,0.0,0.0,0.0,0.0,0.0,0.0,0.0,0.0,0.0,0.0,-1.5358,-1.7412,-1.9136,-2.055,-2.1849,-2.2161,-2.1392,-2.0001,-1.839,0.0,0.0,0.0,0.0,0.0,0.0,0.0,0.0,0.0,0.0,0.0,0.0,0.0,0.0,0.0,0.0,0.0,0.0,0.0,0.0,0.0,0.0,0.0,0.0,0.0,0.0,0.0,0.0,0.0,0.0,0.0,0.0,0.0,0.0,0.0,0.0,0.0,0.0,0.0,0.0,-1.26,-1.2126,-1.2163,0.0,0.0,0.0,0.0,0.0,0.0,-1.3493,-1.3764,0.0,0.0,0.0,0.0,0.0,0.0,0.0,0.0,0.0,0.0,0.0,0.0,0.0,0.0,0.0,0.0,0.0,0.0,0.0,0.0,0.0,0.0,0.0,0.0,0.0,0.0,0.0,0.0,0.0,0.0,0.0,0.0,0.0,0.0,0.0,0.0,0.0,0.0,0.0,0.0,0.0,0.0,0.0,0.0,0.0,0.0,0.0,0.0,0.0,0.0,0.0,0.0,0.0,0.0,0.0,-1.5566,-1.7492,-1.8917,-1.978,-2.073,-2.0935,-2.0298,-1.8701,-1.7361,0.0,0.0,0.0,0.0,0.0,0.0,0.0,0.0,0.0,0.0,0.0,0.0,0.0,0.0,0.0,0.0,0.0,0.0,0.0,0.0,0.0,0.0,0.0,0.0,0.0,0.0,0.0,0.0,0.0,0.0,0.0,0.0,0.0,0.0,0.0,0.0,0.0,0.0,0.0,0.0,0.0,-1.2336,-1.2672,-1.3577,0.0,0.0,0.0,0.0,-1.4414,-1.4514,0.0,0.0,0.0,0.0,0.0,0.0,0.0,0.0,0.0,0.0,0.0,0.0,0.0,0.0,0.0,0.0,0.0,0.0,0.0,0.0,0.0,0.0,0.0,0.0,0.0,0.0,0.0,0.0,0.0,0.0,0.0,0.0,0.0,0.0,0.0,0.0,0.0,0.0,0.0,0.0,0.0,0.0,0.0,0.0,0.0,0.0,0.0,0.0,0.0,0.0,0.0,0.0,0.0,0.0,0.0,0.0,-1.608,-1.7403,-1.8627,-1.9744,-2.0382,-2.0225,-1.9203,-1.806,-1.6751,0.0,0.0,0.0,0.0,0.0,0.0,0.0,0.0,0.0,0.0,0.0,0.0,0.0,0.0,0.0,0.0,0.0,0.0,0.0,0.0,0.0,0.0,0.0,0.0,0.0,0.0,0.0,0.0,0.0,0.0,0.0,0.0,0.0,0.0,0.0,0.0,0.0,0.0,0.0,0.0,0.0,-1.2793,-1.3907,-1.4196,-1.4254,0.0,0.0,0.0,-1.508,-1.5227,0.0,0.0,0.0,0.0,0.0,0.0,0.0,0.0,0.0,0.0,0.0,0.0,0.0,0.0,0.0,0.0,0.0,0.0,0.0,0.0,0.0,0.0,0.0,0.0,0.0,0.0,0.0,0.0,0.0,0.0,0.0,0.0,0.0,0.0,0.0,0.0,0.0,0.0,0.0,0.0,0.0,0.0,0.0,0.0,0.0,0.0,0.0,0.0,0.0,0.0,0.0,0.0,0.0,0.0,0.0,-1.452,-1.6232,-1.7553,-1.8604,-1.93,-1.9576,-1.9324,-1.8566,-1.7195,-1.5998,0.0,0.0,0.0,0.0,0.0,0.0,0.0,0.0,0.0,0.0,0.0,0.0,0.0,0.0,0.0,0.0,0.0,0.0,0.0,0.0,0.0,0.0,0.0,0.0,0.0,0.0,0.0,0.0,0.0,0.0,0.0,0.0,0.0,0.0,0.0,0.0,0.0,0.0,0.0,0.0,0.0,0.0,-1.4747,-1.4907,0.0,0.0,0.0,-1.5653,-1.593,0.0,0.0,0.0,0.0,0.0,0.0,0.0,0.0,0.0,0.0,0.0,0.0,0.0,0.0,0.0,0.0,0.0,0.0,0.0,0.0,0.0,0.0,0.0,0.0,0.0,0.0,0.0,0.0,0.0,0.0,0.0,0.0,0.0,0.0,0.0,0.0,0.0,0.0,0.0,0.0,0.0,0.0,0.0,0.0,0.0,0.0,0.0,0.0,0.0,0.0,0.0,0.0,0.0,0.0,0.0,0.0,0.0,-1.6551,-1.769,-1.8516,-1.9016,-1.8893,-1.8542,-1.7989,-1.6394,0.0,0.0,0.0,0.0,0.0,0.0,0.0,0.0,0.0,0.0,0.0,0.0,0.0,0.0,0.0,0.0,0.0,0.0,0.0,0.0,0.0,0.0,0.0,0.0,0.0,0.0,0.0,-1.0934,0.0,0.0,0.0,0.0,0.0,0.0,0.0,0.0,0.0,0.0,0.0,0.0,0.0,0.0,-1.4832,-1.5723,-1.5608,-1.5418,0.0,0.0,-1.6288,-1.6479,-1.7552,-1.844,0.0,0.0,0.0,0.0,0.0,0.0,0.0,0.0,0.0,0.0,0.0,0.0,0.0,0.0,0.0,0.0,0.0,0.0,0.0,0.0,0.0,0.0,0.0,0.0,0.0,0.0,0.0,0.0,0.0,0.0,0.0,0.0,0.0,0.0,0.0,0.0,0.0,0.0,0.0,0.0,0.0,0.0,0.0,0.0,0.0,0.0,0.0,0.0,0.0,0.0,0.0,0.0,0.0,0.0,0.0,-1.7279,-1.7654,-1.8289,-1.9148,-1.857,-1.8001,-1.746,-1.5888,-1.4842,0.0,0.0,0.0,0.0,0.0,0.0,0.0,0.0,0.0,0.0,0.0,0.0,0.0,0.0,0.0,0.0,0.0,0.0,0.0,0.0,0.0,0.0,0.0,0.0,0.0,0.0,0.0,0.0,0.0,0.0,0.0,0.0,0.0,0.0,0.0,0.0,0.0,0.0,0.0,0.0,0.0,-1.5256,-1.7083,-1.6302,-1.5492,0.0,0.0,-1.5772,-1.6392,-1.7166,-1.7968,-1.8835,0.0,0.0,0.0,0.0,0.0,0.0,0.0,0.0,0.0,0.0,0.0,0.0,0.0,0.0,0.0,0.0,0.0,0.0,0.0,0.0,0.0,0.0,0.0,0.0,0.0,0.0,0.0,0.0,0.0,0.0,0.0,0.0,0.0,0.0,0.0,0.0,0.0,0.0,0.0,0.0,0.0,0.0,0.0,0.0,0.0,0.0,0.0,0.0,0.0,0.0,0.0,0.0,0.0,-1.5734,-1.7363,-1.775,-1.8216,-1.8778,-1.8276,-1.7654,-1.7036,-1.5541,-1.4627,0.0,0.0,0.0,0.0,0.0,0.0,0.0,0.0,0.0,0.0,0.0,0.0,0.0,0.0,0.0,0.0,0.0,0.0,0.0,0.0,0.0,0.0,0.0,0.0,0.0,0.0,0.0,0.0,-1.2562,-1.2742,-1.3177,0.0,0.0,0.0,0.0,0.0,0.0,0.0,0.0,0.0,0.0,-1.6665,-1.6864,-1.6481,0.0,0.0,-1.5951,-1.6203,-1.6129,-1.7434,-1.8499,-1.8607,-1.9696,0.0,0.0,0.0,0.0,0.0,0.0,0.0,0.0,0.0,0.0,0.0,0.0,0.0,0.0,0.0,0.0,0.0,0.0,0.0,0.0,0.0,0.0,0.0,0.0,0.0,0.0,0.0,0.0,0.0,0.0,0.0,0.0,0.0,0.0,0.0,0.0,0.0,0.0,0.0,0.0,0.0,0.0,0.0,0.0,0.0,0.0,0.0,0.0,0.0,0.0,0.0,0.0,-1.5991,-1.7569,-1.7857,-1.8288,-1.8881,-1.8191,-1.7578,-1.708,-1.5617,-1.473,0.0,0.0,0.0,0.0,0.0,0.0,0.0,0.0,0.0,0.0,0.0,0.0,0.0,0.0,0.0,0.0,0.0,0.0,0.0,0.0,0.0,0.0,0.0,0.0,0.0,0.0,0.0,0.0,-1.3332,-1.3473,-1.397,0.0,0.0,0.0,0.0,0.0,0.0,0.0,0.0,0.0,0.0,-1.7416,-1.7228,-1.6949,-1.6637,-1.6398,-1.6834,-1.7121,-1.6954,-1.8157,-1.9112,-1.9108,0.0,0.0,0.0,0.0,0.0,0.0,0.0,0.0,0.0,0.0,0.0,0.0,0.0,0.0,0.0,0.0,0.0,0.0,0.0,0.0,0.0,0.0,0.0,0.0,0.0,0.0,0.0,0.0,0.0,0.0,0.0,0.0,0.0,0.0,0.0,0.0,0.0,0.0,0.0,0.0,0.0,0.0,0.0,0.0,0.0,0.0,0.0,0.0,0.0,0.0,0.0,0.0,0.0,0.0,-1.7964,-1.7977,-1.8523,-1.9479,-1.8425,-1.7786,-1.7736,-1.6234,-1.5151,-1.461,0.0,0.0,0.0,0.0,0.0,0.0,0.0,0.0,0.0,0.0,0.0,0.0,0.0,0.0,0.0,0.0,0.0,0.0,0.0,0.0,0.0,0.0,0.0,0.0,0.0,0.0,-1.404,-1.4099,-1.4198,0.0,0.0,0.0,0.0,0.0,0.0,0.0,0.0,0.0,0.0,-1.7628,-1.7251,-1.8614,-1.7788,-1.7288,-1.7991,-1.8192,-1.847,-1.904,-1.9275,-1.9684,0.0,0.0,0.0,0.0,0.0,0.0,0.0,0.0,0.0,0.0,0.0,0.0,0.0,0.0,0.0,0.0,0.0,0.0,0.0,0.0,0.0,0.0,0.0,0.0,0.0,0.0,0.0,0.0,-1.1004,0.0,0.0,0.0,0.0,0.0,0.0,0.0,0.0,0.0,0.0,0.0,-1.5095,-1.5463,0.0,0.0,0.0,0.0,0.0,0.0,0.0,0.0,0.0,0.0,0.0,0.0,-1.6739,-1.7927,-1.8097,-1.847,-1.9146,-1.8447,-1.7851,-1.7409,-1.6234,-1.5341,-1.4824,0.0,0.0,0.0,0.0,0.0,0.0,0.0,0.0,0.0,0.0,0.0,0.0,0.0,0.0,0.0,0.0,0.0,0.0,0.0,0.0,0.0,0.0,0.0,0.0,0.0,-1.4786,0.0,0.0,0.0,0.0,0.0,0.0,0.0,0.0,0.0,0.0,0.0,-1.8223,-1.8223,-1.865,-1.8838,-1.8477,-1.8433,-1.8405,0.0,0.0,0.0,0.0,0.0,0.0,0.0,0.0,0.0,0.0,0.0,0.0,0.0,0.0,-2.077,-2.0539,-2.0393,-2.0312,-2.0323,0.0,0.0,0.0,0.0,0.0,0.0,0.0,0.0,0.0,0.0,0.0,0.0,0.0,0.0,0.0,0.0,-1.2163,0.0,0.0,0.0,0.0,0.0,0.0,0.0,0.0,-1.5637,-1.682,-1.7805,-1.7934,-1.7967,0.0,-1.7243,-1.6338,0.0,0.0,0.0,0.0,0.0,0.0,0.0,0.0,-1.7095,-1.8023,-1.8344,-1.8732,-1.9221,-1.8593,-1.7981,-1.7535,-1.6362,-1.553,-1.5205,-1.4721,-1.4491,0.0,0.0,0.0,0.0,0.0,0.0,0.0,0.0,0.0,0.0,0.0,0.0,0.0,0.0,0.0,0.0,0.0,0.0,0.0,0.0,0.0,0.0,0.0,-1.5337,0.0,0.0,0.0,0.0,0.0,0.0,0.0,0.0,0.0,-1.8286,-1.8697,-1.8928,-1.8699,-1.9282,-1.9518,-1.9037,0.0,0.0,0.0,0.0,0.0,0.0,0.0,-2.1311,-2.1989,-2.2151,-2.2394,-2.3014,-2.2734,-2.2288,-2.1826,0.0,0.0,-2.1407,-2.1278,-2.1211,-2.1228,-2.168,-2.195,-2.1499,-2.1768,-2.2118,0.0,0.0,0.0,0.0,0.0,0.0,0.0,0.0,-1.3241,-1.3387,0.0,-1.3378,0.0,0.0,0.0,0.0,0.0,0.0,0.0,0.0,-1.8775,-2.0328,-2.1266,-2.0463,-2.0398,-2.0889,-1.9794,-1.9206,-1.8986,-1.6426,0.0,0.0,0.0,0.0,0.0,0.0,-1.7664,-1.8242,-1.8719,-1.9233,-1.971,-1.8744,-1.8179,-1.8078,-1.6547,-1.5693,-1.5706,-1.5289,-1.5025,-1.5025,-1.4728,0.0,0.0,0.0,0.0,0.0,0.0,0.0,0.0,0.0,0.0,0.0,0.0,0.0,0.0,0.0,0.0,0.0,0.0,0.0,0.0,-1.5966,0.0,0.0,0.0,0.0,0.0,0.0,0.0,0.0,0.0,0.0,-1.9017,-1.9049,-1.9296,-1.9991,0.0,0.0,0.0,0.0,-1.9962,-2.1633,-2.1973,-2.2265,-2.3058,-2.3327,-2.3515,-2.36,0.0,0.0,-2.3902,-2.3935,-2.3852,-2.3852,-2.2743,-2.1674,-2.0931,-2.138,-2.1881,-2.1912,-2.2096,-2.2262,-2.2245,-2.2198,-2.2296,-1.7986,0.0,0.0,0.0,0.0,-1.5139,-1.5675,-1.623,-1.6745,-1.6634,-1.5999,-1.5602,0.0,0.0,0.0,0.0,0.0,0.0,-1.8171,-1.9823,-2.092,-2.2012,-2.309,-2.3201,-2.322,-2.3099,-2.2329,-2.1542,-2.0787,-1.963,-1.8376,-1.7121,0.0,0.0,0.0,0.0,-1.7876,-1.8707,-1.892,-1.907,-1.9221,-1.8568,-1.7792,-1.7002,-1.6158,-1.5902,-1.6237,-1.5764,-1.5515,-1.5562,-1.5482,0.0,0.0,0.0,0.0,0.0,0.0,0.0,0.0,0.0,0.0,0.0,0.0,0.0,0.0,0.0,0.0,0.0,0.0,0.0,-1.5219,-1.581,-1.6195,0.0,0.0,0.0,0.0,0.0,0.0,0.0,0.0,0.0,-1.9732,-1.9739,-1.9852,0.0,0.0,-2.0105,-2.0427,-2.044,-2.086,-2.2082,0.0,0.0,0.0,-2.3701,-2.3914,-2.4491,-2.4231,-2.3968,-2.3968,-2.3554,-2.3205,-2.319,-2.2874,-2.2374,-2.1661,-2.1339,-2.13,-2.1328,-2.1818,-2.2093,-2.1651,-2.1904,-2.2313,-2.1261,-1.9364,-1.7556,-1.6856,-1.6986,-1.7401,-1.7856,-1.828,-1.8647,-1.8375,-1.7678,-1.7547,-1.6915,-1.5881,-1.5332,0.0,0.0,0.0,-2.0074,-2.1986,-2.2794,-2.3701,-2.4718,-2.4855,-2.4808,-2.4619,-2.4079,-2.3421,-2.2799,-2.202,-2.0919,-1.9526,0.0,0.0,-1.7633,-1.7938,-1.8426,-1.8983,-1.9208,-1.9208,-1.9008,-1.8267,-1.7438,-1.6559,-1.6195,-1.6183,-1.6475,-1.6195,-1.604,-1.6082,-1.5888,-1.5591,0.0,0.0,0.0,0.0,0.0,0.0,0.0,0.0,0.0,0.0,0.0,-1.5124,0.0,0.0,0.0,0.0,-1.6058,-1.6123,-1.6304,-1.675,0.0,0.0,0.0,0.0,0.0,0.0,0.0,-1.9381,-1.9747,-2.0005,-2.0005,-2.0025,-2.0045,-2.0063,-2.0166,-2.0321,-2.0578,0.0,-2.1147,-2.2264,-2.2476,-2.2818,-2.3654,-2.3819,-2.4,-2.4496,-2.4265,-2.3984,-2.3984,-2.3619,-2.3354,-2.3305,-2.3106,-2.2758,-2.2311,-2.1778,-2.1357,-2.1401,-2.1872,-2.211,-2.1732,-2.1989,-2.2313,-2.3871,-2.3351,-2.0458,-1.9182,-1.9058,-1.9272,-1.9411,-1.9502,-1.9541,-1.9204,-1.8689,-1.9182,-1.8621,-1.7348,-1.7412,0.0,0.0,-2.0381,-2.186,-2.3466,-2.4499,-2.5411,-2.6238,-2.5692,-2.5473,-2.5649,-2.5151,-2.4921,-2.4775,-2.3785,-2.2982,-2.2334,-2.0456,-1.9119,-1.8479,-1.8979,-1.9232,-1.9146,-1.9585,-1.9522,-1.8933,-1.7877,-1.7061,-1.6513,-1.6513,-1.65,-1.6513,-1.65,-1.6513,-1.6488,-1.6094,-1.5833,-1.5777,0.0,0.0,0.0,0.0,0.0,0.0,0.0,0.0,0.0,0.0,0.0,0.0,0.0,0.0,0.0,-1.758,0.0,-1.8224,-1.8241,0.0,0.0,0.0,-1.8872,-1.9633,-1.9744,-1.9848,-1.9988,0.0,0.0,0.0,0.0,-1.9988,-1.9973,-2.0023,-2.022,-2.0728,-2.0695,-2.1048,-2.2329,-2.2525,-2.2818,-2.3605,-2.3786,-2.3885,-2.4034,-2.3951,-2.3901,-2.3967,-2.3884,-2.3884,-2.3818,-2.3354,-2.2841,-2.2808,-2.2237,-2.1911,-2.195,-2.2132,-2.2279,-2.2262,-2.2279,-2.2313,-2.5021,-2.4435,-2.3457,-2.2333,-2.1218,-2.153,-2.1522,-2.1299,-2.1611,-2.1278,-2.0537,-2.0361,-1.9977,-1.9505,-2.0006,-2.0887,-2.2059,-2.341,-2.456,-2.5513,-2.6187,-2.6602,-2.6762,-2.6424,-2.6217,-2.6273,-2.616,-2.585,-2.5423,-2.5134,-2.4305,-2.2945,-2.241,-2.1483,-2.0138,-1.9799,-1.9888,-2.0289,-1.9962,-1.9346,-1.8417,-1.73,-1.6638,-1.6513,-1.6513,-1.6513,-1.6513,-1.6513,-1.6513,-1.65,-1.6384,-1.6162,-1.5828,-1.5318,0.0,0.0,0.0,0.0,0.0,0.0,0.0,0.0,0.0,-1.6087,-1.5532,0.0,-1.7413,0.0,-1.7978,-1.8074,-1.7644,-1.7667,0.0,0.0,-1.8582,-1.8887,-1.9615,-1.9726,-1.9762,-1.9833,-1.9866,-1.9866,-1.9833,-1.9833,-1.983,-1.978,-2.017,-2.0496,-2.0647,-2.1055,-2.1647,-2.2458,-2.2717,-2.3076,-2.372,-2.3935,-2.3918,-2.3984,-2.352,-2.3338,-2.3884,-2.352,-2.3172,-2.3139,-2.304,-2.2707,-2.2193,-2.1954,-2.193,-2.1943,-2.2077,-2.2225,-2.2282,-2.2296,-2.2313,-2.5187,-2.4621,-2.4061,-2.3301,-2.2471,-2.29,-2.2842,-2.2471,-2.2685,-2.2379,-2.1736,-2.1348,-2.1076,-2.1006,-2.1329,-2.2091,-2.3086,-2.3952,-2.4684,-2.5355,-2.6079,-2.6346,-2.6269,-2.6429,-2.6487,-2.6487,-2.6487,-2.6323,-2.6009,-2.5724,-2.5008,-2.386,-2.3609,-2.2937,-2.1769,-2.0715,-2.0377,-2.0679,-1.9648,-1.8807,-1.8191,-1.7077,-1.6513,-1.6513,-1.6513,-1.6513,-1.6513,-1.6513,-1.6522,-1.6565,-1.6599,-1.649,-1.6311,-1.5896,-1.562,0.0,0.0,0.0,0.0,0.0,0.0,0.0,0.0,0.0,0.0,0.0,-1.7924,0.0,-1.8437,0.0,-1.8399,-1.8421,-1.8607,-1.9054,-1.9101,-1.9268,-1.9645,-1.9723,-1.9726,-1.9744,-1.9762,-1.9744,-1.9762,-1.9744,-1.9744,-1.9708,-2.012,-2.0481,-2.0679,-2.1007,-2.1502,-2.2176,-2.2364,-2.2542,-2.2989,-2.3023,-2.3023,-2.3006,-2.2675,-2.2543,-2.294,-2.2675,-2.2409,-2.241,-2.2394,-2.2278,-2.1879,-2.1825,-2.1853,-2.1913,-2.1988,-2.2092,-2.2132,-2.2147,-2.2161,-2.4892,-2.4421,-2.36,-2.3227,-2.3208,-2.3633,-2.3535,-2.3101,-2.3101,-2.2886,-2.2568,-2.2148,-2.1992,-2.2041,-2.1992,-2.2396,-2.3166,-2.3451,-2.382,-2.4237,-2.5223,-2.5572,-2.5373,-2.6054,-2.6411,-2.6487,-2.6487,-2.6487,-2.6474,-2.595,-2.541,-2.4788,-2.4311,-2.3778,-2.307,-2.1631,-2.0792,-2.0566,-1.907,-1.8267,-1.8168,-1.7152,-1.6575,-1.6513,-1.6513,-1.6513,-1.6513,-1.6513,-1.6543,-1.6697,-1.6697,-1.6761,-1.6842,-1.6554,-1.6409,0.0,-1.6311,0.0,0.0,0.0,0.0,0.0,0.0,0.0,0.0,-1.7612,-1.8129,-1.8292,-1.891,-1.9376,-1.9553,-1.9593,-1.9629,-1.9672,-1.9675,-1.9723,-1.9723,-1.9723,-1.9723,-1.9723,-1.9723,-1.9723,-1.9708,-1.9723,-1.9723,-1.9726,-1.9927,-2.0292,-2.0696,-2.086,-2.1167,-2.1721,-2.1781,-2.1897,-2.1913,-2.1864,-2.1864,-2.1831,-2.1864,-2.1781,-2.1864,-2.1847,-2.1814,-2.1814,-2.1847,-2.1814,-2.1781,-2.1781,-2.1811,-2.1869,-2.1899,-2.1928,-2.1984,-2.2013,-2.1998,-2.4706,-2.4425,-2.4209,-2.3975,-2.3682,-2.376,-2.3545,-2.3101,-2.3101,-2.3052,-2.2945,-2.2588,-2.2545,-2.2818,-2.2549,-2.2748,-2.346,-2.4177,-2.4419,-2.4211,-2.5185,-2.5562,-2.5476,-2.5659,-2.603,-2.6465,-2.6487,-2.6487,-2.6487,-2.6386,-2.5799,-2.4813,-2.4687,-2.4123,-2.312,0.0,0.0,0.0,-1.9221,-1.8632,-1.8191,-1.7564,-1.6986,-1.6525,-1.6513,0.0,-1.6513,-1.6513,-1.6543,-1.6675,-1.6697,0.0,0.0,0.0,0.0,0.0,0.0,0.0,0.0,0.0,0.0,0.0,-1.7398,-1.767,-1.7702,-1.8377,-1.8829,-1.8927,-1.9155,-1.9321,-1.9358,-1.9501,-1.9593,-1.9611,-1.9687,-1.9723,-1.9723,-1.9723,-1.9723,-1.9723,-1.9723,-1.9723,-1.9723,-1.9723,-1.9723,-1.9723,-1.9762,-2.0065,-2.0712,-2.1023,-2.134,-2.1738,-2.1781,-2.1781,-2.1781,-2.1781,-2.1781,-2.1781,-2.1781,-2.1781,-2.1781,-2.1781,-2.1781,-2.1781,-2.1781,-2.1781,-2.1781,-2.1781,-2.1796,-2.1811,-2.1811,-2.1855,-2.1969,-2.1998,-2.1998,-2.4453,0.0,-2.3834,-2.3617,0.0,-2.3467,-2.3296,-2.3101,-2.3101,-2.3101,-2.3081,-2.2877,-2.2896,-2.3091,-2.2877,-2.2983,-2.3319,-2.3897,-2.3921,-2.3586,-2.4516,-2.4814,-2.4596,-2.5292,-2.5924,-2.648,-2.6494,-2.6637,-2.6876,-2.6625,-2.6059,-2.5197,-2.4926,-2.4393,-2.3534,-2.2694,-2.1619,-2.0264,-1.9434,-1.8732,-1.8216,-1.7677,-1.7112,-1.6525,0.0,0.0,0.0,0.0,0.0,0.0,0.0,0.0,0.0,0.0,0.0,-1.7143,-1.7661,-1.7932,-1.7811,-1.8086,-1.8184,-1.8057,-1.8339,-1.8475,-1.8467,-1.8829,-1.9078,-1.9176,-1.925,-1.9339,-1.9431,-1.9538,-1.9611,-1.965,-1.9687,-1.9723,-1.9723,-1.9723,-1.9723,-1.9723,-1.9723,-1.9723,-1.9723,-1.9723,-1.9723,-1.9723,-1.9723,-1.996,-2.0629,-2.0942,-2.1214,-2.1691,-2.1781,-2.1781,-2.1781,-2.1781,-2.1781,-2.1781,-2.1781,-2.1781,-2.1781,-2.1781,-2.1781,-2.1781,-2.1781,-2.1781,-2.1781,-2.1781,-2.1781,-2.1781,-2.1781,-2.1811,-2.1899,-2.1913,-2.1897,-2.4058,-2.3426,-2.3178,-2.3101,-2.3101,-2.3101,-2.3101,-2.3101,0.0,0.0,0.0,-2.3101,-2.3101,-2.3101,-2.3101,-2.3101,-2.3091,-2.3319,-2.3169,-2.2807,-2.3669,-2.3907,-2.3583,-2.4745,-2.573,-2.6413,-2.6479,-2.6754,-2.722,-2.6816,-2.6264,-2.5611,-2.5172,-2.4632,-2.3966,-2.2844,-2.187,-2.0981,-1.9874,-1.8983,-1.8343,-1.7815,-1.725,-1.6685,-1.6538,-1.6513,-1.6513,-1.6513,-1.6577,-1.6697,-1.6697,-1.6752,-1.6867,-1.7352,-1.7646,-1.774,-1.8195,-1.86,-1.8836,-1.8841,-1.8917,-1.9101,-1.9116,-1.9078,-1.9017,-1.9059,-1.9139,-1.925,-1.9265,-1.9339,-1.9487,-1.9538,-1.956,-1.9636,-1.9672,-1.9672,-1.969,-1.9723,-1.9723,-1.9723,-1.9723,-1.9723,-1.9723,-1.9723,-1.9723,-1.9723,-1.9723,-1.9975,-2.0613,-2.0958,-2.1246,-2.1708,-2.1781,-2.1781,-2.1781,-2.1781,-2.1781,-2.1781,-2.1781,-2.1781,-2.1781,-2.1781,-2.1781,-2.1781,-2.1781,-2.1781,-2.1781,-2.1781,-2.1781,-2.1781,-2.1781,-2.1781,-2.1781,-2.1781,-2.1812,-2.3252,-2.3135,-2.3101,-2.3101,-2.3101,-2.3101,-2.3101,-2.3101,-2.3101,-2.3101,-2.3101,-2.3101,-2.3101,-2.3101,-2.3101,-2.3101,-2.3101,-2.3135,-2.2963,0.0,-2.3044,-2.3309,-2.3363,-2.3932,-2.4904,-2.6095,-2.637,-2.6712,-2.701,-2.7135,-2.6675,-2.5678,-2.5523,-2.4983,-2.3991,-2.2874,-2.2205,-2.2058,-2.1018,-1.9936,-1.8907,-1.8367,-1.7827,-1.7275,-1.6773,-1.6513,-1.6513,-1.6513,-1.6543,-1.6697,-1.6697,-1.6697,-1.674,-1.7144,-1.7489,-1.7781,-1.824,-1.8669,-1.9011,-1.9064,-1.9049,-1.9116,-1.9116,-1.9116,-1.9082,-1.9082,-1.912,-1.9139,-1.9153,-1.9139,-1.9176,-1.9284,-1.9376,-1.945,-1.9538,-1.9629,-1.969,-1.9708,-1.9723,-1.9723,-1.9723,-1.9723,-1.9723,-1.9723,-1.9723,-1.9723,-1.9744,-1.9993,-2.0646,-2.1293,-2.1646,-2.1783,-2.1781,-2.1781,-2.1781,-2.1781,-2.1781,-2.1781,-2.1781,-2.1781,-2.1781,-2.1781,-2.1781,-2.1781,-2.1781,-2.1781,-2.1781,-2.1781,-2.1781,-2.1781,-2.1781,-2.1781,-2.1781,-2.1781,-2.1825,-2.352,-2.311,-2.3101,-2.3101,-2.3101,-2.3101,-2.3101,-2.3101,-2.3101,-2.3101,-2.3101,-2.3101,-2.3101,-2.3101,-2.3101,-2.3101,-2.3101,-2.3101,-2.2994,-2.2828,-2.3003,-2.3136,-2.3259,-2.3742,-2.4712,-2.6024,-2.5826,-2.6244,-2.7061,-2.681,-2.6129,-2.5206,-2.5071,-2.4666,-2.3998,-2.3489,-2.2924,-2.2309,-2.1257,-2.0289,-1.9434,-1.8907,-1.823,-1.7436,-1.7112,-1.6835,-1.6513,-1.6513,-1.6522,-1.6599,-1.6599,-1.6577,-1.6599,-1.7295,-1.771,-1.7821,-1.8584,-1.9042,-1.9107,-1.9116,-1.9116,-1.9116,-1.9116,-1.9116,-1.9116,-1.9116,-1.9116,-1.9116,-1.9116,-1.912,-1.9209,-1.9265,-1.9306,-1.9409,-1.9534,-1.9611,-1.9647,-1.9672,-1.9723,-1.9723,-1.9723,-1.9723,-1.9723,-1.9723,-1.9723,-1.9708,-1.9821,-2.012,-2.0446,-2.1071,-2.1586,-2.1768,-2.1781,-2.1781,-2.1781,-2.1781,-2.1781,-2.1781,-2.1781,-2.1781,-2.1781,-2.1781,-2.1781,-2.1781,-2.1781,-2.1781,-2.1781,-2.1781,-2.1781,-2.1781,-2.1781,-2.1781,-2.1796,-2.1825,-2.1868,-2.3896,-2.3237,-2.313,-2.3101,-2.3101,-2.3101,-2.3101,-2.3101,-2.3101,-2.3101,-2.3101,-2.3101,-2.3101,-2.3101,-2.3101,-2.3101,-2.3101,-2.3101,-2.3101,-2.3101,-2.3101,-2.3101,-2.3149,-2.3586,-2.4514,-2.5635,-2.5304,-2.5752,-2.6788,-2.6269,-2.5468,-2.4722,-2.4543,-2.4344,-2.4114,-2.4042,-2.3565,-2.2673,-2.1594,-2.0729,-2.0012,-1.9447,-1.8731,-1.7863,-1.7524,-1.7237,-1.6889,-1.6773,-1.6773,-1.6886,-1.6876,-1.6876,-1.6911,-1.7485,-1.7969,-1.8205,-1.8682,-1.8974,-1.8989,-1.9045,-1.9116,-1.9116,-1.9116,-1.9116,-1.9116,-1.9116,-1.9116,-1.9116,-1.9116,-1.9139,-1.9213,-1.9246,-1.9269,-1.9372,-1.9465,-1.9538,-1.9593,-1.9632,-1.969,-1.9708,-1.9723,-1.9723,-1.9723,-1.9723,-1.9723,-1.9744,-1.9927,-2.0087,-2.0243,-2.0714,-2.1166,-2.157,-2.1753,-2.1781,-2.1781,-2.1781,-2.1781,-2.1781,-2.1781,-2.1781,-2.1781,-2.1781,-2.1781,-2.1781,-2.1781,-2.1781,-2.1781,-2.1781,-2.1781,-2.1781,-2.1781,-2.1781,-2.1781,-2.1809,-2.1897,-2.3799,-2.3682,-2.3291,-2.3101,-2.3101,-2.3101,-2.3101,-2.3101,-2.3101,-2.3101,-2.3101,-2.3101,-2.3101,-2.3101,-2.3101,-2.3101,-2.3101,-2.3101,-2.3101,-2.3101,-2.3101,-2.3101,-2.3101,-2.3173,-2.377,-2.4851,-2.4998,-2.5393,-2.6041,-2.573,-2.5122,-2.4296,-2.44,-2.4482,-2.4401,-2.4161,-2.3954,-2.3816,-2.2736,-2.1644,-2.0654,-2.0024,-1.9459,-1.887,-1.7915,-1.7624,-1.7917,-1.7576,-1.7549,-1.8003,-1.8016,-1.8005,-1.7978,-1.7672,-1.8035,-1.9219,-1.8187,-1.7733,-1.8523,-1.8879,-1.9116,-1.9116,-1.9116,-1.9116,-1.9116,-1.9116,-1.9116,-1.9145,-1.913,-1.9101,-1.912,-1.9134,-1.9191,-1.9284,-1.9325,-1.9409,-1.9556,-1.9593,-1.9632,-1.9675,-1.9705,-1.9723,-1.9708,-1.9723,-1.9723,-1.9723,-1.9762,-1.9889,-2.012,-2.0294,-2.0647,-2.1214,-2.1587,-2.1783,-2.1797,-2.1781,-2.1781,-2.1781,-2.1781,-2.1781,-2.1781,-2.1781,-2.1781,-2.1781,-2.1781,-2.1781,-2.1781,-2.1781,-2.1781,-2.1781,-2.1781,-2.1781,-2.1781,-2.1796,-2.184,-2.3867,-2.3354,-2.3169,-2.3101,-2.3101,-2.3101,-2.3101,-2.3101,-2.3101,-2.3101,-2.3101,-2.3101,-2.3101,-2.3101,-2.3101,-2.3101,-2.3101,-2.3101,-2.3101,-2.3101,-2.3101,-2.3101,-2.3101,-2.3101,-2.3691,-2.4669,-2.4488,-2.4661,-2.4984,-2.4277,-2.3863,-2.4105,-2.4235,-2.4354,-2.4506,-2.4797,-2.4795,-2.4469,-2.3715,-2.2924,-2.2133,-2.1255,-2.0376,-1.9547,-1.9045,-1.8581,-1.8229,-1.7978,-1.7978,-1.8179,-1.8204,-1.8041,-1.7739,-1.7815,-1.8084,-1.8509,-1.8417,-1.8665,-1.9508,-1.9285,-1.9116,-1.9116,-1.9116,-1.9116,-1.9116,-1.9116,-1.9246,-1.958,-1.9333,-1.9116,-1.913,-1.9116,-1.912,-1.9176,-1.9246,-1.9354,-1.9395,-1.945,-1.9523,-1.9614,-1.9647,-1.9669,-1.9705,-1.9723,-1.9723,-1.9723,-1.9723,-1.9764,-1.9907,-2.0067,-2.0413,-2.0893,-2.1277,-2.1555,-2.1721,-2.1781,-2.1781,-2.1781,-2.1781,-2.1781,-2.1783,-2.1781,-2.1781,-2.1781,-2.1781,-2.1781,-2.1781,-2.1781,-2.1781,-2.1781,-2.1781,-2.1781,-2.1781,-2.1781,-2.1827,-2.4017,-2.3452,-2.3198,-2.3101,-2.3101,-2.3101,-2.3101,-2.3101,-2.3101,-2.3101,-2.3101,-2.3101,-2.3101,-2.3101,-2.3101,-2.3101,-2.3101,-2.3101,-2.3101,-2.3101,-2.3101,-2.3101,-2.3101,-2.3101,-2.3614,-2.4337,-2.4036,-2.4079,-2.4363,-2.3215,-2.2913,-2.356,-2.3751,-2.3984,-2.4434,-2.5012,-2.5211,-2.4963,-2.4368,-2.3791,-2.3258,-2.2435,-2.1405,-2.0363,-1.9949,-1.9497,-1.892,-1.8581,-1.8505,-1.8631,-1.8643,-1.8468,-1.8091,-1.8304,-1.8239,-1.8026,-1.8996,-1.966,-1.9831,-1.9371,-1.9116,-1.9116,-1.9116,-1.9174,-1.9304,-1.9203,-1.9493,-2.019,-1.9754,-1.9449,-1.9609,-1.9624,-1.9624,-1.9624,-1.9618,-1.9524,-1.9547,-1.9471,-1.9446,-1.9556,-1.9556,-1.9574,-1.9669,-1.969,-1.9723,-1.9723,-1.9723,-1.9723,-1.9726,-1.9925,-2.0206,-2.0579,-2.086,-2.1182,-2.1661,-2.1781,-2.1781,-2.1661,-2.1631,-2.1616,-2.1663,-2.1663,-2.1753,-2.1738,-2.1768,-2.1781,-2.1781,-2.1781,-2.1781,-2.1781,-2.1781,-2.1781,-2.1781,-2.1781,-2.1781,-2.4385,-2.4219,-2.3442,-2.3101,-2.3101,-2.3101,-2.3101,-2.3101,-2.3101,-2.3101,-2.3101,-2.3101,-2.3101,-2.3101,-2.3101,-2.3101,-2.3101,-2.3101,-2.3101,-2.3101,-2.3101,-2.3101,-2.3101,-2.3091,-2.3396,-2.3874,-2.3884,-2.3876,-2.3919,-2.2996,-2.253,-2.2624,-2.2983,-2.3475,-2.4101,-2.4563,-2.4927,-2.5419,-2.4569,-2.4004,-2.3879,-2.3321,-2.2443,-2.143,-2.0401,-2.0075,-2.0314,-1.9522,-1.9183,-1.9698,-1.966,-1.966,-1.9597,-1.9158,-1.8656,-1.8306,-1.9775,-2.0154,-1.897,-1.8965,-1.9116,-1.9116,-1.9116,-1.9377,-1.9856,-1.9508,-1.974,-2.0843,-2.0465,-2.0335,-2.0814,-2.0756,-2.0741,-2.0741,-2.0349,-2.0133,-2.0153,-1.9694,-1.9454,-1.9564,-1.9513,-1.9546,-1.9641,-1.9669,-1.9765,-1.9765,-1.9753,-1.9738,-1.9723,-1.9744,-1.9907,-2.0154,-2.0362,-2.0599,-2.1524,-2.1631,-2.1556,-2.1433,-2.1308,-2.1324,-2.1309,-2.134,-2.1526,-2.1678,-2.1768,-2.1781,-2.1781,-2.1781,-2.1781,-2.1781,-2.1781,-2.1781,-2.1781,-2.1781,-2.1781,-2.4046,-2.3539,-2.3227,-2.3101,-2.3101,-2.3101,-2.3101,-2.3101,-2.3101,-2.3101,-2.3101,-2.3101,-2.3101,-2.3101,-2.3101,-2.3101,-2.3101,-2.3101,-2.3101,-2.3101,-2.3101,-2.3101,-2.3101,-2.3101,-2.3363,-2.3754,-2.3797,-2.3833,-2.3815,-2.2946,-2.2501,-2.2642,-2.3321,-2.3866,-2.4254,-2.5259,-2.5946,-2.6038,-2.5071,-2.4519,-2.4418,-2.3584,-2.2895,-2.2493,-2.1468,-2.0842,-2.0691,-1.9924,-1.961,-1.9798,-1.9798,-1.9622,-1.9309,-1.9024,-1.8939,-1.9048,-1.9579,-1.9794,-1.9539,-1.9238,-1.9116,-1.9116,-1.9116,-1.9406,-1.9894,-1.9914,-2.0262,-2.1249,-2.1467,-2.1598,-2.1881,-2.1525,-2.0988,-2.0959,-2.0814,-2.0689,-2.0593,-2.0176,-1.9856,-1.9897,-1.967,-1.9616,-2.0083,-2.0258,-2.0244,-2.0314,-2.0348,-2.0139,-1.9813,-1.9723,-1.9818,-2.0102,-2.0224,-2.0429,-2.1007,-2.1151,-2.1119,-2.1055,-2.099,-2.0958,-2.0958,-2.1183,-2.1371,-2.1449,-2.157,-2.1781,-2.1781,-2.1781,-2.1781,-2.1781,-2.1781,-2.1781,-2.1781,-2.1781,-2.1781,-2.3958,-2.3335,-2.3149,-2.3179,-2.3286,-2.3149,-2.3179,-2.332,-2.3159,-2.3101,-2.3101,-2.3101,-2.3101,-2.3101,-2.3101,-2.3101,-2.3101,-2.3101,-2.3101,-2.3101,-2.3101,-2.3101,-2.3135,-2.3178,-2.3406,-2.3767,-2.3819,-2.3922,-2.3939,-2.3008,-2.2741,-2.3118,-2.3585,-2.4011,-2.4564,-2.5581,-2.6198,-2.6217,-2.5372,-2.4788,-2.4662,-2.3684,-2.3095,-2.297,-2.2234,-2.1493,-2.0981,-2.0415,-1.9974,-1.9823,-1.9798,-1.9648,-1.9309,-1.9346,-1.9532,-1.9809,-1.9917,-2.004,-2.0255,-1.9783,-1.942,-1.9406,-1.9246,-1.9449,-2.0233,-2.0219,-2.0828,-2.1844,-2.2077,-2.2251,-2.2591,-2.2113,-2.162,-2.1576,-2.1438,-2.1322,-2.1264,-2.0596,-2.0069,-1.9841,-1.9809,-2.0011,-2.0383,-2.0457,-2.0629,-2.0899,-2.0646,-2.0176,-2.0079,-1.9828,-1.978,-1.9995,-2.0015,-2.0255,-2.0702,-2.0893,-2.0752,-2.0657,-2.069,-2.0675,-2.0679,-2.0942,-2.1135,-2.1198,-2.1402,-2.1661,-2.1781,-2.1781,-2.1781,-2.1781,-2.1781,-2.1781,-2.1781,-2.1781,-2.1781,-2.415,-2.3691,-2.3286,-2.3398,-2.3672,-2.3398,-2.3383,-2.3643,-2.3296,-2.314,-2.3101,-2.3101,-2.3101,-2.3101,-2.3101,-2.3101,-2.3101,-2.3101,-2.3101,-2.3101,-2.3101,-2.3101,-2.3091,-2.3319,-2.3537,-2.3777,-2.3862,-2.4094,-2.431,-2.3247,-2.3119,-2.3935,-2.3612,-2.4095,-2.5312,-2.5538,-2.5853,-2.6102,-2.5385,-2.4813,-2.4662,-2.3684,-2.3095,-2.3058,-2.2556,-2.2033,-2.1481,-2.093,-2.0377,-1.9874,-1.9798,-1.9798,-1.9825,-2.0129,-2.0443,-2.0351,-2.0785,-2.0995,-2.0829,-2.0327,-2.0023,-1.9966,-1.9517,-1.9798,-2.0727,-2.0596,-2.1017,-2.2359,-2.2417,-2.2287,-2.2757,-2.2772,-2.2722,-2.2801,-2.2272,-2.2004,-2.1786,-2.0901,-1.9885,-1.9531,-1.9888,-2.0298,-2.0289,-2.0539,-2.0868,-2.108,-2.0633,-2.0106,-2.0367,-2.0045,-1.9753,-1.9726,-1.9797,-2.001,-2.0369,-2.0666,-2.0455,-2.0301,-2.0371,-2.0408,-2.0356,-2.0513,-2.0729,-2.0845,-2.1324,-2.1586,-2.1781,-2.1781,-2.1781,-2.1781,-2.1781,-2.1781,-2.1781,-2.1781,-2.1781,-2.3994,-2.3354,-2.3525,-2.3662,-2.3809,-2.3945,-2.3965,-2.3789,-2.3633,-2.3418,-2.313,-2.3101,-2.3101,-2.3101,-2.3101,-2.3101,-2.3101,-2.3101,-2.3101,-2.3101,-2.3101,-2.3101,-2.3091,-2.3188,-2.3363,-2.3614,-2.3945,-2.4192,-2.4161,-2.3566,-2.3781,-2.4658,-2.4842,-2.5154,-2.5841,-2.6391,-2.6691,-2.6377,-2.5385,-2.48,-2.4687,-2.3697,-2.3108,-2.3083,-2.292,-2.2431,-2.1531,-2.0981,-2.0427,-1.9836,-1.9798,-1.9798,-1.985,-1.9952,-2.0026,-1.9935,-2.0043,-2.0115,-2.0031,-2.0175,-2.0266,-2.0251,-2.0292,-2.0793,-2.1525,-2.1481,-2.1794,-2.2757,-2.2722,-2.2751,-2.2844,-2.2888,-2.2888,-2.2888,-2.2736,-2.2562,-2.2432,-2.1837,-2.0986,-2.0123,-2.0405,-2.0655,-2.0617,-2.0916,-2.1401,-2.1409,-2.103,-2.0792,-2.0514,-2.0068,-1.9738,-1.9723,-1.9738,-1.9798,-2.0183,-2.0423,-2.0309,-2.0225,-2.0276,-2.0175,-2.0109,-2.0206,-2.0395,-2.0697,-2.1182,-2.151,-2.1676,-2.1781,-2.1781,-2.1781,-2.1781,-2.1781,-2.1781,-2.1781,-2.1781,-2.4248,-2.3617,-2.3906,-2.4121,-2.4248,-2.4394,-2.4268,-2.4014,-2.3848,-2.3545,-2.3159,-2.3101,-2.3101,-2.3101,-2.3101,-2.3101,-2.3101,-2.3101,-2.3101,-2.3101,-2.3101,-2.3101,-2.3101,-2.3222,-2.345,-2.3774,-2.4067,-2.4249,-2.4294,-2.4242,-2.4641,-2.5516,-2.5915,-2.6239,-2.6553,-2.6994,-2.704,-2.6449,-2.5573,-2.5021,-2.465,-2.3929,-2.3321,-2.3145,-2.3095,-2.2644,-2.1832,-2.1295,-2.0641,-1.9962,-1.9798,-1.9798,-1.9798,-1.9811,-1.9864,-2.002,-2.0061,-2.0109,-2.0205,-2.0543,-2.0623,-2.0696,-2.0861,-2.1293,-2.1815,-2.2004,-2.228,-2.2757,-2.2873,-2.2888,-2.2888,-2.2888,-2.2888,-2.2888,-2.2873,-2.2772,-2.2591,-2.2251,-2.1604,-2.0831,-2.0802,-2.0939,-2.1205,-2.0947,-2.162,-2.1513,-2.1093,-2.0823,-2.0368,-2.0031,-1.9815,-1.9705,-1.9723,-1.9857,-2.0082,-2.0154,-2.0139,-2.016,-2.0209,-2.002,-1.9863,-2.0102,-2.0328,-2.0713,-2.1167,-2.1386,-2.1586,-2.1736,-2.1781,-2.1781,-2.1781,-2.1781,-2.1781,-2.1781,-2.1781,-2.4758,-2.4443,-2.4473,-2.4736,-2.5019,-2.4756,-2.459,-2.4385,-2.4033,-2.3594,-2.3179,-2.3101,-2.3101,-2.3101,-2.3101,-2.3101,-2.3101,-2.3101,-2.3101,-2.3101,-2.3101,-2.3101,-2.3144,-2.3319,-2.3634,-2.3991,-2.412,-2.4249,-2.4433,-2.4879,-2.5609,-2.6291,-2.6771,-2.7103,-2.7268,-2.7344,-2.7045,-2.643,-2.5828,-2.5302,-2.4863,-2.4311,-2.3828,-2.3321,-2.3233,-2.2932,-2.2385,-2.1656,-2.088,-1.9962,-1.9798,-1.9798,-1.9798,-1.9798,-2.0004,-2.0357,-2.0522,-2.0693,-2.1062,-2.0986,-2.1068,-2.1131,-2.1176,-2.1351,-2.2011,-2.2207,-2.2359,-2.2815,-2.2888,-2.2888,-2.2888,-2.2888,-2.2888,-2.2888,-2.2888,-2.2693,-2.2193,-2.2106,-2.1786,-2.1278,-2.109,-2.1235,-2.172,-2.1009,-2.1283,-2.1482,-2.0783,-2.0362,-2.0311,-2.0209,-1.9793,-1.9725,-1.9836,-2.0202,-2.0501,-2.0082,-2.0079,-2.0303,-2.0228,-1.9917,-1.9738,-1.996,-2.0208,-2.063,-2.099,-2.123,-2.1479,-2.1631,-2.1751,-2.1781,-2.1781,-2.1781,-2.1781,-2.1781,-2.1781,-2.4089,-2.4446,-2.5117,-2.5411,-2.5596,-2.5752,-2.5478,-2.4883,-2.4434,-2.3867,-2.3237,-2.3101,-2.312,-2.3101,-2.3101,-2.3101,-2.3101,-2.3101,-2.3101,-2.3101,-2.3101,-2.3101,-2.3135,-2.3363,-2.3547,-2.3721,-2.3884,-2.4024,-2.4325,-2.5061,-2.5942,-2.6903,-2.7636,-2.7907,-2.7729,-2.7628,-2.7142,-2.632,-2.571,-2.5407,-2.5302,-2.4883,-2.4525,-2.4362,-2.3966,-2.3477,-2.2807,-2.1581,-2.0603,-1.9899,-1.9798,-1.9798,-1.9798,-1.9798,-1.9875,-2.0003,-2.0055,-2.008,-2.027,-2.0601,-2.0922,-2.1352,-2.1642,-2.2118,-2.2613,-2.2664,-2.2728,-2.2888,-2.2888,-2.2888,-2.2888,-2.2888,-2.2888,-2.2888,-2.2888,-2.283,-2.2678,-2.2649,-2.2432,-2.1917,-2.2084,-2.1953,-2.1656,-2.1714,-2.1917,-2.1865,-2.1272,-2.0558,-2.0568,-2.0152,-1.9637,-1.9972,-2.0203,-2.0613,-2.0737,-2.0247,-2.0109,-2.0408,-2.0258,-1.9813,-1.9723,-1.9797,-2.0048,-2.0309,-2.0663,-2.0926,-2.1293,-2.1555,-2.1646,-2.1768,-2.1781,-2.1781,-2.1781,-2.1781,-2.1781,-2.4813,-2.5049,-2.5859,-2.623,-2.6309,-2.6543,-2.6162,-2.541,-2.5078,-2.4436,-2.3734,-2.3432,-2.3418,-2.3354,-2.3188,-2.3101,-2.3101,-2.3101,-2.3101,-2.3101,-2.3101,-2.3188,-2.3276,-2.345,-2.3547,-2.3624,-2.3701,-2.3884,-2.4272,-2.5284,-2.6235,-2.6964,-2.8131,-2.836,-2.7669,-2.7668,-2.7209,-2.6315,-2.5819,-2.5685,-2.5586,-2.5322,-2.4858,-2.4582,-2.4117,-2.3653,-2.2732,-2.1845,-2.1004,-2.0352,-1.9975,-1.9798,-1.9798,-1.9798,-1.9798,-1.9798,-1.9798,-1.9824,-1.9901,-2.0321,-2.082,-2.1369,-2.1898,-2.2394,-2.276,-2.2888,-2.2888,-2.2888,-2.2888,-2.2888,-2.2888,-2.2888,-2.2888,-2.2888,-2.2888,-2.2888,-2.2888,-2.2859,-2.2743,-2.2533,-2.2425,-2.2446,-2.1765,-2.2084,-2.2062,-2.1866,-2.1175,-2.0799,-2.0596,-2.0017,-1.976,-2.0183,-2.0437,-2.0748,-2.0946,-2.0587,-2.0168,-2.0423,-2.0183,-1.9753,-1.9723,-1.9723,-1.9907,-2.0137,-2.0393,-2.0696,-2.1119,-2.1449,-2.1587,-2.1678,-2.1753,-2.1766,-2.1766,-2.1781,-2.1781,-2.6121,-2.5898,-2.6748,-2.708,-2.706,-2.707,-2.6592,-2.584,-2.5635,-2.5118,-2.4394,-2.3945,-2.374,-2.376,-2.332,-2.3101,-2.3101,-2.3188,-2.3198,-2.3188,-2.3193,-2.3222,-2.346,-2.3406,-2.3537,-2.3667,-2.3754,-2.3787,-2.4251,-2.5621,-2.64,-2.6935,-2.8211,-2.8474,-2.7889,-2.7656,-2.715,-2.6514,-2.6325,-2.6105,-2.5866,-2.5711,-2.536,-2.4757,-2.4305,-2.3627,-2.2782,-2.2192,-2.1807,-2.0918,-2.0238,-1.9936,-1.9861,-1.9798,-1.9798,-1.9798,-1.9798,-1.9798,-1.985,-2.0232,-2.0696,-2.1199,-2.1756,-2.2324,-2.2661,-2.282,-2.2888,-2.2888,-2.2888,-2.2888,-2.2888,-2.2888,-2.2888,-2.2888,-2.2888,-2.2888,-2.2888,-2.2888,-2.2888,-2.2859,-2.2388,-2.2446,-2.2417,-2.2069,-2.1467,-2.228,-2.1575,-2.1195,-2.0834,-2.0328,-2.0258,-2.0567,-2.0722,-2.0793,-2.0912,-2.0942,-2.0569,-2.0393,-2.0019,-1.9723,-1.9723,-1.9744,-1.9871,-2.005,-2.0376,-2.0679,-2.1055,-2.1293,-2.1495,-2.1602,-2.1661,-2.1706,-2.1736,-2.1766,-2.1781,-2.6034,-2.6787,-2.7305,-2.7519,-2.7529,-2.751,-2.7041,-2.624,-2.5889,-2.5274,-2.4492,-2.3994,-2.3838,-2.3809,-2.3428,-2.3101,-2.3218,-2.3496,-2.3643,-2.3603,-2.3227,-2.3295,-2.3446,-2.3388,-2.3339,-2.3547,-2.359,-2.3624,-2.4166,-2.5442,-2.6483,-2.673,-2.8056,-2.8772,-2.8195,-2.7973,-2.7681,-2.696,-2.6785,-2.6592,-2.6292,-2.6248,-2.6109,-2.5707,-2.4983,-2.4023,-2.3083,-2.2518,-2.218,-2.1782,-2.1054,-2.0363,-1.9974,-1.9823,-1.9798,-1.9798,-1.9798,-1.9798,-1.9824,-1.9952,-2.0207,-2.0795,-2.1286,-2.1803,-2.2301,-2.2646,-2.2843,-2.2888,-2.2888,-2.2843,-2.2888,-2.2888,-2.2888,-2.2888,-2.2888,-2.2888,-2.2888,-2.2888,-2.2888,-2.2844,-2.2757,-2.2765,-2.2896,-2.2714,-2.2446,-2.2562,-2.2193,-2.1691,-2.1164,-2.0621,-2.0637,-2.0799,-2.0576,-2.0631,-2.1014,-2.0929,-2.046,-2.021,-1.9899,-1.9723,-1.9723,-1.9723,-1.9815,-2.0048,-2.0359,-2.0678,-2.086,-2.1324,-2.154,-2.157,-2.1601,-2.1663,-2.1708,-2.1753,-2.1797,-2.6787,-2.7363,-2.7783,-2.7959,-2.7959,-2.7949,-2.748,-2.6748,-2.6445,-2.5801,-2.5078,-2.458,-2.4394,-2.4355,-2.3955,-2.374,-2.3734,-2.3955,-2.4082,-2.4043,-2.3838,-2.3805,-2.3884,-2.3771,-2.3673,-2.3549,-2.3493,-2.3537,-2.395,-2.5147,-2.6152,-2.6318,-2.7943,-2.8445,-2.8098,-2.8064,-2.753,-2.6881,-2.6792,-2.67,-2.6427,-2.6465,-2.6298,-2.5946,-2.5034,-2.4092,-2.3521,-2.297,-2.2569,-2.2234,-2.1732,-2.1041,-2.0327,-1.9949,-1.9823,-1.9798,-1.9798,-1.9798,-1.9798,-1.9824,-2.0029,-2.0535,-2.0883,-2.1444,-2.1888,-2.2263,-2.2449,-2.2715,-2.2729,-2.2638,-2.2865,-2.2888,-2.2888,-2.2888,-2.2888,-2.2888,-2.2888,-2.2888,-2.2888,-2.2888,-2.2859,-2.2859,-2.2888,-2.2888,-2.2859,-2.2736,-2.2287,-2.1822,-2.1495,-2.1009,-2.0792,-2.0739,-2.037,-2.0432,-2.0981,-2.0852,-2.021,-1.9964,-1.9758,-1.969,-1.9723,-1.9723,-1.9723,-1.9975,-2.017,-2.0273,-2.0496,-2.1007,-2.1463,-2.1463,-2.151,-2.1587,-2.1679,-2.1802,-2.1814,-2.7764,-2.7845,-2.8144,-2.8252,-2.8203,-2.8164,-2.7656,-2.6943,-2.6914,-2.6338,-2.5752,-2.5264,-2.4988,-2.4932,-2.4551,-2.4434,-2.4473,-2.4375,-2.4346,-2.4326,-2.4307,-2.4121,-2.4062,-2.3994,-2.3844,-2.3485,-2.3535,-2.3437,-2.3677,-2.4819,-2.5819,-2.611,-2.7632,-2.8345,-2.7984,-2.784,-2.7682,-2.7115,-2.7016,-2.6839,-2.6507,-2.6518,-2.6189,-2.5532,-2.4931,-2.4185,-2.3804,-2.3354,-2.2947,-2.2426,-2.2343,-2.1791,-2.1094,-2.0327,-1.9936,-1.9936,-1.9899,-1.9798,-1.9798,-1.9824,-2.0003,-2.0459,-2.0585,-2.0968,-2.1589,-2.1708,-2.1931,-2.218,-2.231,-2.2263,-2.2692,-2.2729,-2.2797,-2.2865,-2.2888,-2.2888,-2.2888,-2.2888,-2.2888,-2.2888,-2.2888,-2.2888,-2.2888,-2.2888,-2.2888,-2.2815,-2.2374,-2.2033,-2.175,-2.1472,-2.1272,-2.1085,-2.0818,-2.0389,-2.0789,-2.059,-1.9964,-1.9867,-1.968,-1.9672,-1.9723,-1.9723,-1.9708,-1.9729,-1.9889,-2.005,-2.0361,-2.0909,-2.1214,-2.1293,-2.148,-2.1616,-2.1756,-2.1865,-2.198,-2.8193,-2.8193,-2.8262,-2.8096,-2.7855,-2.7836,-2.7366,-2.6572,-2.6543,-2.6221,-2.5674,-2.5273,-2.5098,-2.499,-2.4619,-2.4629,-2.4844,-2.4678,-2.4473,-2.4463,-2.4414,-2.4124,-2.3705,-2.3926,-2.3682,-2.3389,-2.3516,-2.3511,-2.3664,-2.4819,-2.5788,-2.6205,-2.7632,-2.843,-2.85,-2.8594,-2.8358,-2.7865,-2.7607,-2.7295,-2.6941,-2.6584,-2.6136,-2.5502,-2.507,-2.4528,-2.3788,-2.3497,-2.322,-2.2809,-2.2379,-2.2156,-2.18,-2.1066,-2.0602,-2.0402,-2.0087,-1.9899,-1.9811,-1.9824,-1.985,-2.0029,-2.0308,-2.056,-2.0919,-2.1164,-2.1369,-2.1551,-2.1694,-2.1779,-2.2254,-2.2324,-2.2532,-2.2715,-2.2783,-2.2828,-2.2865,-2.2843,-2.2865,-2.2888,-2.2888,-2.2888,-2.2888,-2.2888,-2.2888,-2.2888,-2.2707,-2.2533,-2.2388,-2.2105,-2.1835,-2.1643,-2.1436,-2.0936,-2.0597,-2.0186,-1.9756,-1.9819,-1.9737,-1.9705,-1.9723,-1.9723,-1.9726,-1.9744,-1.9889,-2.0152,-2.0495,-2.0844,-2.1167,-2.1376,-2.1531,-2.1724,-2.2119,-2.2466,-2.266,-2.8301,-2.8301,-2.8301,-2.8174,-2.8022,-2.7754,-2.7314,-2.6728,-2.6484,-2.6143,-2.5732,-2.5508,-2.541,-2.5361,-2.5225,-2.5196,-2.5234,-2.4951,-2.4766,-2.4736,-2.4502,-2.4248,-2.3734,-2.4023,-2.3828,-2.3643,-2.3682,-2.3875,-2.3937,-2.5126,-2.6008,-2.6741,-2.7886,-2.855,-2.8618,-2.8593,-2.8512,-2.8293,-2.7878,-2.7458,-2.7008,-2.6474,-2.5958,-2.5691,-2.5299,-2.4748,-2.4099,-2.3607,-2.3324,-2.2922,-2.2613,-2.2519,-2.2292,-2.1836,-2.1076,-2.0751,-2.0427,-2.0087,-1.9874,-1.9798,-1.9824,-1.9824,-2.008,-2.0334,-2.0472,-2.0622,-2.0746,-2.0968,-2.1321,-2.1489,-2.1766,-2.1789,-2.2039,-2.2356,-2.2333,-2.2426,-2.2692,-2.2638,-2.2729,-2.2857,-2.2888,-2.2888,-2.2888,-2.2888,-2.2888,-2.2888,-2.2888,-2.2888,-2.2888,-2.2556,-2.2171,-2.193,-2.1645,-2.1205,-2.0764,-2.0386,-1.9901,-1.9864,-1.9819,-1.9803,-1.9705,-1.9705,-1.9723,-1.9708,-1.994,-2.0118,-2.0273,-2.0478,-2.0968,-2.1488,-2.1922,-2.2321,-2.2749,-2.3094,-2.3323,-2.8301,-2.8301,-2.8301,-2.8242,-2.8105,-2.7715,-2.7275,-2.6865,-2.6426,-2.6055,-2.5723,-2.5674,-2.5664,-2.5645,-2.5625,-2.5596,-2.5606,-2.5176,-2.4883,-2.4824,-2.4687,-2.4502,-2.4316,-2.4443,-2.4326,-2.3975,-2.3945,-2.4112,-2.4495,-2.5326,-2.6257,-2.7092,-2.8007,-2.851,-2.851,-2.855,-2.8304,-2.812,-2.7788,-2.7324,-2.671,-2.6218,-2.5875,-2.5828,-2.5399,-2.4909,-2.4144,-2.379,-2.3278,-2.2917,-2.2671,-2.2684,-2.2743,-2.2307,-2.1646,-2.1041,-2.0734,-2.0334,-2.0059,-1.9759,-1.9747,-1.9747,-1.9773,-2.0029,-2.0182,-2.0156,-2.0055,-2.0434,-2.0746,-2.1077,-2.1188,-2.1237,-2.1503,-2.1827,-2.1742,-2.1694,-2.231,-2.2546,-2.2569,-2.2706,-2.282,-2.2888,-2.2888,-2.2888,-2.2888,-2.2888,-2.2888,-2.2888,-2.2859,-2.2649,-2.2309,-2.2048,-2.1764,-2.1357,-2.1047,-2.0885,-2.0431,-2.0116,-2.0038,-1.9972,-1.9833,-1.969,-1.9705,-1.9723,-1.9741,-1.9904,-1.9995,-2.0204,-2.0672,-2.1325,-2.2216,-2.2686,-2.2752,-2.349,-2.415,-2.8301,-2.8301,-2.8301,-2.8076,-2.7725,-2.7314,-2.6865,-2.6475,-2.6055,-2.5801,-2.5684,-2.5684,-2.5684,-2.5625,-2.5361,-2.542,-2.54,-2.5,-2.4658,-2.4687,-2.4766,-2.4492,-2.4092,-2.4707,-2.4473,-2.416,-2.4199,-2.4386,-2.4833,-2.5528,-2.6373,-2.7324,-2.8094,-2.851,-2.851,-2.851,-2.8593,-2.857,-2.8173,-2.7493,-2.6723,-2.617,-2.5856,-2.5664,-2.5545,-2.5109,-2.4265,-2.3914,-2.3462,-2.2682,-2.2487,-2.2555,-2.2665,-2.2684,-2.2272,-2.16,-2.0899,-2.0234,-2.0165,-1.9926,-1.9756,-1.9782,-1.9759,-1.9837,-1.9901,-1.9927,-1.985,-1.9862,-2.0055,-2.027,-2.0622,-2.0684,-2.0979,-2.1224,-2.1321,-2.1599,-2.2123,-2.2217,-2.2263,-2.2706,-2.2865,-2.2888,-2.2888,-2.2888,-2.2888,-2.2888,-2.2888,-2.2888,-2.2844,-2.2678,-2.2417,-2.2142,-2.2091,-2.1743,-2.1349,-2.117,-2.088,-2.046,-2.0174,-2.0054,-1.9856,-1.9669,-1.9705,-1.9723,-1.9723,-1.978,-1.996,-2.0202,-2.0491,-2.1156,-2.2066,-2.2361,-2.2459,-2.3456,-2.4707,-2.8301,-2.8301,-2.8301,-2.8193,-2.7939,-2.7314,-2.6914,-2.6631,-2.5986,-2.5684,-2.5684,-2.5684,-2.5684,-2.5625,-2.5508,-2.5557,-2.5576,-2.5049,-2.4795,-2.4687,-2.4717,-2.4394,-2.3994,-2.4121,-2.4102,-2.3975,-2.4096,-2.4873,-2.5399,-2.6107,-2.6867,-2.8222,-2.8414,-2.851,-2.851,-2.851,-2.8618,-2.8482,-2.7989,-2.7211,-2.6615,-2.6177,-2.5839,-2.5478,-2.6021,-2.5624,-2.4878,-2.429,-2.3935,-2.3256,-2.2795,-2.2371,-2.2463,-2.2451,-2.2244,-2.2019,-2.1328,-2.0868,-2.0631,-2.0252,-2.006,-1.9952,-1.9907,-1.9798,-1.9798,-1.9798,-1.9798,-1.9798,-1.9798,-1.9952,-2.0093,-2.0131,-2.0459,-2.0721,-2.0832,-2.1431,-2.1803,-2.1742,-2.1908,-2.2426,-2.2888,-2.2888,-2.2888,-2.2888,-2.2888,-2.2888,-2.2888,-2.2888,-2.2888,-2.283,-2.2548,-2.2236,-2.2236,-2.2222,-2.18,-2.147,-2.1219,-2.0768,-2.0041,-1.9916,-1.976,-1.9647,-1.9687,-1.9723,-1.9723,-1.9815,-1.9942,-2.0131,-2.0368,-2.1108,-2.1932,-2.231,-2.2717,-2.3807,-2.4834,-2.8301,-2.8301,-2.8301,-2.8242,-2.8066,-2.7324,-2.6934,-2.6748,-2.6005,-2.5684,-2.5684,-2.5684,-2.5684,-2.5635,-2.5605,-2.5547,-2.5645,-2.5166,-2.5029,-2.4902,-2.4727,-2.4394,-2.4189,-2.4062,-2.3994,-2.3447,-2.4321,-2.5255,-2.6292,-2.698,-2.7695,-2.9227,-2.8699,-2.8546,-2.851,-2.851,-2.8578,-2.8612,-2.7849,-2.722,-2.682,-2.648,-2.6154,-2.6105,-2.6334,-2.6453,-2.5588,-2.4807,-2.4309,-2.376,-2.2797,-2.229,-2.234,-2.2278,-2.2235,-2.2084,-2.1699,-2.1535,-2.1136,-2.0729,-2.0424,-2.0236,-2.0107,-1.9874,-2.0075,-1.9975,-1.9936,-2.0062,-1.9849,-1.9823,-1.9798,-1.9824,-2.0029,-2.0232,-2.0295,-2.1017,-2.1636,-2.1756,-2.1992,-2.254,-2.2888,-2.2888,-2.2888,-2.2888,-2.2888,-2.2888,-2.2888,-2.2888,-2.2859,-2.2844,-2.2664,-2.2316,-2.2236,-2.2345,-2.2294,-2.1909,-2.1601,-2.1129,-2.0405,-1.9849,-1.9738,-1.9692,-1.9705,-1.9723,-1.9768,-1.9744,-1.9833,-2.0023,-2.024,-2.0764,-2.1386,-2.2454,-2.3258,-2.4253,-2.4816,-2.8301,-2.8301,-2.8281,-2.8076,-2.7767,-2.7217,-2.6797,-2.6514,-2.5918,-2.5684,-2.5684,-2.5684,-2.5684,-2.5615,-2.5459,-2.5439,-2.5645,-2.4853,-2.4893,-2.5077,-2.5037,-2.4697,-2.4482,-2.4473,-2.4653,-2.4493,-2.4877,-2.5928,-2.702,-2.7453,-2.827,-2.9085,-2.8751,-2.8582,-2.851,-2.851,-2.851,-2.8445,-2.7804,-2.7527,-2.7286,-2.7031,-2.6681,-2.6693,-2.6753,-2.6609,-2.6045,-2.5204,-2.4566,-2.4104,-2.2963,-2.233,-2.2373,-2.2265,-2.2209,-2.2149,-2.2113,-2.1951,-2.1729,-2.0986,-2.0266,-2.0123,-2.0051,-2.0023,-2.0211,-1.9999,-2.0075,-2.0313,-1.9987,-1.9823,-1.9798,-1.9824,-1.9875,-2.0003,-2.0258,-2.0964,-2.1588,-2.1973,-2.2254,-2.2715,-2.2902,-2.2946,-2.2989,-2.3004,-2.2902,-2.2888,-2.2888,-2.2888,-2.2757,-2.2736,-2.2664,-2.2446,-2.2265,-2.2359,-2.2722,-2.241,-2.1931,-2.1535,-2.0949,-2.0287,-1.982,-1.9789,-1.9893,-1.9899,-1.9941,-1.9824,-1.9783,-2.0089,-2.0282,-2.0295,-2.0889,-2.2156,-2.3111,-2.3929,-2.4443,-2.7744,-2.7529,-2.7783,-2.8022,-2.7998,-2.7314,-2.6914,-2.667,-2.5996,-2.5684,-2.5684,-2.5684,-2.5684,-2.5625,-2.5615,-2.5557,-2.5645,-2.5401,-2.5352,-2.5303,-2.5205,-2.4824,-2.459,-2.451,-2.4459,-2.4901,-2.5406,-2.6494,-2.8034,-2.7965,-2.8437,-2.8838,-2.8699,-2.8582,-2.851,-2.851,-2.851,-2.8282,-2.7702,-2.7234,-2.715,-2.703,-2.6729,-2.6442,-2.7606,-2.751,-2.7043,-2.6045,-2.5504,-2.4807,-2.352,-2.2907,-2.257,-2.239,-2.2246,-2.2197,-2.2197,-2.2197,-2.2132,-2.1378,-2.0807,-2.0241,-2.0211,-2.0207,-2.0181,-1.9794,-1.9821,-1.9922,-2.0012,-1.9899,-1.9823,-1.9811,-1.985,-1.9952,-2.036,-2.1029,-2.1597,-2.2066,-2.2649,-2.3167,-2.3134,-2.3084,-2.3128,-2.3171,-2.3004,-2.2888,-2.2888,-2.2859,-2.2772,-2.2707,-2.2649,-2.262,-2.2432,-2.2272,-2.2606,-2.2417,-2.2193,-2.1843,-2.1439,-2.0837,-2.0262,-2.0205,-2.0277,-2.0225,-2.0266,-2.0348,-2.0363,-2.0348,-2.0382,-2.0467,-2.1106,-2.2103,-2.294,-2.3631,-2.3963,-2.7295,-2.706,-2.7353,-2.7559,-2.7637,-2.708,-2.6758,-2.6543,-2.5947,-2.5684,-2.5684,-2.5684,-2.5684,-2.5684,-2.5674,-2.5547,-2.5547,-2.5528,-2.5576,-2.5633,-2.5607,-2.5315,-2.5065,-2.5179,-2.5682,-2.5758,-2.6087,-2.7146,-2.8259,-2.8087,-2.8427,-2.8733,-2.8727,-2.8558,-2.851,-2.851,-2.851,-2.8282,-2.7858,-2.7366,-2.7402,-2.7402,-2.733,-2.7067,-2.7969,-2.8198,-2.7609,-2.6719,-2.6033,-2.5372,-2.4398,-2.3324,-2.2951,-2.2666,-2.239,-2.2258,-2.2197,-2.2197,-2.2096,-2.1795,-2.116,-2.0318,-2.0274,-2.012,-1.9885,-1.9662,-1.9677,-2.0045,-2.006,-2.0036,-2.0036,-2.0151,-2.032,-2.0514,-2.0699,-2.1269,-2.1859,-2.2372,-2.3017,-2.3589,-2.3482,-2.3389,-2.3403,-2.3432,-2.3171,-2.2989,-2.2888,-2.2888,-2.2859,-2.2786,-2.2728,-2.2722,-2.2678,-2.2519,-2.2403,-2.2446,-2.2454,-2.2061,-2.1672,-2.1304,-2.0886,-2.0823,-2.0798,-2.0856,-2.0914,-2.0972,-2.1006,-2.1006,-2.0857,-2.0673,-2.1419,-2.2149,-2.2641,-2.3247,-2.345,-2.7012,-2.7021,-2.7012,-2.6816,-2.6543,-2.6426,-2.6221,-2.5986,-2.5752,-2.5684,-2.5684,-2.5684,-2.5684,-2.5664,-2.5635,-2.5508,-2.5381,-2.5547,-2.5508,-2.5454,-2.6189,-2.6295,-2.6368,-2.6502,-2.6853,-2.6865,-2.7171,-2.764,-2.8249,-2.8339,-2.8558,-2.8579,-2.857,-2.851,-2.851,-2.851,-2.851,-2.8486,-2.8378,-2.8222,-2.8065,-2.8053,-2.8005,-2.7789,-2.8222,-2.8402,-2.7921,-2.6959,-2.6334,-2.5973,-2.4662,-2.3673,-2.3168,-2.3011,-2.2654,-2.2246,-2.2209,-2.2197,-2.2149,-2.1819,-2.1134,-2.0353,-2.0333,-2.0192,-2.0045,-1.9826,-1.9746,-2.0215,-2.0441,-2.0532,-2.0613,-2.0643,-2.0831,-2.1017,-2.1171,-2.1553,-2.2144,-2.2559,-2.3161,-2.3931,-2.394,-2.3833,-2.3804,-2.3717,-2.3374,-2.3142,-2.2946,-2.2888,-2.2888,-2.2859,-2.2801,-2.2786,-2.2772,-2.2728,-2.2649,-2.2757,-2.2686,-2.2309,-2.2002,-2.1731,-2.1521,-2.1423,-2.1425,-2.1485,-2.1565,-2.1665,-2.168,-2.168,-2.144,-2.1246,-2.15,-2.2074,-2.2493,-2.2927,-2.3287,-2.6426,-2.6142,-2.6484,-2.6348,-2.6025,-2.6279,-2.6299,-2.6133,-2.5889,-2.5684,-2.5684,-2.5684,-2.5684,-2.5615,-2.5459,-2.5361,-2.5488,-2.5195,-2.5174,-2.5307,-2.6406,-2.5997,-2.6172,-2.716,-2.7855,-2.7931,-2.8226,-2.8712,-2.9457,-2.8934,-2.8555,-2.851,-2.851,-2.851,-2.851,-2.851,-2.851,-2.8426,-2.8162,-2.7786,-2.7546,-2.7762,-2.7753,-2.72,-2.7993,-2.8342,-2.8053,-2.7007,-2.6683,-2.6393,-2.5095,-2.4097,-2.3541,-2.3268,-2.2763,-2.2342,-2.2197,-2.2197,-2.2185,-2.197,-2.1488,-2.0822,-2.0495,-2.0299,-1.969,-1.9799,-2.0033,-2.0481,-2.0819,-2.0976,-2.1189,-2.0855,-2.0893,-2.1212,-2.1472,-2.1975,-2.2482,-2.2755,-2.3221,-2.4114,-2.4471,-2.3751,-2.349,-2.3615,-2.3389,-2.3142,-2.2917,-2.2888,-2.2888,-2.2888,-2.2859,-2.2859,-2.2859,-2.2873,-2.2888,-2.2888,-2.2888,-2.2636,-2.2505,-2.2411,-2.2205,-2.201,-2.2055,-2.2117,-2.2235,-2.2358,-2.2328,-2.2233,-2.1949,-2.1844,-2.2024,-2.2194,-2.2553,-2.3017,-2.3445,-2.5908,-2.5547,-2.581,-2.5674,-2.541,-2.5908,-2.6162,-2.6113,-2.581,-2.5684,-2.5684,-2.5684,-2.5684,-2.5596,-2.5332,-2.5156,-2.5449,-2.5059,-2.5481,-2.5621,-2.6666,-2.6969,-2.7325,-2.7965,-2.918,-2.9328,-2.9234,-2.9538,-2.9906,-2.9155,-2.8739,-2.8558,-2.851,-2.851,-2.851,-2.851,-2.851,-2.8438,-2.8182,-2.7981,-2.7825,-2.7765,-2.7645,-2.7392,-2.7717,-2.8294,-2.7762,-2.7366,-2.7054,-2.6573,-2.5745,-2.4614,-2.3965,-2.3457,-2.2883,-2.245,-2.2197,-2.2197,-2.2185,-2.2185,-2.1687,-2.1012,-2.0974,-2.0556,-1.9915,-2.0072,-2.0296,-2.0671,-2.1103,-2.1306,-2.1356,-2.0999,-2.1326,-2.1628,-2.1992,-2.2522,-2.2968,-2.324,-2.3409,-2.4302,-2.4592,-2.3867,-2.3345,-2.3316,-2.3383,-2.3128,-2.2888,-2.2888,-2.2888,-2.2888,-2.2888,-2.2888,-2.2888,-2.2888,-2.2888,-2.2888,-2.2888,-2.2888,-2.2831,-2.2738,-2.2709,-2.2498,-2.2613,-2.2748,-2.2819,-2.2873,-2.2906,-2.2772,-2.2433,-2.2313,-2.2403,-2.2553,-2.2688,-2.3032,-2.343,-2.5439,-2.5125,-2.5096,-2.4834,-2.4629,-2.5284,-2.5615,-2.5635,-2.5615,-2.5596,-2.5654,-2.5606,-2.5625,-2.5577,-2.5244,-2.5116,-2.5047,-2.4629,-2.5281,-2.6382,-2.7326,-2.8054,-2.9168,-3.0364,-3.0577,-3.073,-3.0589,-3.0102,-3.0074,-2.9292,-2.8799,-2.8595,-2.851,-2.851,-2.851,-2.851,-2.851,-2.8462,-2.8414,-2.821,-2.8065,-2.8174,-2.781,-2.7618,-2.7909,-2.7993,-2.769,-2.751,-2.7222,-2.6777,-2.6177,-2.5107,-2.4302,-2.3806,-2.3107,-2.2522,-2.2209,-2.2197,-2.2197,-2.2197,-2.2005,-2.1488,-2.1428,-2.1103,-2.073,-2.0506,-2.0681,-2.0905,-2.128,-2.1334,-2.1377,-2.1691,-2.2005,-2.2328,-2.2645,-2.3114,-2.3604,-2.3804,-2.3856,-2.4221,-2.4491,-2.4201,-2.3911,-2.3789,-2.3229,-2.3084,-2.2888,-2.2888,-2.2888,-2.2888,-2.2888,-2.2888,-2.2888,-2.2888,-2.2888,-2.2888,-2.2888,-2.2888,-2.2888,-2.286,-2.2868,-2.2906,-2.2944,-2.3032,-2.3303,-2.3397,-2.3289,-2.3086,-2.2838,-2.2808,-2.2847,-2.2718,-2.2808,-2.2942,-2.3251,-2.4717,-2.4609,-2.4609,-2.4521,-2.4463,-2.4631,-2.4758,-2.4795,-2.4758,-2.4941,-2.5264,-2.5264,-2.54,-2.5606,-2.4951,-2.4853,-2.4734,-2.4592,-2.5068,-2.6114,-2.7525,-2.8321,-2.9452,-3.0683,-3.1148,-3.1067,-3.0783,-3.0543,-2.9953,-2.9244,-2.8715,-2.8522,-2.839,-2.8426,-2.8486,-2.851,-2.8486,-2.851,-2.851,-2.8306,-2.8089,-2.8017,-2.7618,-2.7426,-2.7642,-2.7558,-2.7294,-2.7486,-2.7162,-2.6442,-2.5853,-2.4915,-2.3986,-2.3457,-2.2855,-2.233,-2.2197,-2.2197,-2.2197,-2.2197,-2.2101,-2.1957,-2.1921,-2.1404,-2.1043,-2.0923,-2.1078,-2.128,-2.1477,-2.1611,-2.1663,-2.1918,-2.2252,-2.259,-2.2906,-2.3286,-2.3732,-2.3937,-2.3982,-2.4149,-2.4428,-2.4157,-2.3954,-2.3534,-2.3041,-2.2931,-2.2888,-2.2888,-2.2888,-2.2888,-2.2888,-2.2888,-2.2888,-2.2888,-2.2888,-2.2888,-2.2888,-2.2888,-2.2888,-2.2947,-2.2949,-2.3024,-2.3142,-2.3246,-2.3341,-2.3458,-2.3543,-2.3276,-2.2817,-2.3202,-2.3283,-2.3056,-2.2927,-2.305,-2.3221,-2.4316,-2.418,-2.417,-2.4072,-2.3881,-2.3861,-2.3871,-2.3955,-2.4268,-2.459,-2.4795,-2.4805,-2.4961,-2.4992,-2.4512,-2.4365,-2.4687,-2.4075,-2.466,-2.687,-2.7442,-2.8641,-2.9756,-3.06,-3.0848,-3.0747,-3.0494,-3.023,-2.9641,-2.8835,-2.8222,-2.8462,-2.8222,-2.821,-2.8318,-2.8306,-2.8278,-2.8426,-2.8438,-2.8174,-2.7921,-2.7669,-2.7246,-2.6885,-2.7162,-2.7042,-2.6827,-2.7174,-2.6899,-2.6238,-2.5709,-2.5143,-2.4179,-2.3469,-2.2794,-2.2306,-2.2197,-2.2197,-2.2197,-2.2197,-2.2197,-2.2197,-2.2185,-2.1885,-2.1656,-2.156,-2.1542,-2.1632,-2.1807,-2.1921,-2.1945,-2.2014,-2.2346,-2.2674,-2.3007,-2.3345,-2.3636,-2.3901,-2.4054,-2.4209,-2.41,-2.382,-2.349,-2.3105,-2.2989,-2.32,-2.3128,-2.2888,-2.2888,-2.2888,-2.2888,-2.2888,-2.2888,-2.2888,-2.2865,-2.276,-2.276,-2.2783,-2.2888,-2.2933,-2.3,-2.3023,-2.3023,-2.312,-2.3238,-2.3268,-2.3231,-2.2995,-2.2736,-2.3061,-2.3128,-2.2768,-2.2746,-2.3132,-2.3331,-2.4082,-2.374,-2.374,-2.3535,-2.313,-2.3159,-2.3149,-2.3179,-2.389,-2.4326,-2.4346,-2.4365,-2.4424,-2.4502,-2.4102,-2.4062,-2.4092,-2.3668,-2.4621,-2.7751,-2.7392,-2.8247,-2.9722,-3.0728,-3.0591,-3.0266,-3.0037,-2.9905,-2.9124,-2.839,-2.8029,-2.833,-2.7498,-2.7402,-2.7942,-2.7774,-2.7822,-2.8234,-2.827,-2.8114,-2.7789,-2.7536,-2.7212,-2.661,-2.6683,-2.6803,-2.661,-2.6635,-2.6717,-2.6346,-2.6033,-2.5624,-2.4422,-2.364,-2.2951,-2.2378,-2.2209,-2.2197,-2.2197,-2.2197,-2.2197,-2.2197,-2.2185,-2.2113,-2.1993,-2.1945,-2.1903,-2.1675,-2.1777,-2.1794,-2.1815,-2.2029,-2.2343,-2.2703,-2.3074,-2.3478,-2.3836,-2.3932,-2.3829,-2.3893,-2.3694,-2.3455,-2.3321,-2.2989,-2.2844,-2.3294,-2.3048,-2.2644,-2.2784,-2.2761,-2.2689,-2.2689,-2.2518,-2.2426,-2.2449,-2.2402,-2.2555,-2.2646,-2.2669,-2.2601,-2.2426,-2.2586,-2.2865,-2.2806,-2.2709,-2.2799,-2.274,-2.2543,-2.2429,-2.2406,-2.2392,-2.2244,-2.2438,-2.2891,-2.3172,-2.3344,-2.3291,-2.3291,-2.3179,-2.3101,-2.3101,-2.3101,-2.3101,-2.3286,-2.3652,-2.3896,-2.3965,-2.4102,-2.4219,-2.3906,-2.3848,-2.374,-2.3521,-2.4361,-2.582,-2.6498,-2.764,-2.9145,-2.9903,-3.0049,-3.0146,-2.9953,-2.9448,-2.8619,-2.7942,-2.7474,-2.7306,-2.6825,-2.703,-2.7462,-2.7246,-2.7438,-2.8053,-2.7942,-2.7918,-2.7702,-2.7067,-2.6526,-2.6815,-2.72,-2.7078,-2.7152,-2.7657,-2.7128,-2.6454,-2.6622,-2.5697,-2.4107,-2.377,-2.3144,-2.2426,-2.2221,-2.2197,-2.2197,-2.2197,-2.2197,-2.2197,-2.2197,-2.2197,-2.2185,-2.2197,-2.2065,-2.1801,-2.165,-2.1698,-2.1793,-2.2082,-2.2342,-2.2725,-2.3097,-2.3551,-2.4002,-2.3813,-2.3622,-2.346,-2.3286,-2.3168,-2.3083,-2.2934,-2.2842,-2.2531,-2.2041,-2.1845,-2.2289,-2.2407,-2.2225,-2.2146,-2.1864,-2.1766,-2.194,-2.1978,-2.2109,-2.2002,-2.1955,-2.1884,-2.1851,-2.2063,-2.2287,-2.217,-2.2109,-2.2189,-2.2244,-2.2235,-2.2105,-2.1917,-2.187,-2.1775,-2.187,-2.223,-2.2634,-2.3101,-2.3101,-2.3101,-2.3101,-2.3101,-2.3101,-2.3101,-2.3101,-2.3101,-2.3227,-2.3467,-2.3516,-2.3643,-2.3803,-2.3594,-2.3506,-2.3467,-2.3227,-2.4162,-2.5199,-2.5871,-2.6994,-2.8029,-2.8979,-2.9142,-2.9284,-2.9035,-2.8522,-2.7945,-2.7296,-2.6791,-2.6765,-2.6645,-2.6573,-2.697,-2.7114,-2.7282,-2.8053,-2.7786,-2.7702,-2.769,-2.7224,-2.6839,-2.7284,-2.7162,-2.715,-2.7234,-2.7681,-2.7248,-2.661,-2.6574,-2.5745,-2.4482,-2.3893,-2.3396,-2.2751,-2.2378,-2.2197,-2.2197,-2.2197,-2.2197,-2.2197,-2.2197,-2.2197,-2.2197,-2.2197,-2.2173,-2.1945,-2.1945,-2.1964,-2.2043,-2.228,-2.2438,-2.2731,-2.295,-2.3233,-2.3436,-2.3412,-2.3329,-2.327,-2.308,-2.2853,-2.2668,-2.2292,-2.2339,-2.2868,-2.2203,-2.1765,-2.2067,-2.2119,-2.1889,-2.174,-2.1576,-2.1648,-2.1978,-2.1835,-2.1585,-2.1465,-2.134,-2.1431,-2.1541,-2.1612,-2.166,-2.1636,-2.1636,-2.1609,-2.168,-2.1694,-2.1541,-2.1275,-2.1323,-2.1372,-2.1503,-2.1623,-2.1931,-2.3101,-2.3101,-2.3101,-2.3101,-2.3101,-2.3101,-2.3101,-2.3101,-2.3101,-2.3101,-2.313,-2.313,-2.3101,-2.3101,-2.3091,-2.3052,-2.3042,-2.3091,-2.3994,-2.4579,-2.5289,-2.6301,-2.7214,-2.8013,-2.8427,-2.8458,-2.8194,-2.7762,-2.7294,-2.6839,-2.6659,-2.6633,-2.6429,-2.6214,-2.7067,-2.7294,-2.7306,-2.7885,-2.7945,-2.7774,-2.7726,-2.7654,-2.733,-2.7078,-2.6994,-2.7018,-2.7078,-2.7126,-2.7138,-2.6837,-2.6586,-2.5733,-2.4915,-2.4218,-2.3556,-2.2991,-2.2414,-2.2258,-2.2197,-2.2197,-2.2197,-2.2197,-2.2197,-2.2197,-2.2197,-2.2185,-2.2173,-2.2161,-2.2161,-2.218,-2.2261,-2.2384,-2.2531,-2.2665,-2.2818,-2.2957,-2.3048,-2.3074,-2.3051,-2.308,-2.2945,-2.2708,-2.232,-2.1928,-2.219,-2.2758,-2.2733,-2.2424,-2.2121,-2.1957,-2.1734,-2.1694,-2.1629,-2.1797,-2.1964,-2.1749,-2.1367,-2.1173,-2.1113,-2.1177,-2.1202,-2.108,-2.108,-2.1237,-2.1213,-2.1213,-2.1129,-2.1118,-2.0909,-2.081,-2.0909,-2.1044,-2.1019,-2.1142,-2.124,-2.3101,-2.3101,-2.3101,-2.3101,-2.3101,-2.3101,-2.3101,-2.3101,-2.3101,-2.3101,-2.3101,-2.3101,-2.3101,-2.3101,-2.3101,-2.3013,-2.2838,-2.2964,-2.2818,-2.3084,-2.4624,-2.5614,-2.6518,-2.7543,-2.8246,-2.8227,-2.7969,-2.7654,-2.7198,-2.6873,-2.6741,-2.6801,-2.6813,-2.6693,-2.6837,-2.7054,-2.7282,-2.7825,-2.8029,-2.7882,-2.7993,-2.7825,-2.739,-2.7342,-2.7572,-2.781,-2.8026,-2.8186,-2.7945,-2.7522,-2.6922,-2.6093,-2.5312,-2.4542,-2.3893,-2.3207,-2.2618,-2.2306,-2.2246,-2.2209,-2.2197,-2.2197,-2.2197,-2.2197,-2.2197,-2.2197,-2.2185,-2.2185,-2.2185,-2.2185,-2.2266,-2.2347,-2.2451,-2.2665,-2.2848,-2.2957,-2.3055,-2.2879,-2.2752,-2.2904,-2.3049,-2.2715,-2.2367,-2.221,-2.2365,-2.2626,-2.2222,-2.1989,-2.2192,-2.1931,-2.165,-2.1684,-2.1705,-2.1581,-2.1635,-2.1582,-2.1285,-2.104,-2.0784,-2.0693,-2.0562,-2.0372,-2.0447,-2.0684,-2.0822,-2.0847,-2.0749,-2.0774,-2.0774,-2.0749,-2.0724,-2.0736,-2.0699,-2.0799,-2.1008]}]]